GFSSGP_700_spd_000.txt.gz
Wind_Speed
8 9 7 11 16 16 22 17 17 27 17 21 15 18 18 19 12 23 29 28 28 26 28 28 29 26 26 25 25 25 24 22 22 23 23 22 20 19 17 16 15 13 11 9 10 9 8 8 8
9 8 9 17 21 21 20 19 20 23 22 19 18 14 13 10 19 31 31 29 26 25 25 26 25 23 23 24 24 23 21 20 21 21 21 20 18 17 16 14 13 12 10 9 8 8 7 6 7
8 11 14 12 9 27 29 16 20 19 18 11 13 14 11 24 23 26 27 28 26 25 24 23 22 21 21 22 21 20 19 19 19 19 18 17 16 15 13 12 11 9 7 6 6 6 6 6 6
9 8 9 10 23 24 20 9 6 12 13 7 19 23 24 20 19 23 26 26 24 23 21 20 20 19 19 19 18 17 15 16 16 16 15 14 12 11 11 9 7 6 6 7 7 7 8 8 8
12 9 7 21 23 23 17 12 7 12 14 17 17 25 25 22 21 20 23 22 20 20 19 18 18 17 16 15 15 14 13 13 12 12 11 9 9 8 6 5 5 6 6 6 6 7 9 9 8
16 18 16 9 13 27 19 10 10 14 12 13 18 23 26 21 21 21 20 20 18 16 16 15 16 15 14 13 13 13 12 12 11 10 8 7 6 5 3 3 4 4 5 7 7 8 9 8 8
14 18 11 13 17 28 18 5 12 21 20 14 18 18 24 24 21 20 18 18 18 16 15 14 14 14 14 12 12 12 11 10 9 8 6 5 4 2 1 5 7 5 7 8 9 9 9 10 10
10 11 6 5 22 28 15 10 6 11 15 17 11 5 20 22 21 20 19 18 16 16 14 12 12 12 11 10 10 9 8 8 7 5 4 3 2 1 1 4 5 4 7 9 9 9 9 10 10
12 5 7 17 20 25 17 15 12 8 11 9 9 10 14 21 22 21 19 18 18 16 15 13 11 12 12 10 8 7 6 6 6 6 4 3 2 3 3 2 5 6 7 9 8 9 9 8 9
17 19 12 18 15 21 19 9 11 10 12 7 5 11 13 16 18 19 21 18 18 15 14 14 13 11 11 10 10 9 7 6 7 5 4 5 4 1 1 4 6 8 8 9 10 8 8 6 7
19 23 11 21 21 25 19 14 13 10 11 3 4 8 10 12 14 13 15 15 12 14 13 12 11 10 9 10 8 8 7 7 6 5 4 5 5 4 4 5 7 7 7 8 9 7 6 8 9
11 11 22 28 22 17 15 14 19 10 6 3 4 4 8 9 11 13 11 10 11 12 13 11 11 10 10 10 8 6 7 7 6 6 6 4 3 2 2 5 9 9 7 7 10 10 10 10 13
22 25 32 29 22 16 13 19 16 17 9 7 3 6 7 8 11 9 8 11 10 10 9 9 11 11 10 6 2 4 7 6 4 7 7 6 4 3 6 8 10 11 11 11 12 14 15 17 18
30 35 33 21 18 10 8 8 11 18 13 8 5 5 9 8 9 11 9 9 9 8 8 8 7 5 7 5 5 6 6 6 5 4 6 7 6 7 10 12 13 15 16 15 15 17 17 17 17
26 30 26 21 15 13 3 15 10 15 13 9 10 9 10 9 7 6 5 8 11 7 5 6 8 7 8 10 8 8 9 8 6 5 5 10 10 9 10 13 14 16 18 17 17 18 19 18 19
34 28 34 28 18 10 4 14 12 12 18 15 16 13 13 11 7 6 5 6 9 9 8 8 9 7 7 8 9 10 10 11 10 9 10 13 13 11 11 14 16 16 18 20 19 21 21 22 23
40 35 27 29 19 12 12 13 6 5 13 17 15 13 13 12 10 10 8 8 10 11 11 9 9 10 10 10 11 11 12 11 12 12 13 14 15 14 13 14 17 17 20 21 26 24 23 23 23
28 29 26 28 27 21 17 10 10 10 10 16 15 12 7 6 8 7 8 10 11 13 13 10 8 9 11 11 12 12 13 14 13 13 14 16 18 19 19 17 18 20 23 24 22 19 19 19 20
12 26 26 31 28 25 22 15 11 11 11 13 11 8 7 5 4 8 8 9 10 11 11 8 4 6 9 6 3 4 8 11 14 17 17 17 16 20 16 17 18 22 20 18 19 18 15 15 15
18 16 27 27 28 29 24 19 13 12 11 7 4 8 8 11 11 9 7 5 7 8 8 5 5 6 7 7 8 10 10 11 13 15 17 15 14 15 15 18 18 18 18 19 18 17 15 12 13
19 19 25 33 29 26 22 22 23 18 15 16 15 10 7 9 13 12 9 7 8 9 10 8 8 8 7 9 13 16 17 17 12 9 9 11 14 16 17 17 18 20 22 22 22 20 17 13 15
24 18 25 31 31 21 32 17 31 27 27 27 24 22 17 14 13 13 12 13 11 10 9 8 8 8 8 9 11 15 19 23 23 17 12 10 8 10 12 13 17 19 22 22 21 20 19 17 14
22 14 21 15 31 41 36 11 34 35 36 35 32 27 24 21 20 12 14 14 13 12 10 8 8 7 6 8 11 14 20 24 27 24 19 16 14 13 13 15 16 18 19 19 18 17 17 17 16
19 25 18 14 32 15 33 34 21 43 37 32 32 29 30 26 23 22 14 17 18 16 15 12 11 8 6 4 7 12 15 20 23 26 25 22 18 16 16 16 18 17 15 14 13 14 15 15 16
29 27 12 4 7 8 34 28 28 24 32 31 29 24 28 28 29 28 23 23 23 21 18 16 16 12 7 6 0 3 7 13 18 23 26 27 24 21 20 20 20 17 13 13 14 15 15 14 15
25 30 17 7 3 7 18 15 29 30 25 24 30 21 19 20 27 27 28 25 25 21 21 20 18 17 13 9 6 5 6 10 16 21 25 28 29 25 22 20 18 17 14 13 14 15 15 15 15
33 35 26 23 8 4 19 30 31 34 20 28 29 27 27 25 28 25 29 30 27 25 22 20 22 21 20 16 13 12 13 11 12 16 22 26 29 29 24 22 19 18 18 16 15 15 16 17 17
34 30 27 20 7 4 7 10 20 24 22 30 30 29 27 30 32 28 26 21 22 22 19 19 19 25 25 25 23 21 22 19 15 18 21 24 28 29 24 22 20 19 17 17 17 18 18 19 19
36 33 33 28 21 7 3 12 13 20 19 28 28 28 27 25 30 25 23 23 23 29 29 24 22 23 25 26 27 25 26 25 21 19 20 23 27 29 25 22 20 16 15 16 17 18 17 17 17
31 37 29 25 13 11 14 18 11 12 18 25 26 22 20 26 31 22 24 24 25 26 26 26 27 25 25 26 27 23 27 28 25 21 20 22 25 27 24 21 18 16 15 16 18 18 17 17 17

GFSSGP_700_spd_003.txt.gz
Wind_Speed
7 8 5 7 7 8 15 11 21 19 15 11 12 23 19 18 16 16 29 25 26 24 25 24 24 24 25 26 24 23 21 22 23 22 20 20 19 17 16 13 10 9 8 8 8 8 8 7 7
5 5 8 10 14 17 14 18 16 17 15 12 15 13 13 6 12 28 30 27 23 25 26 24 22 22 23 23 22 20 21 22 22 21 19 18 17 15 14 12 10 9 8 7 7 7 7 7 8
7 9 9 12 15 14 16 20 17 16 17 17 17 11 10 26 26 26 27 28 26 25 24 22 21 22 22 22 21 19 20 21 20 18 17 16 14 13 12 10 8 7 6 5 5 6 6 7 8
5 3 6 3 13 11 12 13 14 13 13 12 11 12 22 21 21 24 26 26 24 23 22 21 21 22 21 19 18 17 18 18 18 16 15 13 12 11 9 7 6 5 4 4 5 6 7 6 7
12 10 9 16 9 9 10 14 16 14 17 16 14 24 20 21 22 23 23 24 22 21 20 19 19 19 18 17 17 16 15 15 15 14 12 10 9 7 6 4 4 4 5 6 7 8 8 8 8
16 12 19 8 13 13 10 12 20 15 17 19 19 19 22 22 21 22 22 21 19 16 15 15 16 15 14 14 14 14 13 12 12 11 9 7 6 4 2 3 4 5 5 5 7 8 8 8 9
14 16 12 15 15 16 14 12 15 18 13 13 16 20 22 22 21 19 19 18 17 15 14 13 12 12 12 12 12 11 10 10 10 8 7 5 2 1 3 4 5 4 5 6 7 7 6 6 7
11 12 4 5 21 21 17 11 11 14 15 15 13 9 20 23 22 20 19 17 15 14 13 12 11 10 10 10 9 8 8 7 7 6 5 3 1 2 4 5 6 6 6 6 7 6 4 5 5
10 1 3 5 24 20 17 15 13 11 11 10 8 9 14 21 23 22 21 20 18 16 14 12 10 10 10 10 9 8 8 6 4 4 3 3 3 3 4 5 5 4 4 6 6 6 6 7 7
17 14 13 2 23 21 16 12 5 11 11 7 10 14 15 15 16 16 16 17 17 15 13 14 12 10 9 9 8 9 8 7 6 5 4 4 4 1 2 2 2 2 5 8 7 6 6 8 9
15 21 7 8 16 18 17 13 9 12 11 8 4 9 14 16 16 16 15 12 10 13 14 12 12 12 10 9 9 9 7 6 6 5 4 4 5 6 5 4 3 3 5 7 8 8 8 9 9
17 16 12 14 19 24 17 12 13 8 10 9 6 7 11 12 16 14 15 17 16 14 13 12 13 11 10 10 8 8 8 7 7 7 4 4 6 7 8 7 7 6 7 8 10 10 11 12 14
20 16 18 21 20 18 12 12 11 11 7 8 7 8 8 10 12 14 14 14 14 13 11 11 11 10 9 8 3 6 6 6 7 5 5 3 7 8 10 10 10 11 11 11 13 15 15 16 17
20 18 27 26 23 18 12 12 17 16 11 9 9 6 8 8 8 10 11 10 11 13 13 13 11 11 8 6 7 6 7 5 6 6 5 7 8 9 13 13 14 16 15 14 14 16 17 19 20
25 29 30 28 27 21 16 11 15 16 16 11 10 9 9 8 7 5 7 8 11 13 11 9 15 13 8 9 10 10 9 8 8 7 7 8 9 10 11 14 15 16 17 17 17 18 18 19 21
19 37 37 32 27 17 13 8 10 16 19 17 14 12 11 9 7 6 6 9 11 13 9 10 11 10 10 9 11 12 11 9 10 11 12 13 12 11 13 15 16 17 18 18 20 22 23 24 22
35 42 34 33 25 20 14 9 9 14 21 19 16 14 12 12 13 12 11 10 10 11 10 7 8 9 11 10 9 9 10 11 12 13 14 13 12 12 12 15 17 17 20 22 24 25 23 21 21
39 37 30 24 29 25 20 12 5 7 12 21 19 18 15 15 13 11 12 11 11 12 11 9 9 10 11 9 8 10 13 16 16 16 15 16 16 17 16 17 18 20 21 21 19 17 17 17 17
39 33 31 23 26 29 26 21 11 8 8 12 19 19 17 15 13 15 14 13 12 12 11 9 8 10 7 5 5 5 7 10 13 15 15 16 17 18 19 20 17 17 17 17 17 16 16 16 14
26 14 27 24 31 33 27 22 13 9 5 11 13 14 14 14 15 13 11 11 11 11 11 10 8 5 4 6 9 10 9 7 8 11 12 14 15 15 15 15 17 19 19 17 16 16 15 15 17
19 19 16 18 31 29 22 20 23 19 15 16 15 9 9 11 15 14 11 10 10 11 10 8 8 8 11 12 13 15 16 16 13 10 10 12 12 14 14 14 16 17 18 19 19 18 16 13 15
25 20 16 12 25 27 29 16 30 27 25 25 23 20 15 13 13 15 14 12 10 11 13 12 10 10 11 12 10 10 13 18 21 18 15 12 9 9 10 12 15 18 20 20 20 19 17 15 13
27 21 17 18 23 31 35 15 28 31 32 29 28 23 22 18 15 13 14 12 11 12 11 13 14 13 12 13 12 10 9 13 17 20 22 21 16 13 12 12 14 16 16 16 17 17 16 15 14
26 24 22 23 21 18 38 33 25 32 31 22 28 25 25 22 21 19 14 14 13 13 15 16 17 15 12 9 7 7 10 7 12 16 22 24 23 19 16 15 14 13 13 12 12 13 13 13 14
33 26 6 3 3 6 35 31 32 23 27 23 17 15 14 24 25 23 22 20 19 19 17 16 17 16 13 12 9 6 1 4 8 14 17 21 25 25 20 16 14 14 15 14 14 14 14 14 15
36 31 18 7 5 9 14 17 44 33 29 22 20 17 14 16 20 20 21 23 20 15 15 18 20 16 16 16 14 11 7 5 7 10 13 18 21 23 26 21 19 18 17 16 15 15 15 15 15
34 33 28 29 8 4 13 20 31 30 20 24 23 29 22 22 21 18 21 22 25 21 18 16 17 21 21 22 20 16 14 12 10 12 15 18 19 21 25 24 20 18 16 14 13 14 16 16 17
35 30 18 13 6 5 8 10 12 17 23 22 26 28 26 22 25 24 23 20 21 16 19 23 21 20 24 25 25 22 20 19 17 18 17 20 22 22 24 24 21 19 16 14 13 13 15 16 18
34 35 33 27 22 7 4 15 21 15 21 21 21 19 27 20 19 20 20 21 16 15 19 21 27 24 23 28 29 29 28 25 23 23 20 21 21 22 23 25 23 19 17 15 14 12 14 15 16
30 35 37 30 10 14 16 21 15 16 14 22 20 22 22 18 15 18 20 21 19 22 23 20 26 31 28 26 27 30 33 31 29 27 22 24 22 22 22 23 21 17 15 15 15 16 17 17 18

GFSSGP_700_spd_006.txt.gz
Wind_Speed
6 9 7 7 8 9 12 11 14 13 11 10 16 21 16 18 15 18 30 27 26 25 27 25 25 26 26 26 24 23 23 23 22 21 19 17 16 15 13 11 9 9 9 9 8 7 7 9 10
7 6 6 5 9 12 12 13 17 11 11 15 14 11 11 7 13 29 28 26 23 23 25 25 24 25 24 23 21 21 22 22 21 19 19 17 16 14 13 11 10 9 9 8 6 6 7 9 10
8 6 5 5 6 7 13 15 10 13 12 13 12 6 2 19 24 23 26 27 26 25 23 22 23 23 21 21 19 20 21 20 19 19 18 17 14 14 12 10 8 8 6 4 5 7 7 9 9
7 6 2 2 4 7 13 11 11 13 12 14 10 8 22 21 22 23 26 26 24 22 21 21 22 21 19 19 18 20 20 19 18 17 16 14 12 11 9 8 6 5 4 5 6 6 7 8 9
7 7 6 5 4 5 9 11 9 11 11 11 11 22 22 23 21 22 22 23 21 20 20 20 20 19 18 18 17 18 18 17 16 14 13 11 10 8 6 5 4 4 4 5 6 6 6 7 8
7 9 11 7 2 7 10 9 11 10 10 11 14 19 20 22 21 21 21 20 20 18 19 20 20 18 16 16 15 15 15 13 12 11 9 7 6 4 2 3 4 5 5 6 5 5 5 6 8
14 12 11 8 6 9 12 10 10 14 10 8 15 17 20 23 22 20 20 19 19 18 17 16 16 15 14 13 12 12 12 11 10 8 7 5 4 2 3 5 4 4 5 4 4 4 4 5 8
8 6 2 6 9 9 11 12 11 12 13 10 12 8 17 22 22 19 18 17 16 16 15 14 13 14 13 13 11 10 10 8 7 6 5 3 1 1 3 4 5 3 4 3 4 5 4 5 5
4 3 4 5 10 11 13 11 13 13 14 12 11 5 12 17 20 20 18 18 17 16 15 14 12 12 12 11 11 11 10 8 7 6 3 3 1 4 3 3 2 3 3 4 5 5 5 5 6
13 10 10 9 8 13 12 11 10 12 11 10 10 11 14 13 15 16 15 14 14 13 12 12 11 10 10 10 10 8 8 7 5 4 4 4 3 2 3 3 3 4 5 6 6 5 6 7 8
19 17 15 14 6 13 13 14 11 12 9 6 6 9 11 14 16 15 14 12 9 11 10 9 10 11 10 8 8 7 5 5 5 4 4 4 4 5 5 3 4 5 6 9 9 8 9 9 10
21 15 18 10 13 15 16 11 11 10 6 5 7 9 10 13 14 15 15 15 13 11 11 11 11 10 9 9 9 8 7 6 6 5 4 5 5 7 8 8 8 8 8 9 11 11 12 13 14
20 18 15 13 13 15 19 12 9 9 6 9 8 10 12 11 13 14 14 13 13 12 12 12 12 10 10 9 6 8 7 7 7 6 5 6 6 9 10 11 12 12 12 13 14 15 15 16 16
20 19 11 14 15 17 22 15 14 14 10 10 9 7 11 11 11 12 12 12 13 14 12 12 11 11 9 10 8 7 7 6 5 5 6 7 9 10 12 13 14 15 14 14 15 16 17 20 20
14 12 15 20 18 21 22 18 18 15 14 11 13 9 10 11 11 9 9 9 12 10 11 10 9 10 7 8 9 9 8 7 6 7 8 8 9 12 13 15 15 16 14 17 17 17 18 20 22
13 14 22 25 23 22 22 16 14 18 19 17 15 14 12 11 9 11 11 11 10 11 9 10 10 12 11 9 8 10 10 9 9 10 11 12 13 14 14 15 16 16 18 19 20 23 23 23 22
24 23 29 30 28 26 27 17 14 13 18 20 19 16 14 15 14 12 11 9 9 9 10 8 8 9 10 10 9 8 9 10 11 11 12 13 14 13 13 14 17 18 22 23 23 22 20 19 18
27 28 34 34 34 32 28 18 9 8 12 22 22 20 18 18 15 14 13 12 11 11 11 11 9 10 10 9 9 9 10 11 11 13 14 14 15 15 16 15 16 19 20 20 19 18 18 17 15
29 32 40 36 27 34 29 23 16 9 7 12 27 24 22 19 15 16 15 14 12 13 13 10 8 7 8 5 4 4 5 6 7 9 11 13 14 15 15 16 19 19 17 16 16 16 16 17 13
25 34 41 31 28 27 32 26 18 15 7 5 8 18 19 19 24 22 21 18 15 13 12 11 8 4 5 9 9 8 6 4 4 5 5 7 9 10 10 10 11 13 13 14 14 14 15 14 13
25 37 35 35 33 24 27 26 27 21 14 14 14 14 15 16 15 17 18 14 15 14 12 10 8 10 12 13 14 15 15 14 13 11 10 9 9 9 9 9 10 12 14 15 15 15 13 12 11
25 31 33 17 18 28 29 12 32 28 24 23 21 22 20 18 18 18 17 15 15 16 16 14 14 14 13 12 11 11 13 15 17 19 20 19 16 13 11 11 12 13 14 15 15 15 12 11 11
27 31 30 20 16 17 22 14 30 30 32 30 27 25 22 22 20 18 17 16 14 16 17 19 18 16 16 16 13 10 9 10 12 14 17 19 19 19 16 13 13 14 15 14 14 13 13 13 13
31 19 17 11 11 9 25 30 31 34 34 25 27 28 25 24 23 21 20 17 17 16 17 20 20 19 17 16 14 12 10 7 6 7 11 13 15 21 21 21 18 17 16 15 13 11 11 12 13
33 25 3 1 4 6 15 22 32 27 30 31 21 16 21 24 27 25 23 21 20 18 16 16 19 18 16 15 13 12 10 7 3 2 6 10 14 17 20 23 21 19 18 15 13 12 11 12 13
37 35 14 6 5 6 11 17 32 17 29 20 20 16 19 21 21 29 25 23 20 17 15 15 17 19 17 16 17 15 14 11 8 5 7 11 13 16 18 20 22 19 18 16 15 14 14 14 15
31 30 28 24 10 3 8 20 29 26 22 24 32 28 24 22 22 24 25 26 23 21 17 13 13 16 21 20 21 20 18 16 14 11 10 12 14 15 17 20 22 21 19 19 17 15 15 15 16
33 31 19 12 5 5 7 11 26 22 21 23 25 22 25 27 22 24 24 23 21 17 18 20 18 17 18 21 24 25 23 22 21 19 16 16 17 17 19 19 19 21 19 18 18 16 16 15 15
39 30 27 15 13 7 4 9 18 13 14 18 25 16 21 23 21 17 22 20 17 14 18 19 21 22 23 23 25 29 30 29 28 25 23 20 22 21 21 19 18 19 18 18 18 18 18 17 17
45 39 36 29 13 9 14 24 11 19 25 23 14 16 19 20 20 16 16 19 21 22 21 21 22 24 21 27 29 32 35 34 33 31 27 26 25 23 24 19 18 18 18 18 18 18 17 15 16

GFSSGP_700_spd_009.txt.gz
Wind_Speed
13 21 17 13 7 8 10 7 13 12 8 11 17 18 13 15 16 15 31 28 25 25 27 29 25 24 24 23 23 24 25 24 22 21 19 18 16 14 12 10 8 7 7 7 5 7 9 10 11
10 9 19 14 10 10 6 11 11 10 16 21 16 13 10 4 16 30 30 27 25 23 24 26 24 23 23 22 23 24 24 22 21 19 19 17 16 13 12 10 8 7 6 4 6 8 9 8 10
6 7 7 5 10 8 5 10 9 12 15 12 9 6 7 25 25 26 26 25 24 24 23 25 24 23 22 22 23 23 22 21 20 19 18 17 15 13 11 9 7 6 5 6 8 8 8 9 9
5 4 7 7 9 6 5 9 9 9 11 10 4 11 25 23 22 23 24 24 24 24 24 24 23 22 21 22 22 22 21 19 19 18 16 15 13 11 9 7 6 5 5 6 7 7 8 8 9
7 5 6 9 9 6 4 7 10 7 7 8 5 22 23 23 23 23 23 23 22 22 23 23 21 19 19 19 20 19 18 17 16 14 13 12 10 9 7 5 4 3 4 4 5 5 6 6 9
5 10 9 7 7 6 6 6 9 8 7 7 13 16 21 24 23 22 21 20 20 19 20 20 19 18 17 16 16 16 15 14 13 11 9 8 7 5 4 3 2 2 2 3 4 5 5 5 7
7 10 8 5 6 7 6 8 8 11 10 11 13 16 20 21 22 21 20 19 19 18 18 18 18 17 16 16 15 14 12 11 10 8 6 5 4 3 2 5 2 2 3 3 5 5 5 6 7
6 8 6 6 3 6 7 9 10 9 10 9 15 14 16 21 22 21 20 19 19 19 18 18 17 16 16 15 14 13 11 10 9 7 5 4 3 0 2 1 2 2 2 3 4 5 5 6 7
6 3 7 3 2 7 8 6 11 12 10 10 12 8 14 19 20 21 20 20 19 18 18 16 15 14 14 13 12 11 11 8 8 7 5 4 2 2 1 2 2 2 2 3 5 5 5 6 7
12 8 4 6 8 7 8 5 8 11 11 11 12 11 18 15 16 17 15 14 14 15 15 16 14 13 12 11 10 9 8 7 6 5 4 3 3 3 2 3 3 5 5 6 5 5 7 8 8
16 13 9 13 6 5 10 10 9 10 8 5 6 11 14 13 14 15 14 13 12 14 14 14 14 13 12 10 9 8 7 6 5 4 4 4 4 3 4 4 5 6 7 8 9 10 10 10 10
17 14 13 14 9 7 14 9 6 9 5 5 6 9 11 14 15 16 16 15 14 13 14 12 11 10 10 10 10 9 7 6 5 6 5 5 5 5 5 6 7 9 10 12 13 14 14 14 14
16 14 14 15 7 9 10 13 6 11 8 6 9 11 11 13 15 15 16 15 14 14 12 11 10 10 10 9 8 8 8 7 6 6 7 9 7 7 7 7 9 11 12 14 15 16 16 16 17
15 15 15 5 10 10 11 16 12 13 8 7 8 9 12 13 15 17 17 15 14 14 13 12 12 11 11 10 9 7 7 7 6 7 8 8 8 9 9 10 11 11 12 13 14 16 17 18 18
15 13 11 13 13 12 13 19 16 13 11 11 10 10 12 13 16 14 12 12 14 12 14 11 11 11 10 9 10 9 8 6 7 9 8 9 9 9 11 12 13 12 13 13 15 16 18 21 21
14 10 14 15 20 16 14 9 18 16 16 14 14 15 12 13 12 13 14 14 13 14 12 13 12 11 12 9 9 10 10 10 9 10 11 10 12 13 13 14 15 14 15 16 18 19 19 18 18
16 12 17 21 24 21 20 14 13 18 19 19 18 17 15 15 14 14 14 14 13 13 15 12 11 11 14 12 10 10 10 9 10 11 11 13 13 13 15 15 16 17 14 15 17 19 18 17 16
19 19 23 24 27 26 24 23 8 14 17 21 22 21 20 17 14 15 16 15 14 15 15 14 12 12 12 12 10 10 11 12 12 13 14 16 13 14 15 17 17 16 15 18 16 16 16 15 14
23 26 24 25 25 26 26 24 25 12 14 17 25 25 23 20 17 19 19 19 18 16 15 13 11 9 12 10 10 10 10 12 12 13 13 13 13 14 13 13 11 16 16 14 15 15 15 14 12
21 27 24 20 24 20 26 29 27 23 16 13 11 25 26 25 25 24 23 22 20 16 15 13 12 9 10 10 9 7 6 5 5 5 6 6 7 6 5 6 6 8 10 13 14 15 13 11 10
26 26 26 24 25 29 16 22 31 31 23 21 15 13 26 27 26 27 28 25 22 19 17 15 13 12 14 16 14 13 11 11 11 10 9 7 7 6 6 5 6 8 10 12 12 11 10 9 9
29 25 25 27 19 23 20 25 21 29 30 26 20 18 18 24 24 24 25 23 22 19 20 20 18 17 16 16 16 17 16 16 16 16 16 17 17 15 13 11 11 12 12 12 13 11 9 8 7
24 25 24 29 23 19 16 12 21 22 24 27 29 24 19 19 20 20 19 18 17 21 22 22 21 20 18 16 15 15 14 14 13 11 11 12 14 16 17 17 13 12 13 13 12 12 10 9 8
26 24 22 25 18 15 21 20 17 21 22 21 27 31 26 21 21 21 22 22 22 22 23 23 21 19 18 17 16 16 13 12 9 8 7 8 9 10 12 14 16 15 15 15 14 13 13 11 10
33 23 11 11 9 10 19 18 28 19 21 11 18 25 30 28 26 26 26 26 25 22 21 21 21 19 19 18 16 16 15 12 10 6 2 1 4 8 10 12 14 16 17 17 16 14 12 12 11
39 33 23 16 10 15 21 16 22 24 22 18 17 16 20 31 31 29 28 27 26 22 21 21 21 23 21 19 16 17 17 15 13 9 6 6 7 10 13 14 16 16 19 18 17 14 12 12 13
32 36 33 23 10 9 13 18 18 20 17 18 16 18 14 19 24 30 32 30 27 23 18 16 20 21 23 21 21 20 21 20 18 15 12 11 12 13 15 16 16 17 17 18 17 17 16 14 15
28 29 25 22 18 17 12 10 14 14 19 17 20 15 17 23 23 24 27 34 31 24 21 20 19 19 19 23 24 24 25 25 24 22 19 17 17 17 18 18 17 17 16 16 16 17 17 16 17
26 23 20 21 22 14 15 22 20 21 18 18 17 19 23 21 25 27 24 26 24 21 22 23 25 23 22 21 22 26 31 30 28 26 26 28 23 24 20 21 19 17 17 17 16 16 17 16 17
31 30 31 30 19 18 21 24 10 9 19 18 19 23 20 21 25 30 25 25 26 26 26 27 24 25 23 23 26 27 30 33 27 31 27 29 35 27 25 25 22 20 19 18 18 16 15 16 17

GFSSGP_700_spd_012.txt.gz
Wind_Speed
24 21 15 14 5 8 11 6 7 6 4 6 12 15 7 12 10 14 29 26 27 27 29 28 27 27 25 25 24 23 24 23 22 22 22 20 17 14 10 8 7 6 6 5 7 8 8 9 11
9 12 18 8 2 11 10 9 9 7 14 15 13 11 5 7 8 28 26 26 28 27 26 26 26 26 24 23 24 24 23 22 22 21 20 18 15 12 9 8 7 5 5 5 6 7 8 9 10
9 10 9 8 7 9 12 10 10 13 12 8 6 4 5 21 29 27 23 24 25 25 24 24 24 24 22 24 24 24 22 21 20 19 19 16 14 12 9 7 5 4 5 6 6 6 7 7 8
6 7 10 10 11 8 9 11 12 10 8 7 5 9 25 27 24 22 23 23 24 23 23 23 23 23 23 23 23 21 20 19 19 19 17 15 13 11 8 6 4 4 5 5 5 6 7 8 7
5 8 8 11 11 10 10 11 10 8 6 5 9 22 22 23 23 22 22 22 23 23 22 21 21 21 21 21 20 19 19 18 17 15 14 12 10 8 6 4 2 3 4 4 5 6 6 7 8
1 6 7 13 9 8 9 10 9 7 7 6 14 19 22 23 23 23 22 23 22 22 21 19 20 20 19 19 18 17 17 15 14 12 11 9 7 6 3 2 1 1 3 4 5 6 6 6 7
3 3 6 8 8 7 8 10 7 6 8 9 15 15 19 22 22 22 21 21 21 21 19 19 19 19 18 18 17 16 14 13 11 10 8 6 4 2 1 3 1 2 2 3 6 5 6 6 7
3 3 3 2 5 6 7 9 8 8 9 13 15 12 19 21 20 20 19 19 20 19 19 18 18 17 17 16 15 14 13 11 9 8 6 4 2 1 2 1 1 1 3 4 5 5 6 6 7
5 3 5 4 0 5 5 9 9 10 11 13 15 10 18 19 19 19 18 18 18 19 19 18 17 17 16 15 14 13 11 10 8 7 5 3 3 2 2 2 2 2 4 5 6 6 6 6 5
7 4 3 1 1 6 10 10 7 8 11 13 16 12 16 18 17 17 16 16 18 19 18 18 18 17 15 13 12 11 10 9 8 7 5 5 3 3 2 3 4 4 5 5 6 6 7 8 9
7 7 2 4 3 7 12 10 8 9 9 10 11 12 17 18 17 17 17 16 15 16 16 15 15 14 13 12 11 10 8 8 7 6 5 4 4 3 3 4 5 6 7 8 10 11 11 10 12
11 9 7 6 7 9 13 11 10 8 6 10 9 9 14 18 17 19 19 17 16 15 15 14 14 14 14 12 11 9 8 8 7 7 5 4 4 4 5 6 7 8 9 11 11 12 13 13 12
15 10 10 8 7 10 13 12 9 11 8 7 9 10 13 14 15 17 17 17 17 16 14 14 13 12 11 10 11 10 9 8 8 7 7 7 6 6 7 7 8 10 11 13 12 13 14 15 16
9 8 10 6 9 11 13 13 12 13 10 8 10 11 14 15 17 19 20 20 18 17 16 15 13 12 11 10 10 10 10 10 8 9 9 7 7 8 8 10 10 10 11 12 13 14 16 17 18
13 7 6 8 12 10 12 13 14 14 12 11 10 14 15 15 17 18 17 16 17 16 16 15 14 14 12 12 12 10 9 8 9 10 9 8 9 10 10 10 11 11 12 13 15 16 16 16 16
14 12 11 14 14 13 13 9 15 15 15 14 13 13 15 15 16 15 16 17 18 19 17 16 15 13 14 12 12 12 12 11 9 10 11 11 12 12 12 13 13 13 13 14 14 15 18 18 15
19 18 15 14 17 15 15 6 12 16 16 18 16 16 14 16 16 18 19 19 19 18 17 17 15 14 14 14 11 11 11 12 12 12 12 12 14 14 14 14 14 15 16 15 16 20 17 17 16
24 21 18 18 20 16 17 10 9 11 18 19 21 19 19 17 16 18 19 20 19 19 19 18 16 15 13 14 15 13 13 13 13 13 13 14 15 14 15 15 17 17 14 16 18 18 18 17 16
22 20 18 21 16 18 17 17 14 15 13 19 22 26 24 22 19 20 21 21 21 20 19 19 17 14 15 16 16 14 14 15 15 15 16 15 15 15 17 16 14 13 14 16 16 15 15 16 14
25 24 22 20 17 17 16 19 17 18 18 18 20 25 28 25 27 25 25 24 23 21 19 19 17 16 16 18 16 15 14 13 12 12 13 13 14 12 11 10 8 7 9 10 11 11 12 11 11
31 27 25 22 17 17 16 20 19 21 20 21 21 21 25 30 31 29 27 26 25 23 21 21 19 17 17 17 16 14 12 11 10 9 8 7 7 6 5 3 2 1 4 7 9 9 8 9 9
34 30 25 24 20 21 20 20 17 18 21 23 25 23 22 30 34 33 32 30 28 24 23 22 22 21 19 19 17 16 14 13 12 12 14 14 13 11 9 7 5 6 9 11 11 10 10 9 10
37 28 27 24 25 26 18 18 19 14 19 22 22 23 23 22 28 32 34 32 28 26 26 25 25 22 20 19 19 20 19 18 16 14 12 11 11 10 10 10 11 11 11 12 14 13 12 10 9
30 27 26 25 27 28 32 23 24 19 19 16 19 24 24 24 22 23 24 24 25 25 26 28 27 23 21 20 19 19 21 18 15 12 10 8 6 5 6 8 10 11 13 13 14 13 11 10 8
32 30 21 20 20 16 29 31 28 16 16 14 14 22 16 23 25 23 24 27 26 26 26 28 27 23 21 20 19 20 19 17 15 12 9 5 1 3 5 7 8 10 13 14 13 13 12 11 10
41 41 27 24 16 17 32 24 33 26 24 22 21 15 16 16 21 29 26 26 26 25 26 25 23 22 20 20 19 20 20 19 17 14 12 9 6 6 8 9 11 12 12 15 15 14 14 13 12
41 46 41 34 30 27 29 26 31 26 23 19 18 15 14 15 22 28 30 29 29 28 25 22 21 23 22 21 21 17 19 22 21 19 16 13 11 10 10 13 14 13 15 16 18 17 16 15 14
40 41 41 43 25 22 29 27 22 21 20 19 19 15 15 19 21 21 25 31 33 31 26 25 25 26 26 26 23 23 21 22 23 23 21 19 18 18 14 14 20 19 16 16 18 19 17 17 17
38 36 44 41 42 19 18 30 27 23 20 15 15 16 14 16 20 24 24 27 36 32 28 26 25 24 27 28 24 25 25 25 28 28 25 24 23 26 23 21 24 25 20 19 22 21 19 17 17
38 39 38 37 38 40 42 34 28 28 24 25 24 18 17 19 17 20 26 31 29 34 34 30 30 29 26 23 23 25 26 30 32 32 31 28 21 27 29 22 23 26 26 22 24 25 23 19 17

GFSSGP_700_spd_015.txt.gz
Wind_Speed
18 12 5 3 20 7 9 10 10 10 9 8 12 6 16 19 12 20 29 27 27 28 29 28 29 27 27 27 25 24 23 22 22 20 18 16 14 11 7 7 8 8 7 7 7 7 8 9 10
13 10 13 13 9 6 12 11 10 14 15 14 12 9 13 17 14 29 30 30 28 27 26 26 26 26 26 24 23 22 22 21 20 18 17 15 12 9 7 7 8 7 6 6 6 7 8 8 8
17 17 8 9 11 10 15 10 12 14 11 6 5 8 6 24 21 25 27 28 25 25 24 24 24 23 24 23 22 21 20 18 18 17 16 13 11 9 8 7 6 5 5 5 6 7 7 8 8
6 3 1 10 10 9 12 11 10 9 8 8 10 19 24 18 15 22 25 26 24 24 23 22 21 22 23 23 21 20 19 19 18 17 15 13 10 8 6 6 4 4 4 6 6 6 8 8 9
2 2 12 10 9 8 9 9 9 9 8 11 13 21 20 16 20 21 22 23 23 22 22 21 21 22 23 22 20 20 19 18 17 16 14 11 9 6 4 4 4 4 4 5 6 6 7 8 9
5 8 7 14 9 8 8 9 7 7 8 10 15 19 15 19 20 19 19 21 21 19 20 20 20 22 22 21 20 19 18 17 15 14 11 9 6 4 4 4 3 4 5 6 7 6 7 6 8
4 12 1 11 8 9 7 9 6 7 8 11 16 13 18 20 19 18 16 19 20 18 18 19 20 20 20 19 18 17 15 14 11 9 7 6 4 4 3 5 4 5 5 6 7 6 6 6 7
7 3 3 6 9 9 6 8 6 8 10 14 14 9 21 21 21 21 16 18 19 15 18 18 19 19 19 18 16 13 12 10 8 7 4 2 2 2 3 3 3 4 6 7 8 8 7 7 6
6 4 6 2 7 9 9 7 9 9 13 14 11 8 20 19 21 20 21 16 20 20 17 17 17 17 16 15 14 11 9 8 6 5 3 1 1 4 3 4 4 4 5 6 7 8 6 6 3
3 8 5 5 4 13 9 6 8 10 12 12 13 16 16 17 18 20 19 17 16 19 18 14 14 15 15 14 12 10 9 8 6 4 3 3 4 2 3 5 4 5 5 5 6 7 8 8 11
7 15 10 0 3 7 8 8 7 9 9 12 15 18 14 17 18 19 17 16 16 17 18 15 15 14 13 12 12 11 9 8 7 5 5 4 5 5 3 2 9 7 6 7 11 10 12 12 10
12 6 4 3 1 7 9 10 8 8 6 12 15 17 14 17 18 19 18 17 16 15 17 18 16 15 13 11 11 9 8 7 7 6 6 5 4 3 5 6 4 6 8 8 9 14 12 12 13
12 9 8 7 7 9 12 11 10 9 9 13 16 17 16 16 18 19 19 18 18 17 17 16 13 13 13 14 11 9 11 8 7 9 8 8 5 10 7 7 7 6 9 9 13 11 14 16 13
9 10 10 8 9 12 14 13 10 12 12 13 16 15 18 20 20 21 21 20 20 18 17 16 14 14 13 13 11 11 12 13 10 10 11 9 8 8 8 9 9 9 10 11 12 13 14 16 17
15 12 9 7 12 13 15 13 15 14 14 14 16 16 20 21 22 21 21 21 19 18 17 16 15 14 13 13 12 10 8 9 7 13 13 9 8 9 10 10 12 11 12 10 12 14 15 17 18
20 17 18 13 14 13 19 17 17 15 16 16 16 18 20 21 22 21 19 18 18 18 19 17 16 15 14 13 12 11 9 12 9 10 14 12 11 12 11 11 13 12 13 15 14 15 17 20 17
21 24 20 18 18 14 16 16 16 15 16 17 18 18 20 21 22 19 18 19 21 21 19 18 17 15 14 14 13 11 11 13 13 17 14 15 12 13 13 13 15 13 14 16 16 16 18 21 18
27 25 24 22 22 17 14 5 13 14 15 17 20 21 22 22 21 21 21 22 22 22 21 20 19 17 16 14 14 14 13 14 15 16 15 14 13 15 15 16 14 14 16 16 16 18 20 20 19
26 24 17 20 21 23 20 16 14 14 16 16 19 22 24 24 22 23 22 24 25 24 22 21 21 18 17 16 17 18 17 16 16 17 21 15 15 16 15 16 16 15 16 15 19 17 18 14 14
29 27 23 18 21 26 21 21 20 17 17 18 20 21 24 25 25 26 26 25 24 23 21 20 20 19 18 17 18 18 12 14 18 16 16 16 15 15 15 15 15 10 11 10 12 12 13 12 8
34 31 25 23 23 23 20 23 21 19 18 19 20 21 22 27 27 29 29 28 26 26 22 20 18 20 20 18 20 19 20 14 15 13 11 12 11 10 10 8 5 2 4 8 8 8 8 8 9
36 31 27 26 23 21 27 26 29 25 23 22 22 24 24 26 29 29 30 31 29 27 24 22 21 22 22 20 21 18 17 16 12 9 8 6 6 6 6 4 2 1 4 7 10 11 10 7 5
37 31 30 28 28 30 31 30 22 25 27 24 22 24 25 25 27 31 31 30 30 29 28 25 24 23 23 22 20 19 19 15 12 12 13 12 11 8 6 4 2 3 6 8 11 12 12 10 8
34 32 32 33 32 25 33 31 33 24 23 20 21 21 25 26 27 29 30 30 30 30 30 29 28 26 25 23 21 20 17 16 18 17 15 13 11 8 5 2 2 5 7 10 11 11 13 11 9
37 37 29 27 26 21 33 34 33 25 20 22 21 21 24 27 28 29 25 27 30 29 31 29 29 28 26 24 21 19 17 18 17 18 17 15 10 6 4 4 5 8 9 11 12 12 12 12 11
44 45 37 26 18 20 35 34 39 29 20 15 18 18 17 25 27 28 21 23 25 26 26 26 27 27 27 24 21 19 19 19 18 18 18 14 9 8 7 7 8 10 11 14 16 15 14 12 11
43 50 45 40 36 29 35 35 31 23 29 28 23 22 20 23 28 24 24 24 23 23 22 23 25 26 26 24 22 19 20 21 19 18 17 14 14 12 12 10 10 12 15 15 17 19 17 17 15
48 42 46 45 28 26 35 33 33 32 30 27 25 21 20 22 27 30 31 26 22 25 24 24 24 25 26 25 24 22 18 18 20 18 19 19 19 18 18 16 18 21 19 17 19 22 21 20 19
38 50 46 46 47 21 20 30 33 24 21 28 25 24 21 20 25 28 32 27 22 27 28 27 26 27 28 28 28 27 24 20 20 19 23 25 26 22 25 21 23 24 24 19 19 23 27 25 21
39 43 48 40 39 44 42 34 27 26 21 21 20 17 20 21 23 24 29 31 29 25 29 31 29 28 27 28 29 28 27 25 23 24 27 30 29 31 28 28 27 28 28 23 30 28 29 29 24

GFSSGP_700_spd_018.txt.gz
Wind_Speed
6 4 5 17 9 6 4 10 9 14 15 12 6 13 18 16 14 20 26 26 28 29 29 30 29 29 28 27 26 23 20 20 20 18 15 12 11 9 9 10 9 10 10 10 10 11 10 11 12
3 5 5 9 17 11 14 16 16 22 18 12 10 23 16 15 19 33 31 29 28 28 28 27 28 27 27 25 24 21 20 20 19 17 14 12 9 8 9 8 7 8 9 9 9 9 10 10 10
3 13 9 4 7 3 19 19 16 15 12 13 14 14 18 27 24 31 30 31 28 27 25 25 25 24 24 23 22 21 20 19 17 15 13 11 9 8 7 6 7 8 9 8 8 8 9 9 9
5 5 20 18 15 15 16 15 12 13 12 17 14 23 23 19 23 25 27 27 25 25 23 22 22 22 23 22 21 20 18 17 16 14 12 10 9 8 7 7 8 9 9 8 8 9 10 10 10
4 4 5 2 8 13 13 12 14 15 13 19 18 25 19 17 23 23 24 25 23 22 22 20 21 22 22 21 20 19 18 17 16 14 12 9 8 7 6 7 9 9 9 10 9 9 9 10 10
17 7 20 10 10 8 10 9 12 18 15 24 21 20 27 16 21 20 21 22 20 20 20 20 21 21 20 20 19 19 17 16 15 12 10 8 7 7 8 9 9 10 10 10 9 8 8 9 9
6 5 4 7 9 10 8 7 10 12 13 17 19 22 23 17 16 19 20 22 17 19 19 19 20 20 20 19 19 17 16 14 12 10 8 7 6 6 8 10 9 9 8 9 8 7 8 8 8
9 18 23 18 11 9 9 7 11 11 19 17 16 20 19 11 12 12 20 19 17 17 18 19 20 19 19 17 16 15 13 11 9 7 6 4 3 5 6 6 6 8 8 8 9 8 7 7 7
8 16 5 9 12 12 9 8 10 12 14 13 10 9 21 20 9 8 14 20 19 16 18 18 19 19 18 16 14 12 10 9 6 5 4 2 4 6 7 5 6 6 6 6 7 8 8 8 5
9 5 5 4 5 8 12 9 10 9 14 13 5 22 21 25 19 12 7 19 20 21 13 19 18 16 16 15 12 11 9 6 5 3 2 2 4 4 4 4 3 3 4 5 5 9 9 5 11
10 2 7 6 7 17 8 11 8 14 13 13 27 24 18 24 23 16 7 6 17 18 17 12 15 15 14 14 12 10 7 6 5 3 2 1 0 12 4 5 6 7 6 9 10 6 8 12 12
15 17 11 3 5 8 15 14 9 10 11 18 16 19 20 25 23 20 17 12 16 13 11 15 14 15 15 14 10 10 9 7 6 4 2 2 2 5 5 7 5 10 7 9 7 10 9 13 15
15 11 14 9 8 8 8 13 13 9 14 15 18 22 21 24 23 21 19 16 17 15 15 14 14 12 11 16 9 6 4 9 1 5 4 6 6 6 5 7 7 7 9 11 9 10 12 14 15
15 13 14 11 10 10 14 14 13 12 14 16 19 22 22 24 23 23 22 20 18 12 17 14 13 12 10 9 8 8 12 8 8 9 12 5 8 5 4 8 5 6 8 9 11 12 14 15 17
18 17 13 13 12 13 15 16 11 17 15 18 18 21 23 24 23 24 25 25 23 20 22 17 12 12 12 11 9 9 11 10 11 7 8 8 6 7 8 9 9 10 8 9 9 11 13 13 16
22 20 21 20 15 16 19 18 11 18 17 18 18 21 23 24 24 24 24 24 25 20 18 14 13 13 13 12 11 10 11 10 9 8 13 9 9 10 9 10 12 11 13 13 13 15 16 16 18
25 26 23 15 15 17 19 17 13 15 16 19 20 20 23 23 24 25 22 23 21 19 18 16 15 13 11 12 11 12 14 12 14 11 8 11 11 9 9 12 13 12 13 14 14 14 15 20 19
26 26 25 25 22 22 23 21 27 19 19 19 20 21 23 24 26 26 23 22 22 21 19 17 17 16 12 12 13 14 14 11 11 16 16 15 13 11 10 12 12 12 14 14 15 14 18 19 19
24 24 24 20 14 21 22 16 20 27 23 20 21 22 23 24 24 26 24 24 24 24 21 19 18 17 16 14 13 14 13 12 13 15 12 18 15 14 12 12 13 13 13 14 13 16 17 15 15
31 31 31 24 22 25 22 22 18 29 25 22 23 22 24 25 26 27 28 27 26 25 21 18 18 18 18 16 14 14 15 16 15 12 20 13 13 14 12 11 11 10 9 9 10 11 12 12 6
33 33 30 27 23 23 23 24 26 26 23 22 22 22 23 27 28 31 31 30 29 27 23 19 18 18 18 19 16 17 17 16 15 12 14 9 12 8 6 5 6 3 3 5 7 8 9 10 8
38 32 31 27 25 20 23 21 26 26 28 26 24 24 25 25 28 30 34 33 33 31 26 23 20 20 18 20 19 19 18 18 15 14 11 7 7 4 4 5 3 1 3 6 8 10 8 8 7
40 31 32 30 24 24 26 22 22 31 33 32 26 27 26 26 27 31 35 36 28 32 30 25 22 21 20 20 21 19 19 18 17 11 8 7 9 8 6 5 3 0 4 7 9 10 11 10 9
34 33 32 33 33 25 31 28 33 35 36 31 31 27 28 28 29 30 32 35 32 27 30 26 24 22 21 20 20 20 16 16 13 12 11 11 10 7 7 5 2 2 5 7 9 11 12 13 11
37 36 30 24 24 18 31 35 24 34 36 23 34 31 31 27 30 31 33 30 26 24 26 27 24 24 23 22 20 21 17 16 14 12 14 12 11 13 10 4 3 5 7 8 10 11 12 13 14
39 42 32 21 18 22 39 34 31 29 26 17 22 32 31 28 28 33 30 27 22 22 23 23 18 20 24 24 23 22 19 18 15 13 13 15 16 13 10 8 5 5 8 10 11 11 14 15 15
39 44 43 42 35 30 34 39 34 27 30 33 25 24 20 30 28 29 32 29 29 25 18 18 17 14 22 24 24 22 19 18 15 14 16 17 17 15 11 11 10 11 13 13 13 14 21 23 20
44 38 39 44 26 25 31 36 30 32 28 30 30 29 24 17 28 24 26 29 30 27 21 19 20 15 21 25 25 22 20 16 15 17 18 18 19 21 15 16 17 17 19 18 20 16 29 33 31
36 43 42 39 45 18 18 29 34 32 33 32 26 32 27 20 24 25 27 31 31 27 23 23 23 22 23 28 27 25 23 21 17 17 19 20 24 22 25 19 22 24 24 24 27 29 37 41 45
44 42 43 39 32 43 40 30 31 32 33 35 29 29 28 28 27 29 28 33 32 28 28 24 26 25 23 24 27 26 26 24 22 21 20 21 24 28 29 28 27 29 33 33 34 37 41 39 45

GFSSGP_700_spd_021.txt.gz
Wind_Speed
8 10 14 11 2 0 4 8 23 11 13 9 8 15 14 18 16 24 35 31 30 30 36 33 29 29 29 27 26 24 22 21 19 16 14 13 12 12 13 12 11 10 9 11 12 13 12 12 13
6 6 13 10 6 9 10 10 15 12 12 12 17 11 18 20 12 36 35 31 30 31 30 28 29 28 27 25 23 22 21 19 17 15 13 11 11 12 12 10 9 9 10 12 12 11 12 11 11
2 11 14 8 10 10 15 15 19 15 13 11 14 14 20 26 28 32 31 32 31 30 29 28 27 26 24 23 22 21 19 18 16 14 12 11 11 11 10 9 9 9 11 12 13 13 13 12 12
8 9 12 3 14 16 18 15 18 30 12 6 8 28 26 24 26 30 31 31 30 28 27 25 25 24 23 22 22 21 19 16 15 13 12 11 10 9 8 9 9 11 12 12 12 12 11 12 12
8 13 15 8 16 21 19 17 20 24 15 12 19 26 26 25 24 26 27 27 26 27 25 23 22 22 22 21 20 19 18 16 14 13 12 10 8 8 8 9 10 11 12 12 11 11 10 11 11
5 16 11 20 15 19 10 10 16 9 13 21 18 26 27 22 21 22 24 25 23 22 23 21 22 21 20 20 19 19 17 16 14 12 10 8 7 8 10 11 12 12 11 10 9 10 9 9 9
9 18 24 2 10 14 11 12 19 15 13 11 10 24 23 21 19 21 21 23 22 20 20 21 20 20 20 19 18 18 16 15 13 10 8 7 7 7 9 9 10 10 9 10 9 9 8 7 7
5 16 11 9 9 9 12 15 17 11 13 12 3 11 24 21 20 19 19 22 21 20 19 20 20 19 18 18 17 16 15 13 11 8 6 4 5 6 8 7 7 8 9 8 9 8 7 8 8
15 11 7 5 9 9 12 14 19 13 9 10 2 1 14 20 19 19 20 19 21 21 19 19 19 19 18 17 15 14 12 10 9 7 5 5 5 4 7 6 4 6 6 6 7 7 8 8 10
20 9 20 1 3 13 13 12 15 20 17 15 8 10 18 19 17 16 15 20 21 21 22 20 19 18 17 15 14 12 10 9 7 4 2 3 3 1 4 6 6 6 5 6 6 6 4 7 6
23 13 4 6 9 15 11 15 11 18 17 12 12 14 16 13 16 11 10 11 18 24 23 22 20 18 16 15 13 11 9 8 6 5 3 5 0 3 4 5 6 6 6 6 5 5 9 9 10
25 21 14 7 2 14 15 10 15 11 19 16 10 12 9 16 14 12 11 12 15 16 19 21 18 17 16 15 13 10 9 6 6 8 5 1 3 2 4 5 4 5 3 6 7 7 11 12 14
20 25 14 10 20 13 11 18 14 17 19 15 11 12 21 18 15 10 8 11 14 11 13 18 17 15 15 14 11 10 11 11 7 9 2 2 3 5 5 5 5 6 7 6 9 10 11 12 12
15 20 20 11 21 13 8 21 17 16 18 16 11 11 23 25 20 15 14 7 10 10 13 15 14 13 11 8 7 6 8 3 3 2 3 6 4 3 4 6 7 7 9 8 8 10 11 11 13
21 23 17 13 13 11 24 15 21 22 18 17 14 11 22 23 30 25 21 14 12 11 12 16 14 12 10 9 6 6 7 8 8 6 5 5 6 4 4 5 9 10 9 9 9 9 12 13 13
22 21 25 14 15 17 20 16 18 18 20 18 17 15 17 22 27 28 27 21 19 15 12 11 12 11 11 9 8 8 7 7 11 8 8 6 6 6 8 9 9 13 8 12 11 12 14 15 18
22 25 22 20 10 21 19 26 16 23 20 20 18 16 17 21 23 28 31 27 22 17 12 11 11 10 9 11 10 10 10 10 12 11 10 5 3 6 6 9 10 11 11 12 13 15 13 15 16
24 25 26 27 21 23 22 20 24 24 23 21 21 19 18 21 26 25 25 32 26 22 16 13 11 11 13 13 13 13 13 11 13 9 6 11 10 8 6 11 8 8 11 12 13 14 14 15 14
25 28 30 23 26 28 24 26 31 26 26 28 26 24 23 22 21 29 26 24 28 23 19 16 16 13 12 12 11 10 11 10 10 8 11 15 10 11 7 10 9 10 9 9 6 10 11 12 12
31 34 35 27 27 28 25 31 29 29 40 33 35 28 27 24 23 25 29 26 27 23 20 18 18 18 14 10 10 11 12 12 12 13 16 7 10 10 10 9 8 7 6 8 11 12 13 11 7
37 37 35 25 19 17 24 33 35 28 33 34 39 30 27 25 28 29 29 31 28 26 22 19 18 19 17 13 13 13 15 14 13 12 8 8 9 7 7 6 2 4 7 7 8 10 13 13 12
38 40 33 31 24 31 32 17 35 28 32 34 39 35 32 28 28 28 31 31 31 31 26 22 20 19 18 17 15 16 14 14 13 11 8 5 4 4 3 3 4 2 3 5 6 7 11 13 13
43 34 35 32 34 23 26 23 27 29 42 30 40 38 34 29 26 22 19 20 23 22 22 24 22 22 21 20 17 18 15 14 14 13 9 7 7 6 6 4 4 2 3 3 5 7 9 12 13
33 34 36 38 37 18 31 30 24 34 44 39 38 39 36 33 28 27 21 16 21 21 22 20 24 24 23 21 19 17 14 13 14 13 10 12 12 11 8 7 6 3 1 4 5 7 10 12 15
33 34 28 19 19 9 27 37 30 34 34 38 42 36 34 29 32 31 30 20 16 15 13 15 19 23 23 22 20 17 14 14 14 11 12 14 13 9 10 8 5 3 3 4 8 9 10 15 26
41 40 30 13 14 12 28 25 39 36 29 29 46 31 39 34 37 36 28 19 15 17 14 10 13 15 21 23 21 19 16 16 13 12 12 13 12 12 11 10 8 7 5 7 9 9 8 16 21
36 50 44 30 29 19 29 31 40 37 34 35 46 36 36 24 45 38 32 24 20 22 19 13 11 11 14 22 22 22 19 17 13 15 13 14 13 15 14 12 11 9 10 12 14 14 12 17 26
43 37 36 45 15 19 27 32 36 29 37 37 44 38 36 25 35 50 27 21 15 15 18 18 14 14 13 17 20 23 21 19 17 18 17 16 15 12 15 16 14 14 14 16 17 20 21 22 26
41 44 44 29 40 12 10 32 40 26 27 38 40 33 28 30 38 52 36 24 18 17 19 19 19 17 18 18 20 24 25 22 21 19 17 15 17 16 13 14 17 19 19 20 23 26 27 28 28
43 41 41 32 19 29 30 36 35 26 29 34 40 42 33 29 32 40 38 28 21 20 18 21 20 20 20 20 21 25 27 26 24 20 16 17 17 18 19 19 18 21 25 26 27 29 33 32 32

GFSSGP_700_spd_024.txt.gz
Wind_Speed
10 12 12 5 4 2 6 13 14 10 6 4 11 16 11 16 11 14 33 28 30 33 35 31 31 30 30 28 28 27 23 22 19 16 14 13 13 13 13 12 12 12 11 11 12 12 13 13 13
5 4 9 5 5 5 8 13 14 9 7 6 13 8 13 16 5 34 35 31 35 35 32 30 29 29 27 26 24 23 22 20 17 15 13 13 13 13 13 13 12 12 11 11 12 13 13 13 12
6 4 4 5 7 7 14 15 13 14 11 9 6 13 13 20 30 30 30 34 35 30 30 30 28 26 25 23 22 22 20 17 15 14 13 13 12 12 12 11 11 12 12 12 13 14 15 16 14
5 15 6 2 3 9 16 17 10 13 9 2 8 18 28 27 21 26 28 30 29 28 28 27 26 24 24 23 21 20 18 16 15 14 13 12 12 10 9 10 11 12 12 11 12 13 14 14 11
11 10 4 8 2 6 13 16 5 9 5 12 18 28 27 26 25 26 27 28 27 27 26 25 23 23 22 21 21 19 17 16 14 13 12 11 10 8 10 10 11 11 12 12 12 11 12 13 11
15 15 7 7 2 13 18 7 3 4 9 17 14 25 28 24 24 25 25 25 25 23 24 23 22 21 21 20 19 18 17 15 13 12 10 10 9 10 10 9 9 10 12 11 11 11 11 10 10
6 15 9 9 2 19 18 7 8 7 10 11 16 25 28 24 23 24 24 23 24 22 21 22 21 21 20 19 18 17 16 14 12 10 8 8 8 8 8 8 9 9 11 12 10 10 7 7 8
5 6 11 9 9 19 15 12 7 2 12 15 12 11 22 26 23 22 24 24 23 22 21 20 20 19 19 19 18 16 15 13 10 8 7 7 6 6 6 7 8 8 9 9 8 9 8 8 6
3 8 11 5 13 13 17 13 10 7 4 12 8 3 17 23 22 21 23 24 24 23 21 20 19 18 18 17 17 15 13 11 9 7 6 6 8 7 6 6 6 6 7 6 7 7 5 8 6
7 10 14 13 2 23 16 18 6 13 11 8 6 11 19 19 18 17 19 21 23 23 22 20 19 18 17 17 15 13 12 10 8 6 4 6 1 3 4 3 3 5 5 4 4 5 3 4 7
14 20 10 7 6 12 16 12 6 10 7 6 1 3 14 18 18 15 14 16 17 21 22 21 19 17 16 15 14 13 12 10 7 5 6 4 4 7 3 4 1 3 3 2 1 3 4 3 4
26 22 19 6 12 18 19 14 11 10 7 7 5 4 3 18 20 17 15 17 19 20 20 20 20 18 16 16 15 14 11 9 8 5 4 5 4 2 2 1 2 2 2 3 1 0 3 6 9
29 25 25 21 14 22 23 17 10 14 9 13 9 3 4 12 16 14 11 13 16 15 19 20 19 18 17 16 14 13 11 9 8 8 8 7 4 1 2 2 4 2 2 4 3 4 6 8 9
20 17 21 21 24 18 27 19 18 19 15 16 12 2 7 12 14 16 15 14 18 17 20 18 18 18 15 14 14 11 10 10 7 11 8 7 3 2 2 3 5 6 7 6 7 7 9 10 9
22 23 20 18 18 34 34 24 26 17 22 17 14 6 7 14 15 14 13 15 14 14 15 20 17 16 15 13 13 9 9 9 7 9 6 4 2 3 2 6 7 8 10 5 8 7 10 10 13
20 19 20 10 6 35 35 30 20 23 22 22 16 8 7 13 15 15 12 11 12 13 13 17 17 15 14 11 10 8 7 7 5 4 5 3 5 5 6 7 8 10 11 7 7 8 9 9 14
24 23 17 15 16 24 37 23 27 25 24 25 20 13 10 15 19 18 16 14 13 12 13 15 15 13 12 10 10 10 8 7 7 6 6 5 6 4 8 7 8 9 10 9 9 8 9 10 11
29 23 21 21 10 18 38 26 31 26 31 26 19 19 9 16 18 21 19 20 18 15 14 13 15 15 12 11 12 13 12 10 9 9 8 8 8 9 9 9 8 10 8 9 8 9 10 11 11
31 25 26 25 17 14 33 27 29 29 32 28 24 24 18 10 16 21 23 27 25 21 18 18 17 14 14 13 11 11 10 10 10 7 11 10 11 11 10 10 8 6 6 6 9 11 13 11 11
32 30 33 30 21 19 32 28 30 34 33 31 26 26 23 16 19 20 22 24 23 20 19 19 18 17 14 13 13 13 12 12 13 13 13 14 12 9 10 6 4 4 6 6 8 12 13 14 13
34 37 37 31 17 17 31 32 37 39 38 32 30 29 26 25 17 17 26 27 24 23 21 18 18 18 16 15 16 16 16 14 13 12 11 10 9 7 6 1 4 6 5 5 8 11 13 15 16
35 42 41 34 26 22 19 11 33 39 42 38 34 37 33 32 26 21 15 26 30 27 23 23 21 20 18 18 18 16 15 13 11 11 7 7 8 5 4 7 6 5 5 5 6 9 13 17 21
40 32 35 33 33 32 32 20 26 28 49 46 44 45 36 35 33 23 15 14 15 21 25 24 23 22 22 21 19 16 16 14 13 13 10 9 7 10 10 9 6 6 5 4 5 8 11 18 23
30 32 32 32 34 24 39 32 32 39 35 40 45 46 37 35 35 30 17 15 16 16 18 18 18 25 25 24 21 17 15 15 13 12 10 9 12 14 13 10 8 6 4 2 3 5 10 13 19
30 34 20 14 16 12 34 27 33 24 33 38 37 38 38 33 31 34 26 21 21 21 18 19 20 20 26 27 24 19 15 16 13 13 11 12 14 13 13 12 10 6 2 1 3 7 3 8 15
38 40 25 9 4 6 31 17 42 37 33 31 36 40 41 35 26 29 29 20 21 20 17 14 16 19 20 27 26 22 18 18 15 14 12 14 15 16 15 13 9 6 5 2 4 4 5 11 13
41 42 34 38 31 13 18 25 40 34 35 36 35 44 43 38 30 20 24 25 25 25 21 16 14 15 17 21 27 26 21 21 18 16 16 17 19 19 17 15 13 7 5 6 8 8 9 13 17
36 35 29 29 14 16 13 21 36 32 35 29 34 39 44 44 36 27 27 30 31 25 24 19 16 16 14 15 23 25 22 22 21 19 18 19 20 19 17 15 12 9 9 9 11 15 15 17 21
46 46 35 37 35 11 4 32 42 39 33 25 25 39 43 49 43 38 32 32 30 25 25 25 21 20 22 20 19 21 23 26 25 20 19 21 22 21 16 14 15 16 16 15 15 17 21 22 24
47 43 41 31 22 33 41 50 23 23 29 28 35 32 43 49 46 39 28 32 36 25 25 24 24 23 24 22 20 19 24 29 27 23 20 24 22 20 18 17 17 20 20 20 20 20 24 28 30

GFSSGP_700_spd_027.txt.gz
Wind_Speed
6 13 12 7 1 2 6 3 7 5 4 1 5 7 6 11 13 4 25 26 27 32 33 34 32 31 29 28 28 26 23 20 17 14 13 14 14 13 11 11 11 12 13 14 13 11 12 14 13
15 16 5 1 2 2 7 8 6 5 3 4 8 4 4 9 5 17 31 31 32 31 33 30 30 29 27 26 26 23 21 18 15 13 13 14 13 12 11 11 12 12 13 13 13 12 13 14 13
9 15 5 4 3 5 3 7 4 5 8 7 7 6 7 7 23 28 29 32 33 30 30 29 28 27 26 26 24 22 19 16 14 13 13 13 12 11 11 12 12 12 12 12 12 12 13 13 11
15 16 2 3 3 4 11 9 5 2 5 2 7 9 22 24 24 27 32 33 30 29 29 29 27 26 25 23 22 20 17 16 14 13 12 11 10 10 11 12 12 11 10 10 10 10 11 13 11
9 10 4 2 1 6 11 6 5 6 2 9 11 23 24 23 22 26 29 28 28 28 28 27 25 24 23 22 21 18 16 16 14 12 10 9 8 10 11 11 11 11 9 10 9 9 11 12 12
7 8 5 1 2 8 10 7 3 9 7 15 19 22 22 21 22 26 26 26 26 25 26 24 24 23 22 21 19 17 16 15 12 11 9 9 9 10 10 9 9 9 9 9 8 9 10 11 11
7 7 4 4 7 10 15 8 8 9 9 10 10 19 23 23 23 23 24 25 25 24 23 22 22 22 21 20 18 17 15 13 11 9 8 8 8 9 8 8 8 8 9 8 8 8 8 8 7
4 5 1 6 17 16 14 9 10 4 10 11 12 9 14 24 23 22 24 24 24 23 22 20 20 20 20 19 18 16 14 12 10 8 7 8 8 8 7 6 6 6 6 6 6 6 7 7 6
9 7 4 9 13 9 15 15 14 4 3 13 10 7 11 19 22 22 24 26 25 24 23 21 19 19 18 18 17 15 13 10 8 8 7 9 7 6 6 4 4 3 4 4 5 4 6 7 7
12 10 5 12 2 9 8 11 4 9 8 4 9 10 18 17 19 19 19 22 24 24 23 21 20 18 18 17 16 14 12 10 8 7 7 6 2 4 3 3 3 3 3 4 3 4 7 6 7
13 12 3 7 7 14 7 15 9 8 7 4 7 2 11 17 19 16 17 19 19 21 22 21 20 18 17 16 15 14 12 10 8 7 7 5 4 5 2 2 1 2 3 3 2 3 6 6 9
19 14 11 2 11 12 19 14 12 8 3 5 3 5 3 14 19 19 17 17 20 21 20 20 20 18 17 17 15 14 11 10 9 8 6 5 4 3 2 1 1 3 5 6 4 4 5 6 10
21 11 10 8 4 10 18 30 15 7 8 6 2 4 2 7 17 18 14 17 17 19 19 20 19 19 18 16 15 14 13 11 9 8 6 5 4 3 2 2 2 2 4 5 4 3 5 7 9
25 20 18 17 16 16 21 29 24 15 14 11 5 4 4 8 12 19 21 19 17 17 18 19 19 18 18 16 13 13 13 11 9 10 7 7 7 4 2 2 5 5 7 6 5 6 7 7 8
27 26 26 25 21 21 26 33 36 17 16 16 10 7 6 10 15 15 19 19 18 17 20 19 17 19 16 15 15 14 12 10 9 9 8 5 5 3 1 4 4 6 9 4 7 9 9 9 10
24 27 27 19 11 21 32 41 31 24 22 22 17 12 8 13 13 15 19 20 19 17 17 17 18 18 15 14 14 12 11 10 8 8 7 5 6 4 3 6 7 8 9 9 9 8 9 10 10
30 30 28 22 11 12 35 38 36 27 26 22 22 15 8 11 17 18 19 22 19 17 16 18 19 18 16 14 13 11 11 7 6 8 7 5 8 3 5 6 6 7 7 8 9 9 9 8 9
31 27 31 22 8 15 35 39 38 31 27 24 21 20 14 12 14 15 18 21 20 17 15 14 16 18 17 15 15 15 12 10 8 6 6 8 9 7 9 8 7 7 6 5 5 7 9 10 8
33 20 32 17 14 5 16 36 38 35 27 24 25 26 19 5 11 16 16 19 21 19 18 18 18 18 18 16 15 13 10 9 7 5 7 9 11 10 9 9 8 5 1 6 9 11 13 15 13
34 30 33 32 22 17 14 20 44 36 28 17 16 24 20 11 9 18 21 20 21 21 21 20 20 18 18 17 14 12 11 11 11 11 11 12 14 14 11 8 6 3 6 7 9 12 15 18 19
38 36 38 35 18 15 16 19 35 45 34 24 28 26 23 17 12 9 18 23 22 23 22 20 19 18 18 17 16 15 15 14 13 10 10 11 15 12 8 6 7 8 6 7 9 13 17 19 20
37 41 37 34 23 16 12 8 31 42 41 35 32 30 31 28 23 22 17 13 24 24 23 23 22 21 20 18 18 17 16 13 11 11 11 12 9 8 9 10 12 9 7 7 10 13 16 21 20
44 39 36 32 25 26 32 15 19 38 45 41 33 32 28 29 30 26 24 16 6 20 25 26 24 22 22 21 20 19 18 16 16 16 14 12 8 11 13 13 12 11 9 7 8 10 11 16 18
38 29 30 31 26 19 39 23 32 33 44 35 33 34 31 30 29 30 26 26 17 13 14 26 28 24 23 22 22 21 19 18 19 17 14 11 10 13 14 15 14 12 8 6 7 8 4 6 12
28 31 12 8 10 11 31 28 35 27 34 38 39 35 34 33 31 29 29 31 23 21 18 19 23 26 25 25 25 23 21 20 20 18 15 13 12 15 15 16 15 12 9 6 6 5 3 5 12
41 37 15 7 4 11 24 21 34 39 33 24 30 36 32 37 34 27 28 24 24 19 17 18 21 23 22 21 23 25 23 21 21 20 16 14 15 17 19 18 16 13 10 8 5 2 2 6 10
35 40 41 27 15 6 14 36 48 46 35 27 34 33 37 36 34 28 25 30 25 24 22 18 19 21 21 20 18 25 25 24 23 20 18 16 19 22 22 20 17 14 12 9 6 4 5 9 14
40 35 27 29 11 12 8 27 21 32 41 39 32 27 38 39 36 34 28 25 27 24 25 20 19 21 18 18 20 22 25 24 24 23 19 18 21 25 24 22 19 15 12 10 8 7 9 11 14
46 42 37 35 30 9 4 18 36 35 27 28 34 31 24 32 33 36 38 27 24 26 28 24 24 21 23 23 21 21 24 26 26 27 22 21 24 27 26 23 20 15 13 13 12 12 14 15 17
44 48 43 22 28 40 32 24 7 10 37 41 26 25 28 30 28 38 40 38 27 28 29 29 28 26 26 25 25 25 23 25 29 29 24 24 26 28 28 26 21 18 15 14 14 16 16 18 20

GFSSGP_700_spd_033.txt.gz
Wind_Speed
11 9 9 5 5 3 2 2 2 3 2 2 6 6 9 7 5 2 18 27 30 31 31 32 31 31 31 30 27 23 21 19 17 16 15 13 12 12 12 11 11 11 12 12 12 11 11 10 9
9 9 6 5 4 3 3 1 1 1 2 1 6 3 6 12 7 4 22 28 32 31 31 31 30 30 29 28 24 22 19 17 16 16 15 12 10 11 10 11 11 12 13 13 14 14 12 9 9
2 8 7 3 3 4 3 3 2 4 3 3 5 3 6 9 9 21 22 32 33 33 31 30 30 30 29 26 23 20 18 15 15 15 13 11 10 9 9 10 10 11 13 13 13 13 11 10 9
6 7 6 6 5 6 5 6 4 1 2 3 3 5 7 13 18 23 30 33 32 31 30 30 30 30 26 24 21 19 16 15 14 13 11 10 9 10 10 9 9 10 13 13 12 12 12 11 10
2 6 5 4 3 2 6 6 3 4 2 3 4 13 22 26 28 29 31 31 33 31 29 29 30 28 25 22 20 17 16 15 13 11 10 10 10 10 9 8 8 10 11 11 10 10 10 10 8
2 4 3 3 2 2 4 4 5 4 5 9 15 19 25 28 30 30 31 31 30 29 28 29 29 25 23 21 18 17 15 14 12 10 11 11 10 8 8 9 9 10 10 9 8 8 8 8 7
6 4 5 2 0 1 2 3 4 4 6 11 15 16 24 28 30 28 29 28 28 27 26 27 26 25 22 20 18 17 15 13 11 10 11 10 9 8 8 8 9 9 9 8 8 8 8 7 6
5 2 2 4 2 1 1 5 4 4 8 12 14 12 17 25 28 26 27 27 27 27 26 25 24 23 22 20 18 17 15 12 10 9 8 8 8 7 7 7 7 7 8 8 7 7 9 9 8
5 3 1 2 3 6 6 3 4 6 7 14 14 10 13 21 25 25 27 28 27 27 25 24 23 22 21 20 18 16 14 11 9 8 9 8 7 6 6 6 7 7 7 7 6 7 9 10 10
7 4 5 9 6 8 5 7 3 3 5 12 12 8 16 16 19 21 24 24 26 26 25 24 23 22 22 20 18 16 13 11 9 7 7 5 6 5 5 6 6 6 6 5 5 6 7 7 10
7 10 11 5 9 8 2 7 4 3 7 6 3 1 10 14 15 19 21 20 22 24 24 24 24 23 22 19 17 14 12 10 7 5 5 3 5 4 5 3 4 5 5 6 5 6 7 9 11
12 14 9 2 5 5 1 3 7 4 6 5 4 3 4 12 12 15 18 20 23 24 24 24 23 22 21 20 17 14 11 9 7 5 3 2 4 2 2 3 4 5 6 7 5 4 6 8 10
15 15 13 8 6 4 4 7 8 8 8 8 6 6 6 12 13 16 19 21 22 24 24 24 23 22 20 18 16 14 11 10 7 5 4 4 2 1 1 2 4 4 4 6 6 9 9 8 9
18 16 14 10 6 9 9 12 13 10 16 11 9 6 8 12 13 18 21 21 22 23 24 23 22 21 19 17 15 14 12 10 8 7 6 5 3 1 1 1 3 5 7 8 6 6 9 10 10
20 20 19 15 13 14 12 20 11 13 16 19 14 9 6 13 19 17 16 19 20 21 24 23 22 20 19 17 16 14 13 10 8 8 8 7 6 3 1 1 2 4 7 9 11 8 10 12 12
13 20 20 20 18 14 14 18 9 14 17 18 21 15 10 12 14 18 19 21 22 23 23 23 22 20 18 17 16 15 13 10 9 10 9 10 8 5 4 3 2 3 6 6 7 6 8 8 9
23 17 19 21 18 14 17 20 21 15 20 20 19 20 15 11 16 19 21 22 24 24 24 24 23 21 18 17 16 16 14 12 10 11 11 12 10 7 5 4 3 4 5 3 5 7 7 7 6
19 19 23 22 14 14 17 20 17 12 12 23 22 21 20 10 11 17 21 24 25 26 26 25 24 22 20 19 18 18 16 14 12 9 12 11 9 9 7 4 4 3 3 5 6 8 9 10 9
21 20 18 18 13 14 17 18 12 9 11 17 26 24 21 18 10 18 20 25 27 28 27 26 25 23 22 20 18 16 12 12 11 10 10 11 11 9 9 6 4 2 4 6 9 11 14 13 12
33 27 25 23 23 19 18 21 15 13 10 16 20 24 19 22 18 21 22 23 28 28 26 26 24 24 21 20 17 15 12 12 12 12 12 12 11 11 12 9 6 6 9 10 10 14 15 16 17
37 35 29 25 10 15 21 23 25 21 17 18 19 26 24 21 18 20 23 22 25 28 27 25 24 23 22 20 20 18 17 16 15 14 14 12 11 12 13 11 9 13 13 13 13 15 16 16 17
36 37 28 27 16 21 14 20 20 23 23 19 21 20 24 24 26 16 23 24 24 25 25 24 25 24 22 22 21 18 14 12 9 9 11 13 14 14 13 10 13 16 17 16 17 16 13 14 15
32 24 31 26 21 19 22 17 24 21 25 24 19 19 22 25 25 27 19 15 12 25 27 27 26 25 25 23 21 18 17 14 15 15 15 16 15 13 12 14 18 20 19 18 17 14 10 10 12
26 12 18 18 19 22 32 23 33 30 33 28 19 19 20 22 27 28 26 24 22 20 29 29 30 28 28 26 24 22 19 17 17 17 16 14 13 12 11 18 22 23 22 19 17 13 8 5 9
31 23 12 11 14 16 21 23 42 15 28 31 27 19 22 21 23 29 29 28 26 24 20 32 32 32 31 30 28 25 21 20 19 17 16 15 13 12 12 19 22 23 22 21 18 15 11 5 4
36 35 15 14 14 13 22 21 26 32 34 20 25 24 25 24 21 22 24 24 24 25 26 24 24 34 34 33 30 27 25 24 21 21 19 16 15 14 15 21 24 24 23 21 18 16 13 9 4
28 41 36 15 6 6 23 25 29 20 25 26 32 23 28 24 20 15 17 23 25 27 26 26 27 22 27 36 31 31 28 27 25 22 21 19 17 18 19 24 26 27 25 22 20 17 14 11 8
30 33 22 28 15 13 11 15 26 26 39 31 31 32 27 27 21 17 15 17 19 23 25 26 26 27 25 21 22 30 33 30 27 24 23 21 18 20 22 26 29 30 28 24 22 19 16 12 10
33 35 27 25 18 9 7 15 19 25 27 28 36 39 36 28 21 15 15 18 22 23 24 27 28 26 26 28 26 21 21 23 24 25 24 25 22 23 25 28 32 33 30 27 23 21 18 14 12
37 33 37 25 19 27 13 12 4 10 18 26 28 26 35 35 29 22 20 19 22 26 28 28 29 30 28 25 25 26 25 24 27 27 25 26 26 25 27 29 34 36 33 30 26 23 20 16 14

GFSSGP_700_spd_036.txt.gz
Wind_Speed
6 8 6 3 2 1 2 3 6 5 5 4 6 4 8 6 4 4 24 30 31 36 37 36 35 35 31 28 25 21 19 18 18 17 14 12 11 11 11 12 11 11 10 11 11 11 10 9 10
7 6 5 5 3 2 7 5 5 3 2 3 7 4 6 9 5 13 27 28 32 32 35 35 34 32 29 27 24 20 18 18 17 15 12 12 10 10 10 12 12 12 12 12 12 11 9 8 9
6 5 5 1 3 6 8 5 1 2 3 6 4 5 7 9 6 22 24 30 31 32 33 33 32 30 27 25 22 18 18 18 16 13 12 11 10 10 10 11 11 11 12 11 10 10 9 9 8
5 7 8 8 7 6 6 5 7 7 4 4 5 3 8 10 10 24 30 32 31 31 31 30 30 28 25 23 20 17 18 16 14 13 11 10 10 11 11 10 10 11 11 10 10 11 10 9 8
4 6 2 2 8 7 5 6 8 4 2 2 4 5 14 15 22 27 34 35 32 31 30 29 29 26 23 21 18 17 16 14 12 11 10 10 10 11 10 10 10 10 10 10 10 10 10 8 8
5 5 3 7 7 6 6 7 6 3 3 5 8 14 22 24 23 31 34 35 30 30 30 29 28 25 22 20 18 16 15 13 11 11 11 10 9 10 11 11 10 10 9 9 9 9 8 8 8
2 3 2 2 6 6 4 5 5 4 7 10 14 21 24 28 28 31 33 33 30 29 29 29 27 25 22 20 18 16 14 12 11 11 10 9 9 10 10 10 9 9 8 8 8 9 8 7 6
3 2 1 4 6 6 3 5 5 6 7 14 12 18 23 31 29 30 32 32 30 28 29 29 27 25 22 20 18 16 14 12 11 9 9 8 8 8 8 8 7 7 9 8 7 8 9 10 9
4 2 3 5 5 4 4 4 4 5 8 13 12 15 19 27 30 30 31 32 31 29 28 28 25 24 22 20 18 16 13 11 10 9 9 9 8 6 6 7 8 7 7 7 5 7 7 10 9
6 5 5 7 3 1 6 5 2 6 7 12 11 11 18 21 24 28 29 29 29 28 29 27 26 24 22 20 18 15 13 11 9 10 8 7 7 5 5 7 6 6 6 6 5 5 8 10 6
8 7 8 3 4 5 7 7 3 6 9 10 9 4 14 19 19 25 26 25 25 26 27 27 26 24 22 20 18 15 13 11 8 7 6 5 6 6 5 4 6 6 7 8 7 7 6 9 10
10 14 9 5 2 4 6 6 5 3 5 8 4 4 8 18 15 18 22 23 26 26 26 26 26 24 22 20 18 15 13 10 7 6 4 5 4 2 3 3 4 7 6 5 6 5 7 9 11
16 13 11 8 5 5 5 5 5 7 5 5 3 5 11 17 15 19 21 23 24 25 25 25 25 24 22 20 18 16 13 10 8 6 5 4 3 1 1 3 4 5 5 6 7 6 8 9 9
13 17 14 12 9 8 8 8 8 8 13 9 6 5 10 16 16 19 23 24 25 25 25 25 24 24 22 19 17 14 12 10 8 6 5 4 3 2 2 1 3 5 6 6 6 8 10 9 8
19 14 14 17 13 11 10 13 15 11 17 14 11 7 10 17 21 20 20 22 24 25 25 25 25 24 22 19 17 15 12 10 9 8 7 6 5 2 1 2 5 6 6 4 7 7 7 10 9
21 18 18 18 17 16 13 9 7 13 14 18 16 13 10 15 19 20 21 22 24 26 26 25 25 23 22 19 17 15 13 11 10 9 8 9 6 5 3 1 3 6 6 5 6 8 7 7 6
20 21 23 15 15 14 16 12 7 12 15 19 19 18 15 11 17 22 23 23 25 27 27 27 26 23 21 19 17 16 14 12 10 10 10 10 9 8 5 3 1 3 4 3 3 5 5 5 4
26 26 21 21 15 18 16 16 10 11 14 21 18 18 19 17 13 20 25 25 27 28 28 27 26 24 22 21 19 17 15 13 11 10 10 11 12 10 7 3 2 2 1 1 4 5 7 6 6
20 27 25 23 20 17 20 17 11 11 17 19 20 21 19 20 11 18 23 27 29 30 30 29 28 26 24 22 19 17 15 14 11 10 10 12 11 9 10 4 1 2 4 5 6 7 7 8 6
29 23 27 24 17 14 17 16 12 13 16 18 10 11 21 20 23 19 23 27 29 29 30 30 28 28 25 23 20 18 15 14 13 13 12 11 11 11 11 7 5 5 7 7 9 10 11 10 8
34 33 28 23 15 16 18 22 19 16 15 16 19 18 17 21 24 22 23 24 27 29 29 29 28 28 26 24 23 20 19 18 16 15 13 12 11 11 11 10 9 9 11 10 13 12 11 11 10
36 32 27 24 23 24 19 22 24 23 20 21 18 19 21 20 25 26 22 25 24 26 28 28 28 27 26 25 24 21 18 15 13 13 13 14 14 14 13 13 12 15 16 15 15 12 10 9 11
34 26 25 28 25 25 27 19 27 20 22 24 23 21 20 24 24 24 21 18 19 23 28 28 28 28 27 26 24 22 20 17 16 16 15 16 15 14 14 13 15 20 21 18 17 12 8 8 10
26 22 25 22 26 27 35 32 32 30 27 24 23 22 18 24 25 26 22 19 23 25 25 28 29 28 28 27 26 24 21 18 17 15 15 14 13 13 12 13 19 24 24 21 18 13 8 6 7
31 25 16 18 23 21 31 35 36 17 29 25 24 23 18 20 21 23 28 28 23 25 28 30 30 29 28 27 27 26 22 21 19 18 18 18 16 14 12 13 20 26 26 24 21 16 12 6 3
38 36 22 18 15 19 27 26 40 33 27 14 23 24 23 22 22 21 22 26 27 22 23 21 29 28 30 29 27 25 24 23 22 22 21 19 17 16 16 16 22 27 28 26 24 20 17 13 7
35 44 37 12 12 13 26 34 25 17 30 32 32 20 26 26 21 20 21 21 24 28 27 25 22 22 30 31 30 30 27 28 26 24 23 21 19 18 19 19 23 29 30 28 25 23 20 17 14
28 34 34 32 17 17 18 26 23 25 32 25 28 28 24 30 25 21 18 21 20 22 25 27 28 25 22 25 27 30 30 30 29 27 26 24 20 18 20 21 25 31 32 30 27 25 22 19 15
39 31 40 31 27 14 12 21 25 29 22 27 28 27 27 27 26 26 19 18 20 20 23 26 28 28 29 28 24 21 22 33 32 31 29 27 24 21 23 24 26 32 34 31 30 27 24 21 18
38 35 41 28 32 36 21 14 7 11 21 23 24 24 26 25 24 23 22 19 13 15 20 24 28 30 30 28 29 27 25 21 25 31 30 30 29 25 24 25 26 33 36 34 33 30 27 23 21

GFSSGP_700_spd_039.txt.gz
Wind_Speed
3 4 5 3 1 3 1 4 6 7 6 9 11 8 8 10 5 5 23 35 36 32 39 35 32 30 27 24 21 19 19 18 16 14 12 11 9 11 11 12 11 10 10 9 9 8 7 9 11
5 6 4 2 2 3 6 6 6 9 9 12 10 10 8 8 5 18 30 36 35 37 36 33 32 29 26 23 20 18 18 18 15 13 11 10 10 11 12 12 12 11 10 10 9 8 7 7 9
8 6 4 2 3 6 10 7 8 9 9 8 6 10 8 9 9 26 27 36 35 36 34 35 31 28 25 22 19 18 17 16 14 12 10 10 10 11 11 11 11 9 10 10 11 10 9 9 8
7 6 2 3 1 10 12 10 11 8 7 4 10 5 8 11 12 27 29 31 35 36 35 33 30 27 24 20 18 18 17 15 13 12 11 11 11 11 11 10 9 9 10 11 12 11 11 9 7
7 1 8 6 9 9 10 9 6 8 5 6 6 4 14 16 23 23 31 31 34 35 32 30 28 25 22 19 18 18 16 13 12 12 12 12 11 10 9 9 8 9 9 8 9 9 9 9 8
5 5 13 3 14 8 8 7 6 6 7 7 6 10 16 18 22 28 31 31 29 30 29 29 27 24 21 19 18 17 15 12 12 13 12 12 10 10 10 10 8 7 7 8 10 9 8 8 8
11 14 18 9 13 11 8 6 7 7 9 10 13 17 23 24 22 31 31 31 29 28 27 27 25 22 20 19 17 16 14 12 12 12 12 11 11 10 10 9 8 8 7 9 9 10 10 10 9
5 7 5 5 8 15 8 6 9 8 11 16 7 13 27 29 29 33 32 30 28 23 27 27 24 21 20 18 17 15 13 12 12 11 10 10 10 9 8 7 7 7 7 8 10 12 11 11 12
11 10 9 4 7 13 9 7 8 9 14 11 6 9 22 31 33 34 34 30 28 25 28 26 24 22 20 19 16 14 12 11 11 11 10 7 8 10 9 7 8 8 8 9 11 12 10 12 13
15 12 7 6 7 4 12 7 8 10 12 10 14 12 21 29 31 32 31 32 29 27 24 23 25 22 20 18 16 14 12 11 11 10 9 5 7 5 7 6 7 7 5 8 6 6 11 10 8
13 11 3 5 5 7 12 8 10 9 11 11 15 8 17 22 27 28 28 28 28 23 23 24 23 23 21 18 16 14 12 11 11 10 9 6 5 5 5 6 10 8 12 12 4 12 11 10 2
16 13 3 8 6 5 8 15 9 6 10 12 13 6 12 22 24 23 27 27 23 24 25 24 23 25 23 18 18 13 10 9 7 7 6 7 5 6 4 2 9 7 6 7 5 6 6 3 8
19 10 13 8 6 7 5 5 10 8 9 12 11 9 16 22 23 22 21 22 23 25 25 24 25 24 22 20 19 14 12 9 7 6 6 6 6 4 4 2 1 4 5 5 7 6 8 4 10
15 17 14 13 11 9 9 9 9 10 13 16 3 10 17 24 23 24 25 24 25 25 25 24 25 24 22 20 18 15 13 10 7 5 4 5 7 3 3 2 4 5 5 3 7 8 10 3 2
21 18 22 20 16 12 12 12 13 11 17 18 12 5 17 22 24 25 26 26 27 26 26 25 24 23 22 20 17 15 11 9 8 6 5 5 5 5 2 2 4 5 5 4 4 7 9 4 5
24 23 23 22 19 16 13 17 17 17 19 21 21 14 10 21 26 25 25 26 26 25 26 24 24 23 22 20 18 16 13 10 9 7 7 7 5 4 2 1 3 8 6 4 4 10 3 2 9
26 27 28 24 25 19 19 12 11 17 20 21 22 22 18 13 24 24 24 26 26 26 26 25 26 24 22 20 18 16 14 12 11 10 9 7 7 6 3 4 5 4 6 6 5 3 4 3 2
30 32 28 27 23 24 22 20 10 14 19 22 23 23 24 19 15 25 26 26 27 28 27 26 26 25 24 22 19 17 14 13 12 10 10 8 9 8 6 5 6 0 0 7 2 2 4 2 5
26 28 26 29 19 22 25 22 19 14 17 22 24 25 25 24 20 24 25 27 28 30 30 29 28 26 24 23 20 18 15 14 13 11 10 9 8 9 7 6 6 3 3 5 1 1 4 5 4
33 30 31 28 23 20 20 22 19 17 18 22 24 25 25 24 25 25 23 28 29 29 30 31 29 28 26 24 21 19 17 15 14 13 12 10 11 9 8 8 2 6 5 5 3 3 5 6 5
38 36 29 29 25 23 22 22 22 18 18 22 24 22 24 27 28 24 20 24 30 31 30 31 30 28 27 26 24 21 19 18 16 15 13 11 10 9 8 9 9 8 8 7 6 5 5 1 5
40 37 31 26 29 30 28 26 29 24 22 23 26 25 26 27 27 26 20 19 26 28 28 30 30 29 28 27 25 22 18 17 15 15 14 13 12 11 10 10 11 12 14 11 12 7 5 6 8
38 30 34 31 29 29 30 29 27 31 32 28 25 25 26 27 28 30 18 18 19 26 28 29 31 31 29 26 25 22 21 18 17 17 17 16 14 14 13 11 12 14 17 16 14 9 5 6 7
29 27 28 31 33 30 37 34 32 28 27 29 27 27 25 27 29 30 24 17 19 26 27 31 30 29 28 27 27 25 23 21 20 18 16 15 15 13 13 11 12 15 21 20 16 12 7 4 5
30 30 21 22 25 21 38 40 38 29 29 27 28 28 27 25 30 30 31 24 19 25 24 27 29 30 30 27 27 25 25 24 21 19 18 18 17 14 11 12 13 19 23 24 19 15 10 5 2
38 39 27 23 19 19 36 43 45 34 19 28 28 30 27 24 28 30 33 29 21 19 21 26 26 28 28 26 25 24 25 25 23 22 21 19 17 15 16 13 15 20 26 27 24 19 14 10 6
37 45 41 32 31 23 35 39 33 29 36 28 23 31 27 26 28 31 33 28 24 25 20 19 18 25 27 26 26 25 24 26 25 22 21 20 19 18 17 17 17 20 25 28 27 24 19 16 13
40 34 38 35 23 19 24 23 34 32 27 37 35 28 31 29 28 30 31 32 26 25 25 20 18 16 15 19 22 25 26 26 25 25 25 24 21 20 21 19 20 21 25 29 28 25 23 21 17
45 37 42 34 32 15 12 17 24 28 26 30 35 36 31 29 28 30 30 31 27 25 28 27 25 23 24 22 20 23 26 28 30 29 27 27 25 24 24 22 22 22 25 29 29 28 27 24 22
38 41 40 33 33 33 22 5 1 24 22 21 29 27 31 28 29 28 28 27 29 28 29 29 29 29 26 26 23 22 21 22 24 31 31 30 28 27 24 27 23 25 24 29 32 31 30 27 25

GFSSGP_700_spd_042.txt.gz
Wind_Speed
3 4 4 1 3 4 4 7 8 7 5 6 13 8 12 11 13 7 24 31 32 33 35 33 30 26 24 21 19 19 19 17 15 13 13 13 11 12 12 12 11 11 10 9 7 7 8 11 13
2 4 3 2 5 2 6 10 13 12 16 14 15 12 9 10 10 19 37 36 33 36 34 31 28 25 22 19 19 18 18 16 14 13 12 11 12 12 13 13 13 12 11 10 9 8 8 7 8
3 5 4 6 5 6 9 14 17 17 13 6 11 9 8 7 22 30 33 34 39 36 31 30 26 24 21 18 17 18 17 15 13 12 11 11 13 13 12 12 12 12 11 11 10 10 9 9 10
4 2 5 5 5 12 14 14 16 9 12 1 3 6 13 16 25 28 32 31 38 36 32 30 26 23 19 17 17 17 16 14 13 12 11 12 12 12 11 12 12 11 11 12 11 10 10 9 8
7 8 5 14 5 10 13 11 9 12 11 6 7 11 18 25 23 33 29 31 35 33 32 29 25 22 18 17 18 17 16 14 13 13 14 13 11 11 11 11 10 10 10 10 10 10 10 9 7
2 11 9 1 3 11 12 10 11 14 9 10 9 17 22 29 29 35 28 34 33 34 31 28 25 21 18 17 18 16 15 13 14 14 13 13 12 11 11 10 9 9 10 11 11 11 10 10 8
11 12 7 5 15 13 10 9 10 11 15 12 15 18 25 27 25 31 30 31 31 32 29 27 23 21 18 17 17 15 14 14 14 14 12 12 12 11 10 10 11 11 10 10 11 11 14 14 12
13 21 17 8 8 12 11 12 10 17 17 13 10 16 30 28 29 31 32 31 30 27 27 25 22 19 18 17 16 14 15 14 13 13 12 10 10 10 9 9 10 10 10 8 11 15 15 21 16
13 26 18 7 7 8 11 12 12 16 16 8 6 8 24 27 32 31 32 30 25 20 26 23 21 19 18 17 15 15 14 13 12 11 12 12 9 10 11 10 9 9 8 8 13 14 12 13 17
11 11 13 5 4 12 6 10 13 14 14 10 9 15 24 29 33 31 31 25 28 25 26 23 21 19 18 16 15 14 13 12 12 9 15 12 12 12 12 9 9 12 9 10 10 12 13 11 11
15 13 13 6 2 9 13 9 14 14 13 13 9 14 23 27 30 28 30 32 31 24 27 24 22 19 18 17 14 13 12 10 12 7 5 9 13 14 7 7 5 10 9 11 8 11 8 10 13
16 16 11 4 6 9 10 6 17 12 19 13 7 11 16 21 26 29 28 29 22 21 16 14 22 21 19 18 15 13 12 7 7 4 4 8 7 5 9 8 2 7 8 8 5 8 7 6 7
19 20 15 4 7 5 8 15 5 17 19 13 8 14 17 18 24 27 26 26 20 24 22 20 20 22 20 18 16 11 7 6 2 7 5 5 7 4 4 8 1 6 6 7 8 6 8 1 8
18 19 19 19 8 7 5 4 2 21 19 19 12 16 21 15 11 12 22 25 25 22 24 24 23 24 21 17 19 17 11 6 8 3 6 2 3 4 5 3 3 8 3 1 4 5 7 2 3
21 19 21 15 15 12 9 15 14 15 17 23 20 18 27 26 19 15 13 17 25 27 28 29 22 23 20 17 15 11 15 11 8 5 5 3 2 1 2 3 4 3 5 2 6 6 5 9 10
25 23 23 23 19 16 14 17 16 9 27 23 23 23 25 28 27 25 21 18 26 28 28 28 22 23 21 19 16 14 11 10 8 7 5 5 2 2 0 8 4 2 8 6 7 5 12 9 16
30 28 28 23 23 20 20 15 18 21 23 25 23 24 25 25 27 28 28 27 29 30 26 25 22 20 21 20 18 16 13 10 8 7 6 6 5 3 2 2 6 5 6 5 7 4 4 8 7
30 29 27 29 27 26 22 19 14 22 27 29 27 26 26 26 26 31 30 30 31 30 25 23 22 20 21 21 19 17 15 11 9 8 9 4 5 5 4 3 2 3 2 5 8 7 6 5 10
27 27 29 28 26 28 30 23 23 17 27 26 26 29 27 27 26 28 28 31 31 30 25 24 24 23 22 21 20 18 15 13 11 9 10 6 7 6 5 5 2 4 4 4 3 6 6 9 5
34 30 30 27 29 27 29 27 26 24 26 26 24 31 25 27 28 30 24 29 29 27 25 26 26 25 22 21 19 18 16 14 12 11 11 9 7 5 5 6 3 5 5 3 3 4 5 9 6
40 36 31 29 21 23 25 24 29 23 22 24 27 22 25 29 32 30 23 25 27 30 24 26 27 26 24 23 21 20 19 17 14 12 12 10 8 7 7 7 8 6 4 2 2 1 5 7 3
41 37 32 30 30 30 29 24 30 25 24 24 27 26 29 30 30 32 28 25 25 24 24 25 28 28 26 25 23 21 18 16 13 12 12 11 10 8 8 8 10 7 8 5 5 4 3 6 5
39 33 34 32 26 29 27 28 28 30 30 29 27 30 28 31 32 34 31 19 16 20 20 25 28 30 28 27 24 22 20 17 16 14 13 12 11 12 10 9 10 10 10 8 8 5 1 5 7
32 30 31 33 31 26 35 34 36 35 37 31 28 30 28 31 31 32 32 25 22 23 23 25 29 31 30 29 26 23 22 21 20 17 15 13 13 11 11 8 10 11 11 10 12 9 3 2 5
33 34 25 23 24 17 38 36 31 26 36 26 37 29 33 31 33 33 34 30 23 25 25 24 26 30 29 28 28 25 23 23 21 19 17 14 14 12 12 11 11 12 14 13 17 14 8 3 3
41 42 27 24 18 19 37 36 43 35 28 28 36 31 32 33 33 33 35 34 23 21 22 23 26 30 30 28 27 25 23 24 23 21 18 17 14 12 11 11 11 13 15 16 20 19 14 8 4
40 46 40 31 30 24 32 41 35 36 37 30 27 31 33 34 31 36 35 36 27 21 14 18 22 26 27 25 24 25 22 23 24 22 20 18 17 15 15 11 13 13 14 17 20 23 19 13 10
43 37 36 37 21 21 26 34 39 37 40 36 29 27 34 34 34 35 32 35 20 22 19 15 15 22 25 25 25 24 23 22 22 24 23 21 17 16 18 15 13 15 15 16 20 23 24 20 15
41 41 41 34 32 15 15 21 27 40 41 38 41 34 28 34 36 33 32 33 20 22 27 23 19 19 20 23 23 25 26 25 25 24 24 22 20 18 20 20 15 16 17 17 19 23 25 24 21
43 45 41 29 32 34 26 19 0 10 35 40 29 40 34 33 32 33 32 34 34 25 26 28 26 23 22 20 20 20 21 24 26 27 25 24 23 23 20 23 20 19 19 19 18 21 25 25 24

GFSSGP_700_spd_045.txt.gz
Wind_Speed
1 4 4 2 4 6 8 7 12 14 12 11 12 10 10 16 18 7 22 33 32 33 33 31 27 25 22 20 19 19 19 17 16 15 15 14 13 13 13 14 13 12 11 11 11 10 12 14 13
2 1 2 3 5 4 9 11 11 14 18 15 11 12 11 13 13 18 32 35 31 34 32 29 26 23 20 18 18 18 17 16 15 15 14 13 13 13 14 14 13 13 13 12 11 10 9 10 9
2 3 3 2 4 5 13 14 23 20 11 8 12 11 14 10 20 25 31 36 35 33 31 26 24 21 19 18 18 18 17 15 15 14 13 12 12 13 13 14 14 14 14 13 12 10 9 11 12
2 4 7 6 7 9 12 19 18 16 8 5 7 9 12 21 22 30 31 36 38 34 29 25 22 20 18 17 18 18 16 15 15 14 13 13 12 13 14 14 13 13 13 12 11 10 9 9 9
5 6 4 5 7 12 16 13 20 8 8 5 7 15 21 29 33 30 34 38 35 32 29 25 22 19 18 18 18 17 16 15 15 14 13 13 13 13 13 12 12 12 12 12 11 10 9 8 8
4 5 3 14 7 7 13 18 17 10 9 5 7 23 30 28 33 31 31 35 33 31 29 25 22 19 19 19 19 18 16 16 16 15 14 13 13 13 12 12 12 12 13 14 13 13 12 10 8
6 18 10 4 15 13 9 11 8 7 6 3 11 24 31 32 35 27 31 33 31 30 27 24 21 20 21 20 18 17 17 16 16 15 14 14 13 12 13 13 12 11 13 14 13 19 18 15 14
6 14 8 18 5 17 19 18 16 3 4 13 7 19 35 38 36 27 31 31 31 29 26 23 21 19 20 19 18 17 17 16 15 15 13 12 12 12 12 11 10 11 14 13 14 15 18 17 19
4 10 17 3 4 8 17 15 13 6 7 6 2 6 30 35 34 29 33 32 32 30 26 23 20 20 20 19 18 17 16 15 14 13 12 11 10 12 10 11 9 12 12 12 13 14 16 15 15
15 14 8 15 6 4 3 11 11 14 6 3 4 22 28 33 34 34 34 32 30 29 27 23 20 19 19 18 18 15 14 14 13 11 11 13 11 11 11 14 12 11 8 11 11 12 12 14 10
20 14 10 8 8 11 9 14 19 14 9 3 9 22 27 33 34 33 32 29 28 28 26 23 20 20 19 18 16 13 12 14 12 14 8 9 9 8 12 12 9 9 8 10 10 8 5 10 9
24 21 14 15 10 15 13 13 12 14 4 4 7 11 19 26 32 32 30 26 27 28 25 22 20 20 20 19 17 12 12 14 14 9 13 11 7 4 11 6 6 9 10 8 7 8 7 10 13
20 24 11 7 2 12 19 16 9 16 11 7 7 15 15 21 28 29 24 23 21 21 25 23 22 21 20 20 18 14 13 15 13 9 9 8 8 7 7 9 6 5 8 6 9 12 7 7 6
15 21 24 17 15 12 18 13 22 15 11 4 11 13 17 18 21 24 24 25 22 20 21 23 25 22 21 20 19 16 15 11 5 7 5 5 3 4 8 6 8 8 7 5 7 9 5 4 3
21 24 20 26 17 12 11 22 22 21 10 9 11 14 16 21 22 20 21 23 20 16 16 18 24 22 18 14 13 17 16 13 12 8 6 3 4 4 3 2 5 4 8 10 7 9 5 5 9
25 23 26 26 24 22 22 26 31 24 15 13 11 13 14 15 16 15 16 23 20 22 16 16 21 23 19 16 13 9 12 17 10 9 7 3 4 4 5 6 4 6 8 8 4 4 9 14 12
29 32 27 24 21 15 31 18 23 30 28 15 16 16 17 14 14 15 14 16 23 26 19 16 19 22 21 19 17 14 12 9 10 9 9 7 5 5 4 1 6 4 9 8 7 8 5 9 6
31 23 27 26 24 27 25 23 26 32 31 22 17 19 30 26 19 15 16 18 19 22 21 18 19 23 22 21 19 17 15 12 8 6 7 6 6 6 6 4 2 4 7 8 9 5 4 3 3
29 29 28 30 26 24 28 27 34 34 39 37 15 28 25 30 30 22 20 21 21 23 25 21 20 22 24 22 20 18 14 12 10 7 5 6 6 5 4 5 2 2 5 6 7 6 5 3 2
34 36 32 25 26 29 28 29 26 37 44 39 12 32 32 24 31 34 32 31 30 25 23 22 21 21 23 20 19 17 15 13 11 9 6 6 6 7 7 5 3 1 5 4 4 6 5 4 2
38 40 36 31 28 19 31 36 33 35 41 37 34 16 35 26 26 29 31 31 32 25 21 23 23 20 21 21 21 20 19 17 15 11 8 6 7 7 7 6 6 1 1 2 3 4 8 11 6
41 41 38 34 28 19 29 6 30 39 36 33 32 38 16 35 20 22 25 25 27 22 21 23 25 24 21 22 22 20 16 13 11 10 9 8 7 8 8 7 7 7 2 3 2 3 6 7 7
40 35 37 39 34 23 36 34 36 36 35 36 38 39 25 29 25 21 20 17 21 19 20 21 25 26 25 24 22 20 18 16 15 13 11 11 11 10 9 8 7 9 5 5 5 3 4 6 7
34 34 34 39 36 24 29 36 35 44 37 40 35 37 31 33 23 34 19 14 19 18 21 23 26 27 26 25 24 22 20 19 18 15 13 12 12 11 9 9 9 8 7 5 8 8 3 4 5
36 34 21 19 20 14 31 28 34 33 34 37 38 36 41 36 18 32 30 23 21 22 21 24 27 28 27 27 25 23 21 20 19 17 14 12 9 9 8 8 9 8 9 7 10 11 6 3 4
42 46 25 15 9 13 31 26 34 32 25 34 33 39 43 36 24 24 30 20 21 22 14 25 26 25 27 26 26 24 24 23 20 17 15 12 9 7 8 8 7 11 10 8 9 13 11 7 5
42 49 39 21 20 10 15 29 36 32 39 33 34 40 33 37 32 30 29 22 19 23 13 17 27 27 28 26 25 25 22 22 21 18 18 17 13 10 9 10 10 9 9 9 10 13 14 12 9
44 37 37 36 9 10 20 33 40 34 41 38 35 28 48 43 39 35 32 23 17 19 15 12 21 26 26 25 24 24 21 21 21 22 21 18 14 12 13 10 9 9 9 10 10 12 18 16 14
41 39 45 33 31 6 6 23 39 41 37 41 40 32 42 46 46 41 31 24 13 17 22 15 18 25 27 27 27 27 26 23 22 22 20 19 17 15 14 11 10 10 11 11 12 11 17 20 19
40 44 42 31 28 33 23 29 26 22 46 37 46 34 24 48 47 42 31 25 20 21 24 20 17 21 26 28 28 27 27 26 25 24 21 19 18 16 16 15 12 12 13 15 15 14 14 20 21

GFSSGP_700_spd_048.txt.gz
Wind_Speed
1 1 2 2 3 2 5 4 10 14 17 16 17 11 11 11 11 6 30 32 34 32 31 29 27 23 21 20 21 20 19 17 15 16 16 15 14 14 13 13 13 12 11 10 11 11 12 13 12
2 1 2 3 3 6 7 8 13 10 12 15 16 12 11 17 6 16 35 33 33 31 28 28 24 21 20 20 21 20 18 16 14 15 15 15 15 15 14 14 14 13 12 11 11 11 12 11 10
3 2 2 1 0 9 4 11 11 15 13 9 16 17 14 15 10 24 32 33 34 31 29 26 23 19 18 19 20 19 17 15 14 14 15 15 14 14 14 14 15 14 13 12 11 10 10 12 11
4 2 6 6 9 6 4 14 14 18 14 10 7 12 14 15 16 29 32 33 34 31 28 24 21 18 18 19 19 18 17 15 14 14 14 14 14 14 13 14 14 12 12 11 10 9 8 8 9
3 4 4 12 5 5 4 17 16 13 12 9 8 9 12 23 26 29 33 35 32 31 27 23 20 18 19 20 19 17 16 15 14 14 14 14 13 13 12 12 13 13 12 10 9 7 7 6 9
0 5 2 9 14 8 9 16 23 11 9 9 12 13 22 29 31 31 34 35 32 28 26 22 20 18 20 20 18 17 16 16 15 15 14 13 13 12 11 13 14 14 13 12 13 10 10 8 7
8 11 11 16 16 4 11 14 22 2 4 9 9 22 30 34 33 31 34 34 32 27 24 22 19 20 21 20 19 17 17 17 15 15 14 13 13 13 14 14 14 14 14 15 16 14 15 15 16
12 3 1 15 12 15 13 21 13 1 6 9 11 26 33 35 32 31 36 33 30 27 24 21 19 21 21 20 19 18 18 16 15 14 12 11 11 13 14 14 13 12 13 13 14 16 17 15 17
7 2 10 8 5 4 19 18 10 4 7 10 11 14 27 35 32 33 37 33 31 28 25 22 21 22 21 19 18 18 17 15 14 13 13 11 11 12 13 14 10 12 11 11 15 13 12 15 16
15 15 2 9 5 3 9 13 4 5 7 3 5 24 32 36 29 32 35 31 31 29 27 23 22 21 20 18 18 17 15 14 13 11 11 11 11 11 9 14 11 10 10 10 11 9 11 8 11
14 11 6 10 2 8 11 10 9 3 2 1 4 25 32 36 29 31 32 29 29 27 26 24 22 22 19 18 18 16 14 13 13 12 9 11 13 10 12 12 12 11 9 6 5 8 10 11 8
20 12 10 6 3 12 11 10 12 10 4 5 5 9 22 32 31 30 30 30 31 28 26 24 23 22 20 19 18 15 14 14 13 9 10 11 12 11 7 7 9 10 8 5 5 8 6 7 6
23 13 8 8 5 9 7 12 11 11 10 2 10 12 18 27 28 30 29 30 30 29 27 25 23 22 21 19 19 16 16 16 11 15 13 9 8 7 7 7 8 7 6 5 6 6 7 4 6
17 10 11 20 17 16 15 7 15 19 15 7 9 15 16 22 25 29 29 27 27 29 28 26 24 23 21 19 17 18 15 16 15 14 12 9 5 4 7 7 5 8 6 6 8 7 6 2 3
20 19 15 26 21 14 16 22 22 18 16 9 12 13 17 21 26 23 22 23 23 28 28 27 25 25 22 20 16 16 16 18 17 15 13 11 9 6 6 4 6 9 7 6 10 8 5 4 8
22 24 26 23 27 21 18 25 26 22 16 9 11 15 17 21 21 20 22 21 21 22 29 29 27 25 22 20 14 14 15 16 12 14 11 10 9 7 6 4 5 8 6 8 8 9 7 12 13
30 28 21 26 27 33 24 26 33 26 23 11 12 16 17 18 23 22 23 21 18 17 28 30 29 25 23 20 18 14 11 10 10 10 11 8 7 6 3 4 6 5 5 8 7 9 6 8 8
27 21 26 26 27 35 24 33 36 30 29 18 16 16 15 18 20 19 17 21 23 20 22 24 23 23 23 22 19 17 14 11 10 7 7 8 7 5 4 2 2 4 7 10 9 6 5 6 9
28 24 23 23 23 28 35 29 35 41 34 26 24 17 15 8 15 18 17 16 20 18 20 22 22 23 23 23 22 19 15 12 10 9 8 7 8 8 7 4 2 3 4 7 8 9 8 6 6
33 27 30 26 26 27 30 32 37 49 33 30 29 13 17 17 17 21 22 21 22 17 19 20 19 21 24 23 21 17 15 13 11 9 8 8 8 8 8 6 3 2 2 6 8 8 10 7 7
36 35 35 35 26 16 25 24 29 49 38 36 36 27 7 11 17 22 27 28 27 21 19 20 20 21 24 23 23 22 21 20 17 12 9 9 8 8 7 7 6 4 3 5 5 6 8 8 6
38 44 38 35 28 20 12 25 27 38 52 46 38 35 18 16 16 21 24 31 26 24 20 20 21 23 26 27 26 24 19 15 11 10 10 10 10 9 9 8 7 5 3 5 5 5 7 9 5
46 41 38 37 29 26 34 25 35 36 58 49 39 37 32 18 22 15 19 19 17 23 24 21 23 26 27 29 27 25 23 18 17 16 13 12 13 12 10 8 7 5 5 5 6 4 6 8 6
34 33 34 33 31 20 39 23 28 45 53 45 36 37 41 28 19 17 18 18 20 19 24 26 27 29 30 30 29 26 23 21 21 19 17 15 13 11 10 9 8 6 4 7 8 6 5 7 8
36 33 19 11 14 10 30 24 33 24 36 43 44 42 40 33 28 13 23 27 25 24 23 25 30 31 31 30 29 27 24 23 20 18 17 15 13 10 9 10 9 8 6 8 11 9 6 5 8
41 38 17 9 5 9 36 19 43 34 28 35 42 45 42 35 31 18 22 25 26 23 24 25 30 32 31 30 29 28 27 26 22 20 17 15 13 12 14 12 10 10 7 8 11 13 10 7 9
42 46 43 16 8 13 16 32 35 39 28 25 23 45 44 37 28 25 20 21 24 22 18 20 29 31 31 29 29 28 26 26 23 21 19 17 15 14 14 12 11 10 8 8 11 16 15 12 10
45 35 40 37 12 5 8 22 33 42 43 34 30 28 41 45 26 26 28 18 20 18 17 14 20 30 29 30 29 27 25 26 25 24 22 19 16 16 15 12 11 11 10 9 8 12 18 18 15
39 48 40 36 28 10 4 22 36 29 39 40 36 31 31 41 35 33 31 25 17 14 18 17 19 28 32 31 29 28 28 27 26 26 24 22 20 18 16 14 13 12 13 12 9 8 14 20 19
50 31 41 26 20 32 20 30 22 32 25 22 29 42 39 33 33 38 33 30 22 19 19 21 20 27 30 30 31 31 28 27 27 25 24 21 21 20 17 16 15 13 11 10 8 7 9 15 21

GFSSGP_700_spd_051.txt.gz
Wind_Speed
2 2 2 1 1 2 3 3 4 18 14 16 13 14 12 4 9 3 31 33 32 30 29 29 25 22 21 21 21 18 17 15 14 14 14 14 14 13 13 12 12 11 10 10 9 8 10 13 14
1 0 1 3 3 4 1 3 12 13 14 13 18 15 8 14 7 15 36 35 33 30 29 28 25 22 21 21 20 18 17 16 15 15 15 15 15 15 14 13 12 11 10 9 9 9 11 12 14
1 1 1 3 3 3 1 6 8 11 10 14 15 11 9 9 5 25 33 35 33 29 27 26 23 21 20 21 19 17 16 15 15 16 16 15 15 14 14 13 13 12 10 9 8 9 11 13 14
3 2 3 3 11 2 7 3 13 11 13 11 10 10 12 9 9 32 32 33 32 28 26 24 21 20 20 20 18 17 15 14 15 15 15 15 15 14 13 12 11 10 9 8 8 7 7 9 13
2 4 4 6 4 9 5 10 13 13 9 11 12 11 10 11 21 32 31 33 29 27 24 22 20 19 19 19 18 16 15 13 14 14 13 14 14 12 11 11 11 10 8 7 6 6 6 8 12
2 3 2 3 3 2 9 15 18 17 7 9 12 12 12 18 32 32 31 32 29 25 23 20 19 18 19 18 17 16 15 14 13 13 13 13 13 12 11 11 11 11 13 12 10 10 8 9 11
7 8 4 4 1 5 3 19 14 7 9 12 12 14 15 28 34 32 33 32 29 25 21 18 18 18 19 18 16 15 15 14 14 13 13 11 11 13 13 12 12 13 13 16 16 15 15 14 14
10 1 3 5 6 5 9 13 12 6 5 8 9 11 24 31 34 34 35 32 29 25 21 17 17 18 18 17 16 16 16 14 13 13 12 10 12 12 13 11 12 11 12 14 16 14 17 19 18
11 6 6 2 5 4 13 13 10 6 4 8 9 12 21 28 33 33 36 33 30 26 22 18 18 20 19 17 17 17 15 13 13 12 13 12 12 10 9 11 12 11 11 11 12 13 15 16 19
15 8 7 7 6 11 11 10 5 3 4 3 11 17 26 28 31 31 33 32 30 26 23 20 20 20 18 17 16 16 13 13 13 12 13 11 11 11 10 9 10 11 10 8 10 10 10 13 13
18 10 12 9 5 6 9 13 6 4 4 1 2 16 28 29 28 29 30 28 25 24 23 21 21 20 17 17 16 15 14 13 13 13 13 11 10 10 12 9 8 9 8 7 7 8 10 10 10
14 18 17 6 4 3 3 8 8 7 2 2 4 7 22 31 23 27 27 27 27 25 22 22 23 20 18 17 16 14 13 13 13 11 13 8 7 9 8 7 7 6 8 8 8 6 7 9 8
20 19 16 11 2 5 5 10 11 12 9 4 2 11 18 28 23 26 26 26 26 25 24 23 23 21 19 18 17 15 15 14 8 12 11 8 8 8 6 6 8 6 3 8 9 4 4 7 8
20 22 16 11 13 12 10 15 17 14 14 10 4 11 17 22 23 26 29 27 27 26 24 24 24 22 19 18 16 16 15 14 11 12 12 10 8 9 5 5 6 6 5 7 6 4 4 4 8
24 23 20 17 15 16 9 20 20 15 17 15 6 12 17 23 23 24 26 26 27 26 25 24 24 23 20 18 16 16 16 13 12 10 9 8 10 8 5 4 6 8 8 7 9 5 3 3 7
32 23 23 19 12 20 16 17 25 14 16 16 9 15 19 24 24 24 25 26 26 28 28 27 26 24 22 19 15 14 14 12 12 11 9 7 7 6 5 3 2 8 8 7 8 9 10 12 15
32 25 29 24 18 19 22 17 24 19 20 18 12 15 19 21 25 26 25 24 25 25 29 29 28 25 22 19 17 15 12 13 14 13 10 8 7 6 5 3 5 5 7 8 7 6 8 10 10
28 35 27 24 18 19 27 25 23 23 26 22 15 15 20 22 20 24 24 25 23 24 28 30 29 27 24 21 20 17 16 16 14 10 8 8 8 7 5 4 6 8 7 8 6 5 4 9 1
27 29 34 27 21 19 29 30 27 25 29 29 24 20 17 19 21 24 26 28 27 25 27 33 32 30 28 25 23 20 17 15 12 10 8 8 8 7 5 4 3 5 5 6 9 7 4 6 6
38 21 33 32 26 15 26 31 33 31 29 32 30 25 19 18 24 25 25 27 25 27 28 32 33 32 29 26 20 18 15 13 11 12 11 8 8 8 6 4 3 4 4 4 7 10 7 6 10
43 39 33 36 20 19 15 30 31 37 35 34 35 27 22 22 17 19 26 24 22 26 33 33 33 32 30 26 24 22 21 19 17 15 11 9 9 8 7 6 5 3 3 3 5 9 9 7 7
46 45 38 34 25 14 24 12 31 39 41 38 37 35 30 23 24 22 21 25 25 25 29 31 31 31 29 27 26 24 22 19 13 12 12 12 12 10 9 8 7 6 3 3 3 6 7 6 6
49 44 38 34 28 23 31 13 18 34 41 36 39 42 38 24 22 21 24 15 19 25 27 29 29 29 29 27 26 25 23 20 17 15 15 15 14 13 11 9 7 7 6 6 4 4 4 6 6
45 31 35 34 23 20 38 22 13 38 40 32 33 39 42 40 28 21 23 24 17 22 26 27 29 30 30 28 27 27 24 21 20 19 17 15 14 13 10 9 7 7 7 7 9 6 4 6 7
36 30 13 10 10 13 29 26 31 18 28 35 31 34 39 39 37 25 28 29 25 23 27 28 29 30 31 30 30 29 26 24 23 21 17 15 13 11 10 9 8 6 8 10 11 9 6 6 8
34 39 13 9 4 12 27 15 21 37 19 26 30 31 36 35 43 33 25 25 22 25 25 28 29 30 32 31 31 31 29 27 25 23 20 18 14 13 13 12 11 10 11 12 14 14 11 8 7
41 45 43 19 10 7 19 27 37 27 26 29 27 33 39 40 42 38 33 24 17 21 24 27 29 29 31 31 32 33 31 29 27 24 22 20 18 16 16 14 14 15 12 12 14 16 14 12 11
43 32 37 34 9 6 6 19 27 36 34 31 27 29 34 36 41 40 41 24 17 18 18 22 24 28 28 30 33 32 31 29 28 26 25 22 20 19 18 15 14 15 14 14 15 17 18 16 14
38 43 39 37 25 11 2 19 33 33 37 38 35 29 22 19 34 42 42 34 23 19 19 21 23 23 27 30 32 33 32 31 29 28 27 25 23 21 20 18 16 16 13 12 13 15 20 20 19
31 39 38 27 25 32 27 32 12 30 23 32 38 35 28 28 25 35 40 38 28 24 23 25 24 25 25 28 31 32 32 32 31 30 28 27 25 24 22 21 19 15 13 11 11 12 14 19 22

GFSSGP_700_spd_054.txt.gz
Wind_Speed
1 2 2 3 3 1 2 2 3 12 15 11 16 19 14 5 9 1 21 29 30 28 27 26 22 19 19 19 18 16 14 14 14 14 13 13 13 12 12 11 12 11 10 9 11 12 12 12 13
1 3 3 1 2 1 0 1 2 15 14 13 14 11 9 8 10 4 34 32 30 27 26 24 21 18 18 18 16 15 13 13 13 13 13 13 13 14 12 10 10 9 8 10 11 11 13 13 13
3 2 2 2 4 2 0 6 10 14 12 12 15 12 6 7 12 11 32 32 31 28 25 22 20 18 18 17 15 14 13 13 14 14 14 13 13 13 12 11 10 10 8 8 10 12 13 13 13
3 1 3 4 6 6 3 5 14 14 12 12 11 8 8 4 5 29 32 31 29 27 23 20 19 19 19 18 15 14 13 13 14 12 13 13 13 13 12 10 9 9 7 6 8 9 10 12 14
3 2 3 6 7 4 3 7 13 11 11 13 13 10 6 5 13 32 32 31 28 27 23 21 19 19 19 17 15 14 12 12 12 12 12 12 11 11 10 10 9 8 6 5 5 9 10 12 13
4 3 4 5 6 3 6 8 13 13 6 10 11 10 6 9 24 32 33 31 28 25 23 21 19 18 18 16 15 13 12 12 11 11 11 10 10 11 11 11 10 13 11 9 8 11 12 13 13
5 7 3 3 4 5 10 11 12 10 10 11 13 12 8 14 31 31 32 30 29 24 21 19 18 18 18 16 14 13 12 11 11 9 9 8 8 10 11 11 12 12 14 14 12 10 13 14 13
9 6 3 2 1 7 5 14 10 6 6 10 11 8 10 18 34 31 33 30 28 24 20 17 16 17 17 16 14 14 13 13 11 10 10 10 9 10 10 12 11 13 13 14 12 14 16 16 15
11 3 5 1 4 8 10 13 9 7 4 7 10 9 9 26 33 33 35 32 29 25 21 17 17 18 17 15 15 15 13 13 12 12 12 10 9 8 9 10 10 13 13 13 13 14 15 15 15
15 5 8 5 11 14 12 9 3 2 1 0 5 6 15 30 30 33 35 33 30 26 22 18 19 18 17 16 16 15 13 13 12 13 13 10 8 8 7 9 8 12 10 11 11 11 12 14 14
14 11 8 5 13 14 10 10 4 2 2 2 3 4 14 28 28 31 32 28 26 24 21 20 20 19 17 15 15 14 13 12 13 13 11 10 7 8 7 8 7 6 7 6 11 11 10 10 8
16 13 13 11 8 6 3 9 4 1 3 4 3 6 14 23 25 27 29 27 26 23 21 21 21 19 17 16 15 14 14 12 12 10 11 8 9 9 6 6 6 5 6 5 8 11 8 5 8
16 18 20 13 7 6 4 5 7 7 4 4 5 9 15 23 22 26 27 27 25 23 21 22 22 19 17 16 15 13 12 12 12 12 8 7 8 7 6 6 8 6 3 4 4 6 6 5 12
15 19 21 17 11 10 7 7 8 7 6 6 5 12 18 24 20 25 27 26 24 22 21 22 22 20 18 16 15 13 14 11 11 10 9 7 6 9 9 6 8 5 3 3 2 1 3 6 8
19 26 24 20 15 13 9 16 13 12 10 12 8 14 19 25 22 20 24 23 23 21 22 22 22 20 18 16 14 13 13 11 11 10 7 6 7 8 6 6 8 6 6 5 4 4 7 6 8
30 24 26 24 18 15 13 14 8 14 12 13 11 15 20 22 22 20 25 23 23 24 23 23 24 21 19 17 14 12 13 11 10 10 9 9 6 6 7 7 6 5 5 6 7 11 9 10 13
25 25 29 27 21 15 16 14 13 15 18 14 13 14 18 23 24 23 25 24 23 24 25 25 25 23 20 18 16 13 13 12 11 10 9 8 8 8 6 8 6 5 5 6 6 7 7 13 12
26 34 29 32 24 18 19 19 19 12 17 14 14 12 18 22 23 25 24 25 25 25 27 27 26 25 23 20 18 16 14 12 14 12 9 8 7 6 4 5 6 5 3 4 5 4 4 6 4
31 28 35 32 30 20 21 21 21 19 17 18 19 18 16 19 20 26 27 27 26 27 28 31 29 27 26 23 21 18 15 15 15 14 9 7 6 6 6 4 2 4 4 4 5 4 4 5 4
30 25 29 34 28 24 21 23 23 27 24 20 21 23 18 20 26 28 30 31 30 28 27 30 31 30 28 25 21 18 17 16 16 15 12 9 7 6 6 4 2 2 2 4 4 4 4 6 7
43 27 31 32 29 26 21 23 28 33 32 31 26 23 23 22 23 27 31 32 34 32 30 28 32 32 30 26 24 23 22 23 21 16 12 9 8 7 5 5 4 3 4 3 3 4 6 6 7
41 43 26 25 17 16 24 7 26 28 30 33 32 27 28 27 25 25 26 29 30 30 32 29 30 34 32 30 27 25 22 20 16 14 13 12 10 8 7 6 6 5 4 4 3 4 4 7 9
40 37 42 34 29 24 19 11 26 23 31 34 32 31 28 30 29 26 18 15 20 28 31 32 32 33 34 33 30 26 24 21 18 16 14 13 12 9 8 7 6 7 6 5 3 3 4 5 6
37 3 27 28 23 21 36 23 28 32 38 30 29 26 30 31 31 28 22 23 19 25 29 33 34 34 35 34 32 29 25 21 19 17 16 15 12 11 9 8 7 8 8 7 6 4 4 4 5
24 30 6 8 10 16 32 26 35 29 38 32 26 21 28 33 35 27 27 25 22 23 29 32 35 36 36 35 34 31 27 24 21 19 18 15 13 11 10 11 9 9 11 12 10 7 6 6 6
37 35 16 8 6 16 28 15 25 47 32 25 24 21 27 28 31 38 29 24 23 24 27 31 35 36 36 35 34 31 29 26 24 22 20 17 14 13 14 13 13 12 13 13 14 11 8 8 8
29 44 40 10 5 7 26 26 27 31 32 36 23 21 28 32 33 37 37 27 26 28 27 32 34 35 36 35 33 32 30 28 26 23 22 19 17 16 17 16 15 13 13 13 14 15 12 11 12
32 28 30 32 7 5 8 28 23 40 30 34 33 25 21 25 27 32 38 32 30 27 28 27 32 34 35 35 35 32 29 27 26 26 24 22 20 19 18 17 15 14 13 14 15 18 17 15 15
45 35 28 35 27 7 2 15 24 35 35 39 37 25 20 21 25 25 29 31 35 29 29 28 28 31 34 35 34 34 32 30 29 28 27 25 23 22 21 19 17 14 12 13 15 17 21 20 19
32 40 37 24 23 35 9 20 21 23 23 24 43 30 26 19 14 16 27 31 35 35 31 29 29 30 30 32 33 33 33 32 32 30 28 27 25 24 23 22 19 16 14 14 16 17 19 23 23

GFSSGP_700_spd_060.txt.gz
Wind_Speed
4 5 4 2 1 3 3 3 5 7 10 7 14 14 14 12 5 7 29 30 31 29 27 25 22 22 21 20 18 17 17 16 16 15 14 13 12 11 11 10 11 9 8 8 7 7 7 6 5
3 4 2 1 2 6 2 2 7 9 8 16 15 14 10 12 7 12 29 31 30 27 24 23 22 21 20 19 18 17 17 16 16 14 13 12 13 11 10 8 8 8 8 7 8 8 7 8 8
3 3 2 2 2 2 4 3 7 14 11 14 14 15 10 9 4 13 27 30 30 25 23 22 22 21 19 17 17 16 16 15 15 14 13 12 12 10 9 8 9 8 9 9 8 8 8 9 8
3 2 4 3 1 3 7 6 13 12 14 11 11 7 6 5 8 17 28 28 28 24 22 21 21 20 18 17 16 16 16 14 13 12 11 10 10 10 9 8 7 7 7 7 7 9 10 10 10
3 3 3 4 4 7 6 8 10 12 10 10 10 5 5 6 11 26 28 28 26 24 22 21 20 18 17 16 15 15 14 13 12 11 10 10 10 9 8 7 6 6 7 7 8 9 11 11 12
4 2 2 6 8 3 6 9 13 12 8 7 11 6 3 7 16 33 29 28 26 23 22 21 21 19 17 16 14 13 12 11 11 10 10 10 10 9 10 10 10 8 7 9 10 11 10 12 13
5 2 3 1 3 4 7 7 12 12 6 7 8 7 4 9 28 35 31 29 27 23 22 20 20 19 16 15 13 12 11 10 10 9 10 11 9 10 11 13 13 11 10 11 11 11 11 12 13
5 5 5 1 2 5 9 9 13 10 8 6 7 5 7 14 35 35 32 30 27 23 21 19 20 19 17 15 12 12 11 11 9 9 11 11 10 11 11 12 14 13 12 12 11 12 13 11 12
6 5 6 2 2 6 11 12 10 10 7 6 9 7 10 18 35 35 34 32 27 24 20 19 18 18 16 14 13 12 12 11 10 10 12 11 10 11 10 11 14 14 14 12 12 14 12 11 10
10 3 3 3 1 7 10 11 5 5 2 2 7 12 12 23 34 35 34 31 26 23 21 19 19 18 17 15 14 14 13 11 11 11 11 10 10 9 10 9 10 12 12 11 11 13 13 15 7
10 3 3 1 3 11 14 10 7 7 4 2 4 8 14 28 33 34 31 28 24 22 20 19 20 19 17 16 16 15 13 11 12 11 10 11 10 9 9 6 8 8 9 10 10 10 10 14 8
8 10 6 3 7 11 10 9 8 9 5 1 2 8 16 29 32 33 32 29 25 22 19 20 21 20 19 19 16 14 13 12 12 11 10 11 9 8 8 6 5 6 7 10 9 6 5 5 7
18 9 7 8 8 7 9 8 9 8 3 0 2 8 19 28 31 31 31 29 25 22 19 21 22 20 20 19 17 15 13 13 13 11 11 10 10 9 6 6 5 5 7 8 7 4 3 5 7
10 18 13 8 10 7 7 7 9 7 3 2 2 11 22 25 27 30 32 29 25 22 19 21 22 20 20 18 15 15 13 12 13 10 9 9 8 8 6 7 7 6 8 5 3 2 5 5 8
17 8 14 19 16 10 9 11 9 10 6 4 2 12 24 27 27 28 30 27 25 21 20 21 21 20 19 18 15 14 13 14 12 12 9 7 7 6 5 7 8 9 7 4 2 2 3 6 6
18 17 15 18 20 15 13 12 14 8 8 4 5 11 24 26 25 29 31 28 25 23 21 22 21 20 19 17 15 14 14 14 14 11 9 8 6 6 6 5 8 8 7 7 5 3 5 6 4
18 19 21 15 21 15 16 9 13 8 7 7 7 12 20 26 27 29 31 29 27 24 22 22 22 20 19 18 16 15 13 13 13 11 8 6 5 6 6 5 8 6 6 7 6 6 8 7 6
22 25 18 23 18 22 18 12 11 10 8 9 8 13 19 26 28 28 32 31 29 26 25 23 23 22 20 19 16 16 14 13 11 10 8 7 8 6 7 7 6 5 7 5 4 6 9 9 11
13 18 24 19 17 19 22 19 14 12 10 11 11 12 15 22 27 28 32 32 30 29 27 25 25 24 22 20 17 16 14 12 11 10 8 7 7 5 5 6 6 5 6 5 2 2 5 3 2
21 15 18 20 19 18 22 22 18 17 14 12 11 13 12 19 27 30 31 33 33 30 28 27 25 26 23 21 19 18 16 15 15 13 10 8 7 6 5 3 4 3 4 5 3 3 5 6 7
24 25 17 19 18 21 20 24 23 21 19 20 18 14 15 17 24 31 32 33 34 33 31 29 28 26 26 24 22 21 19 18 17 16 13 10 10 8 6 4 3 4 2 3 3 2 5 4 4
26 23 23 19 16 23 26 24 30 27 24 24 23 19 18 18 20 25 30 31 33 33 31 31 30 29 28 27 25 23 20 18 17 16 15 13 12 10 8 6 5 4 2 1 1 5 3 5 5
24 19 21 24 22 19 22 25 29 32 29 28 26 23 23 21 20 22 24 27 31 33 33 32 33 32 31 30 28 26 24 22 20 19 17 15 13 11 9 7 6 5 4 3 1 2 1 4 6
21 21 20 19 25 25 34 28 31 32 34 31 27 26 26 24 21 20 21 24 29 33 34 33 33 33 34 33 31 29 27 25 24 22 18 15 13 11 9 8 8 7 7 6 3 1 1 2 6
23 23 16 14 19 22 36 36 34 30 28 33 29 29 30 25 22 21 23 26 25 28 32 36 34 34 34 35 35 32 29 28 25 23 20 18 15 13 10 9 8 8 7 8 6 6 5 3 5
32 32 22 20 16 22 34 39 44 35 22 27 28 27 27 27 25 25 26 26 25 25 26 33 36 34 36 35 36 35 32 31 28 26 24 21 19 16 15 13 11 10 9 8 8 8 7 7 7
27 40 38 33 23 24 31 36 29 34 39 23 26 26 25 27 19 26 26 29 25 25 25 28 30 34 35 35 37 37 36 34 31 28 26 24 23 21 18 15 13 12 10 9 9 10 10 10 8
30 29 33 38 22 22 22 28 38 29 36 38 33 25 28 26 24 25 28 28 30 28 26 24 28 27 31 35 36 37 37 35 32 30 29 27 25 23 20 17 15 13 12 11 11 12 13 11 11
29 39 30 35 34 19 18 23 25 32 36 34 37 34 27 23 22 21 25 23 24 32 29 27 24 27 29 33 36 37 37 36 34 33 30 30 27 25 23 20 17 15 14 13 13 13 16 14 15
19 21 41 34 39 42 30 26 10 19 28 28 31 32 34 31 27 24 22 25 25 26 30 30 28 26 27 30 32 35 36 36 36 34 32 31 29 27 24 22 20 18 16 16 15 16 18 18 18

GFSSGP_700_spd_063.txt.gz
Wind_Speed
5 5 4 2 2 3 2 7 9 10 9 9 11 10 10 8 3 10 34 32 30 29 26 25 23 21 20 19 17 15 14 12 11 10 9 8 7 8 7 9 8 7 6 6 6 6 6 5 6
6 3 3 2 2 6 3 6 10 9 11 13 16 15 8 9 7 27 33 31 28 26 24 24 23 21 19 17 16 15 14 13 11 10 9 9 8 8 7 6 6 6 6 6 7 7 8 8 7
5 3 3 3 3 0 6 6 11 13 15 13 15 13 9 9 8 28 29 30 27 24 23 23 22 20 18 17 15 15 14 13 12 11 11 9 7 7 6 6 6 7 7 7 8 8 8 7 7
4 3 5 4 1 5 8 9 11 19 13 10 13 8 9 12 12 25 28 28 25 20 22 22 21 20 18 16 15 14 14 13 12 12 11 9 7 6 6 6 5 5 6 6 8 9 7 6 7
4 4 5 5 4 7 10 15 11 14 11 11 8 8 8 18 17 26 27 27 22 19 22 21 20 19 18 16 16 14 14 13 12 11 10 9 8 6 4 3 4 5 6 7 8 10 10 9 9
4 1 2 5 6 8 8 9 11 11 11 11 7 6 8 12 23 29 26 25 19 19 22 21 20 19 17 16 15 14 12 12 11 10 9 9 8 8 7 6 5 7 7 8 9 10 12 12 12
3 2 6 4 9 11 10 10 11 13 10 8 11 6 6 12 29 31 24 23 20 18 20 20 20 19 17 15 14 12 12 11 11 10 10 10 12 10 9 9 9 9 10 11 10 10 12 13 14
4 6 8 1 5 8 10 10 11 10 8 8 8 6 7 14 33 33 27 24 19 19 18 20 20 19 17 14 13 12 11 11 9 10 11 12 12 11 10 11 11 11 12 11 10 12 13 13 15
3 6 7 2 4 12 14 9 8 8 7 7 9 3 8 16 38 34 28 25 21 20 17 17 17 17 16 14 13 12 12 11 9 10 11 12 10 11 10 12 12 15 13 11 11 11 11 13 13
5 8 6 4 3 2 11 13 11 9 9 6 10 12 11 21 37 35 29 26 23 21 17 16 16 17 17 15 14 13 12 11 11 11 9 12 9 7 10 12 12 13 13 12 11 7 21 15 13
8 9 3 2 1 9 13 13 9 10 8 7 13 14 12 23 34 33 28 25 23 22 20 18 19 19 15 15 15 14 10 10 12 10 13 9 12 9 8 8 8 12 9 10 11 6 12 6 13
14 10 11 8 7 12 13 10 11 14 13 10 14 10 11 24 33 31 28 26 24 23 22 19 19 19 17 17 13 11 9 10 11 11 12 10 9 7 9 7 4 6 11 3 8 5 6 4 12
18 10 7 7 6 6 5 10 13 9 6 11 13 14 15 28 32 29 27 25 23 22 22 20 19 18 19 20 18 13 12 10 7 10 10 7 8 5 4 6 6 7 7 6 4 6 3 7 4
11 17 12 9 12 8 10 11 11 14 10 12 9 17 22 31 29 29 28 27 24 22 21 20 19 18 19 22 18 16 13 16 10 5 9 10 7 7 4 9 7 6 12 5 7 7 4 10 1
21 12 17 19 14 14 12 9 15 19 14 10 13 22 28 33 28 28 27 27 24 22 21 20 20 20 19 17 16 14 15 12 12 6 8 8 9 6 7 6 8 4 7 3 5 2 8 1 1
21 19 20 19 21 19 17 20 17 14 15 13 16 24 29 32 30 28 28 27 25 23 21 22 22 20 19 17 16 17 14 13 7 9 7 8 7 6 11 9 9 6 6 3 3 2 11 6 1
20 23 24 18 23 21 23 19 13 17 18 17 18 24 28 31 31 30 29 28 26 24 22 24 23 21 19 17 14 14 13 13 10 9 6 5 5 6 5 10 6 5 6 6 5 5 12 5 8
23 24 22 22 19 24 22 19 23 26 19 20 20 24 28 30 31 30 30 28 27 25 23 25 24 23 21 19 16 16 14 17 14 9 4 6 7 6 7 1 4 5 9 8 5 9 7 10 11
15 23 24 20 21 23 26 19 22 23 20 20 20 24 28 30 29 30 30 30 29 27 25 25 26 24 22 19 17 16 14 15 12 11 12 9 5 5 5 4 3 3 12 2 3 7 7 8 9
23 18 20 24 20 18 22 24 18 21 22 20 21 23 26 27 30 31 32 32 31 28 26 25 26 24 22 21 19 18 16 13 12 11 10 8 7 6 4 5 1 6 1 4 7 5 1 3 4
25 25 21 19 21 22 22 24 24 27 21 20 20 21 24 29 31 32 32 33 33 31 29 27 25 25 24 23 22 20 19 18 15 11 12 9 8 8 6 4 2 2 3 4 6 6 12 8 6
25 22 22 19 23 26 27 23 33 22 25 25 24 24 25 27 30 31 31 31 34 32 30 29 27 26 26 25 24 22 20 17 14 14 11 10 8 8 8 6 4 3 4 2 2 6 8 6 3
26 20 21 23 25 24 26 29 33 36 29 27 27 26 26 27 26 24 26 28 29 32 30 31 30 28 28 27 26 24 23 18 14 13 18 14 11 9 8 6 5 4 1 1 3 4 4 12 9
22 23 21 21 24 25 34 31 32 31 27 31 31 30 28 28 29 26 20 29 31 31 32 31 30 30 29 28 28 26 25 22 18 19 18 17 12 11 9 7 7 6 5 3 3 1 1 2 9
21 25 23 17 20 20 36 38 32 27 28 37 33 34 31 30 30 29 26 23 22 28 29 31 32 31 31 31 30 29 27 26 23 21 19 16 13 11 11 10 10 9 7 5 5 3 3 1 1
34 30 25 24 15 24 36 41 42 30 20 34 29 34 35 33 30 31 24 22 24 23 25 29 32 31 32 32 32 31 30 29 26 24 22 19 16 15 17 12 11 10 8 7 7 6 6 3 2
29 39 37 35 30 25 31 38 34 35 35 23 33 35 35 35 32 31 29 27 25 25 24 23 29 31 33 32 32 33 33 33 30 28 25 22 20 17 17 14 12 11 8 6 6 7 7 7 5
29 27 32 39 25 26 27 32 36 38 37 38 28 22 27 36 30 30 31 30 28 26 24 24 25 28 32 33 32 32 35 35 33 30 28 25 23 21 20 17 14 12 10 9 8 10 9 8 8
26 33 30 29 43 20 19 23 31 31 36 34 39 28 29 26 30 31 29 31 29 30 30 26 24 28 30 32 32 33 35 37 36 34 31 28 26 23 22 20 17 15 13 11 10 10 10 11 11
28 33 34 35 31 40 39 29 1 30 28 31 33 38 31 29 30 30 29 30 30 31 32 28 25 21 26 28 30 33 34 37 38 37 34 31 29 26 24 22 20 18 16 15 12 12 13 13 14

GFSSGP_700_spd_066.txt.gz
Wind_Speed
4 4 3 2 4 5 2 8 13 17 15 14 13 8 11 17 8 13 36 30 30 26 25 23 21 19 19 18 15 13 11 11 10 9 8 6 7 9 10 10 9 8 8 8 7 7 5 4 5
5 3 2 4 6 7 4 10 15 14 18 16 18 15 11 9 4 33 32 31 28 25 24 23 22 20 18 15 13 12 12 10 9 8 7 6 6 7 6 6 7 8 9 9 9 9 7 6 7
3 8 8 5 5 1 3 4 19 20 15 15 16 10 8 6 25 33 29 30 26 25 23 22 20 19 16 15 14 13 12 11 9 8 8 8 7 6 5 5 7 8 9 9 9 8 8 9 10
4 2 7 9 5 10 11 12 20 20 15 10 10 15 12 12 29 28 29 26 23 24 22 21 19 18 16 15 14 13 13 11 10 10 9 7 6 5 4 4 5 6 7 8 9 9 9 10 11
3 6 10 6 3 11 14 17 21 17 13 14 7 16 21 13 23 26 27 19 15 23 21 20 19 18 16 15 15 14 13 11 11 11 10 7 6 5 4 3 4 4 7 9 11 11 10 11 12
5 5 6 6 5 12 13 9 20 12 14 11 6 14 22 16 21 28 27 21 15 20 21 19 19 18 17 16 16 14 12 11 12 11 9 8 8 9 9 6 4 6 9 10 11 12 13 14 13
4 6 4 5 5 9 12 14 13 16 16 11 8 11 20 24 22 28 31 22 13 21 21 20 19 17 17 16 15 14 12 12 12 11 9 10 10 13 11 10 9 11 12 11 11 13 17 17 16
2 12 2 2 12 13 19 13 14 9 16 12 7 6 16 25 28 31 26 25 14 21 19 19 19 17 16 15 14 13 13 12 11 12 12 12 13 14 14 13 12 13 13 11 13 15 18 19 17
7 8 12 8 5 13 17 13 14 12 12 10 10 7 10 20 34 35 30 20 16 11 19 20 18 16 16 14 13 12 12 12 12 12 11 12 15 16 13 16 15 14 12 12 13 12 16 18 18
12 7 9 2 9 5 16 10 15 15 16 14 14 11 11 23 37 36 30 28 20 12 9 11 20 18 15 14 12 11 11 12 12 11 10 12 12 13 14 14 15 15 11 15 15 11 13 12 19
18 20 14 7 8 5 13 15 10 14 15 14 14 12 17 29 37 35 27 23 22 17 12 13 14 16 15 15 12 11 9 12 12 11 8 11 10 7 13 12 13 15 10 13 11 12 8 10 18
20 20 15 14 4 2 17 21 22 20 22 19 7 10 17 34 36 33 27 25 23 23 18 19 13 17 16 13 15 9 12 6 10 8 9 10 12 8 9 7 15 10 5 9 4 3 16 14 12
18 17 15 12 5 8 8 14 14 9 11 20 9 13 20 33 35 33 25 26 24 27 18 22 17 21 14 16 15 11 4 5 10 10 10 11 7 12 4 7 7 12 9 8 8 5 3 6 5
14 15 17 12 9 7 7 6 11 8 25 20 13 16 28 33 31 34 28 27 25 28 22 22 19 20 23 17 16 15 16 13 5 8 1 10 5 10 8 7 8 6 5 5 3 9 9 7 3
17 20 15 20 12 11 13 13 1 20 23 21 13 13 27 37 29 32 29 28 26 28 28 18 19 18 21 20 21 19 13 11 8 6 5 5 4 7 8 6 12 9 7 5 7 12 8 10 6
17 21 23 18 20 17 16 17 15 11 8 18 18 14 35 34 34 30 28 26 24 24 25 17 19 21 19 16 13 16 15 10 10 5 6 4 3 6 2 12 7 7 8 5 7 12 7 7 3
20 23 23 19 22 21 22 17 17 22 24 17 21 21 35 35 27 31 29 27 25 23 21 20 21 20 19 18 18 15 10 13 8 9 9 7 5 5 2 5 10 6 6 9 8 8 10 11 5
21 21 22 22 19 24 24 21 15 12 21 22 22 25 33 40 34 29 31 27 27 24 21 21 22 21 19 18 17 15 15 17 8 7 7 6 8 4 6 6 9 1 4 8 6 9 5 16 10
21 22 23 20 22 19 23 28 20 26 24 25 19 28 28 38 34 31 31 29 29 25 23 23 23 21 20 19 16 16 15 17 12 10 8 7 8 5 6 6 9 6 8 8 4 9 10 8 8
24 23 21 21 19 21 21 22 24 24 33 30 23 29 28 30 37 36 36 33 32 24 23 23 24 21 20 19 18 17 15 14 10 11 7 7 5 5 4 6 5 6 8 8 6 13 6 11 9
23 24 21 19 16 22 19 20 29 19 34 40 28 27 31 33 36 39 39 36 32 26 25 24 24 21 21 20 20 20 20 17 13 14 14 9 6 5 3 4 4 3 6 11 8 5 2 10 14
25 20 23 22 21 23 24 17 24 22 27 21 28 28 32 35 36 37 36 36 33 27 26 25 24 23 23 22 21 20 19 20 15 10 10 10 8 6 4 3 3 2 4 7 7 7 5 6 7
25 20 19 21 25 24 30 24 21 33 27 29 28 37 34 37 36 35 29 30 30 27 25 25 25 24 26 24 22 21 20 18 14 15 12 12 9 8 7 6 5 2 2 5 5 7 5 9 13
22 23 22 23 24 24 31 31 28 31 32 24 27 39 35 36 39 35 24 28 30 29 26 26 26 26 27 27 25 23 21 20 18 15 17 13 10 9 7 6 6 4 1 1 3 4 6 6 7
23 20 22 19 18 19 29 33 30 21 33 29 25 46 40 36 37 39 30 29 28 26 22 24 26 27 28 27 27 25 23 22 19 18 19 15 13 13 9 8 7 5 2 3 2 0 4 4 4
28 27 26 17 15 20 30 32 34 33 29 29 21 37 29 36 33 36 30 20 18 20 18 20 23 26 27 29 28 26 26 25 22 20 18 18 13 10 9 10 8 7 6 5 5 2 1 2 3
26 33 31 32 32 23 30 28 30 25 28 26 36 41 44 35 36 34 35 25 21 21 17 17 14 24 27 28 29 29 28 28 27 23 21 20 16 14 15 12 10 9 9 7 6 4 3 1 2
23 27 27 33 21 24 26 31 27 28 28 29 26 25 24 30 41 34 33 31 27 23 21 20 19 16 24 27 28 30 29 29 29 27 24 23 19 18 17 12 13 11 9 7 7 5 4 3 1
22 25 28 26 32 18 16 27 23 21 33 33 32 27 25 35 44 26 39 35 28 28 28 23 21 18 22 28 29 29 31 31 32 30 28 26 23 20 21 15 12 11 11 9 7 6 6 5 5
21 27 26 29 25 27 30 33 28 10 13 33 32 27 28 14 21 41 44 45 33 31 27 28 24 19 16 24 27 28 30 32 33 33 31 29 27 24 22 20 16 15 13 11 9 8 9 7 8

GFSSGP_700_spd_069.txt.gz
Wind_Speed
3 5 4 2 1 3 6 8 19 22 19 19 18 11 15 19 20 9 30 29 27 25 24 22 19 17 15 14 13 13 13 12 11 10 9 10 10 11 11 11 10 10 10 10 9 9 9 10 11
6 6 3 0 4 4 3 10 21 15 19 15 14 13 13 12 10 27 32 29 26 24 24 22 20 19 17 15 13 12 11 10 9 8 10 9 9 9 9 11 11 10 10 10 11 11 10 10 12
4 8 1 5 5 5 7 12 25 13 13 16 18 10 11 10 20 32 30 28 26 25 24 22 21 19 17 15 14 13 12 10 10 10 10 9 9 8 9 9 11 10 10 11 10 9 8 8 13
5 2 5 10 10 11 11 22 26 24 17 9 10 11 11 24 37 29 31 27 26 25 23 22 19 17 16 15 14 13 12 11 11 10 10 10 8 7 7 7 8 8 10 12 11 10 10 12 15
5 2 8 11 5 9 16 26 25 13 13 7 6 15 22 35 29 29 28 24 24 24 23 21 19 18 17 16 15 14 14 12 11 11 11 9 9 8 6 6 7 10 12 13 13 12 14 15 16
2 3 7 8 5 15 16 18 18 19 11 10 5 17 28 32 29 29 27 24 23 21 21 20 19 18 18 16 15 14 13 12 12 13 11 12 13 11 9 8 9 11 12 14 15 16 15 16 17
4 5 8 9 2 12 20 19 15 15 16 7 6 15 26 30 30 26 20 24 23 20 19 19 18 18 18 17 15 13 13 11 12 13 13 14 15 15 13 13 12 13 14 16 16 18 20 19 17
2 7 4 7 2 6 12 22 19 10 14 10 2 7 19 31 30 20 13 15 15 19 19 18 19 18 17 16 15 14 12 11 12 15 13 15 17 17 16 16 15 15 16 17 16 18 20 20 18
4 7 9 12 8 15 22 19 15 12 11 5 9 4 8 33 30 34 24 18 13 21 19 18 18 17 16 16 14 13 12 12 13 14 13 16 16 19 17 17 16 17 17 16 15 15 19 19 17
11 12 5 11 4 8 11 19 16 17 16 17 9 9 17 39 35 31 25 20 14 23 23 20 20 18 16 15 13 12 12 12 12 14 15 11 15 19 16 16 18 16 19 20 15 14 15 16 17
19 15 13 12 8 14 15 20 27 23 20 12 8 11 20 39 35 41 29 16 12 17 22 22 21 19 16 16 13 13 12 12 11 10 9 13 11 15 15 15 19 14 15 16 16 12 13 12 19
17 18 15 18 17 2 10 10 12 24 10 7 7 4 18 38 37 36 28 21 12 12 19 23 19 19 18 16 13 12 14 11 12 11 13 11 10 12 11 12 11 12 10 14 13 16 12 10 13
17 15 18 12 12 9 5 10 9 16 9 12 8 7 19 36 35 32 22 17 11 11 7 8 13 21 21 16 14 15 17 14 10 10 10 9 9 9 10 9 9 12 8 8 7 11 8 10 13
14 18 19 17 12 10 9 5 6 14 14 17 10 9 22 36 34 31 22 27 18 22 16 13 12 15 19 18 16 13 14 13 10 11 6 7 6 12 9 10 11 11 10 6 8 16 11 15 10
16 22 17 13 17 13 8 4 2 15 26 14 6 13 28 37 39 34 25 30 22 24 19 14 14 18 20 15 14 14 16 8 9 12 9 7 8 10 6 11 8 12 9 7 4 13 7 9 7
16 15 20 16 16 17 13 6 2 25 16 12 7 14 30 40 39 34 29 30 26 26 22 17 18 19 23 22 23 17 16 16 8 9 10 9 7 6 13 10 10 11 8 11 11 10 8 11 8
19 22 19 18 16 18 20 12 16 18 10 29 13 10 36 36 33 35 33 29 25 25 20 19 21 20 21 21 17 17 14 13 14 11 11 8 8 9 6 8 8 11 10 11 14 9 8 8 10
18 18 19 19 19 14 26 21 11 13 10 25 24 16 25 41 36 33 31 29 26 24 19 19 22 22 22 20 20 22 15 16 15 13 11 7 9 8 10 5 7 10 8 7 13 12 6 7 9
22 27 27 20 15 19 32 29 18 15 16 32 33 20 18 42 37 36 35 32 27 23 20 20 22 24 22 21 19 17 16 15 16 14 12 10 9 10 10 8 9 11 9 9 9 12 16 11 6
15 21 24 21 15 17 22 26 21 10 7 13 32 24 13 27 35 33 36 35 29 24 21 22 22 23 22 21 19 16 17 19 13 12 13 11 12 7 8 9 9 11 9 8 11 14 12 11 7
25 24 22 23 20 20 23 24 21 19 21 23 22 33 23 15 34 38 38 40 34 28 24 23 21 22 21 22 20 20 21 22 19 17 14 11 9 7 6 6 10 9 9 6 7 8 11 12 12
25 19 21 23 24 25 12 5 24 28 24 29 27 25 34 32 23 36 40 41 40 29 25 24 21 23 23 23 21 20 18 20 16 15 14 11 8 6 7 6 7 6 6 8 8 8 13 17 15
26 21 21 21 22 23 33 12 9 25 26 17 33 34 34 37 32 29 45 43 40 32 28 27 24 25 25 24 22 20 18 15 17 16 13 12 10 8 8 5 7 6 6 6 9 6 7 14 16
15 20 23 21 19 17 27 20 7 28 25 24 32 19 38 39 42 37 33 39 43 35 30 29 27 25 27 26 24 21 19 18 16 18 15 16 12 10 7 6 6 5 4 6 7 8 8 9 9
21 16 11 9 11 8 18 21 24 17 22 27 22 22 26 40 40 40 38 37 41 39 30 30 29 27 28 28 26 23 21 20 17 14 15 17 14 11 9 9 8 6 6 6 4 6 7 6 5
20 22 17 6 5 8 21 15 25 22 27 24 25 11 31 44 42 45 30 37 37 35 26 27 29 27 28 27 27 25 24 22 20 18 13 13 13 12 11 11 8 6 4 3 3 4 5 6 7
20 22 19 25 32 18 21 23 25 25 25 27 27 23 26 37 42 42 46 26 30 34 25 23 28 29 27 27 26 26 27 25 22 20 17 13 12 13 14 12 9 6 4 4 4 5 6 7 6
24 21 16 19 7 7 11 26 21 15 29 31 34 41 34 42 21 39 43 43 35 31 25 25 23 30 28 28 27 26 27 27 23 22 20 16 13 13 10 10 10 8 6 4 5 5 6 7 7
14 13 16 17 17 5 7 15 29 8 15 12 36 30 43 45 24 30 44 49 43 43 37 27 24 26 31 32 30 28 27 29 28 25 22 20 17 17 13 10 9 9 8 8 7 7 6 7 8
17 18 15 16 12 20 21 22 35 31 31 34 18 37 35 35 26 27 11 41 38 44 43 38 28 27 28 31 31 30 28 29 31 29 26 24 21 21 18 14 13 12 10 9 8 7 4 6 6

GFSSGP_700_spd_075.txt.gz
Wind_Speed
5 6 4 2 1 2 2 6 6 16 16 10 23 23 22 10 10 3 25 27 28 25 25 23 21 17 14 12 10 10 12 13 11 11 11 12 11 10 10 9 7 6 6 6 9 11 11 11 12
5 4 2 2 3 3 5 9 19 19 17 17 23 11 18 12 4 14 28 27 26 23 23 22 20 16 13 13 12 12 12 11 10 9 10 9 8 8 9 9 9 8 8 8 9 12 13 13 14
6 3 2 3 1 4 11 18 18 13 18 18 19 14 12 16 4 20 23 26 25 23 22 21 17 15 14 14 13 11 10 9 9 9 8 8 8 9 10 11 10 9 9 9 10 12 13 14 15
5 1 1 4 4 5 9 18 16 17 19 14 9 9 13 18 9 21 23 23 23 22 21 19 16 15 14 13 12 11 11 11 10 10 9 9 8 9 9 9 9 8 8 9 12 14 15 16 16
6 1 4 7 9 6 17 21 19 16 15 13 11 9 10 12 24 20 22 22 21 21 21 19 17 15 14 14 12 12 11 11 10 9 9 9 9 9 10 10 10 9 9 10 14 17 19 18 17
3 1 4 7 6 8 21 21 20 16 11 9 12 9 13 24 28 23 21 22 21 19 20 18 16 15 15 13 12 12 11 10 10 10 10 10 11 13 12 12 11 11 11 14 17 19 21 19 17
3 6 6 4 6 11 20 21 19 13 6 5 8 14 25 34 28 23 22 22 21 20 17 17 15 15 14 13 11 11 11 10 11 10 10 13 15 16 15 14 14 14 14 15 16 19 19 18 17
3 7 8 10 4 6 14 21 11 11 10 5 5 17 34 32 30 25 24 22 21 19 16 15 15 15 13 12 10 11 11 11 11 10 11 16 18 20 17 17 17 17 16 17 18 18 18 17 14
7 6 8 9 14 9 10 16 15 16 10 8 18 18 23 32 31 27 26 25 23 21 17 15 15 15 13 11 10 10 11 13 11 11 12 16 19 19 17 18 18 19 20 19 18 18 17 17 15
7 6 6 8 12 15 10 7 15 13 15 15 15 20 25 31 29 25 26 25 24 21 18 16 15 14 12 11 10 10 12 12 12 12 14 16 17 17 17 16 19 19 19 18 18 18 16 17 11
9 7 3 6 10 12 4 10 17 0 21 12 5 9 24 30 28 23 24 19 18 20 18 16 15 14 12 11 10 12 12 11 11 10 13 15 15 17 18 17 18 16 17 17 15 15 16 12 11
12 7 2 4 12 15 14 9 11 6 11 11 6 4 12 30 28 23 24 20 18 19 18 16 16 14 13 12 11 12 12 11 8 10 9 12 16 16 14 14 15 11 13 15 14 15 16 16 11
15 2 6 12 15 19 9 8 7 11 14 10 10 14 16 27 29 24 18 12 13 18 18 17 16 14 12 12 10 12 13 11 12 11 10 7 11 13 12 12 10 9 13 16 10 9 12 12 13
7 6 10 9 15 11 10 6 8 6 15 12 14 16 21 25 27 24 20 13 10 15 17 18 16 15 13 12 11 11 12 13 11 9 10 10 9 10 8 12 9 10 9 12 10 8 10 11 10
7 7 3 4 3 11 12 4 11 4 15 13 14 16 21 22 25 21 20 13 8 10 18 18 16 15 14 13 12 14 13 12 10 12 12 12 10 8 10 11 12 10 9 11 11 12 10 11 8
7 8 2 4 2 7 7 2 3 10 9 17 12 17 23 23 26 22 18 13 12 13 15 17 16 15 15 14 14 15 14 13 10 9 11 11 7 7 5 8 9 11 10 9 9 6 7 9 11
7 8 7 1 6 3 7 4 8 12 14 15 8 8 21 25 25 25 17 13 13 11 13 14 13 12 14 14 15 16 13 13 11 10 10 9 8 8 6 7 8 11 9 10 12 8 3 11 12
7 11 9 9 8 5 10 13 13 10 6 9 14 10 16 24 29 27 22 17 13 10 7 6 12 14 15 13 15 19 12 12 10 10 9 9 9 7 8 4 6 8 12 12 12 13 10 9 9
13 15 14 6 3 6 8 14 20 17 13 13 17 16 15 20 29 28 25 21 17 16 11 8 9 14 15 14 14 15 15 13 10 9 10 9 9 9 7 5 4 6 7 12 11 14 12 11 11
13 17 13 3 2 11 11 15 19 23 17 18 13 19 14 23 33 34 30 27 24 19 12 11 9 12 15 14 13 14 13 11 11 11 12 11 10 8 7 6 3 3 4 11 11 12 12 11 8
15 20 9 6 13 11 7 3 22 28 23 21 15 22 19 25 30 33 30 28 27 23 16 10 9 12 16 15 15 18 17 17 15 13 12 11 11 8 6 7 5 3 5 9 12 16 13 9 6
15 17 9 7 4 5 5 4 16 30 25 24 20 24 24 28 31 32 32 25 26 28 17 13 13 12 16 19 18 17 16 16 14 12 12 11 10 9 6 6 4 3 2 8 9 11 12 11 9
11 8 9 11 11 8 6 2 7 17 20 25 25 24 27 26 35 42 38 28 18 21 22 16 15 14 18 21 20 19 17 18 17 16 15 12 10 10 10 7 4 3 3 3 5 11 9 11 12
10 11 12 15 11 3 7 4 5 17 11 14 21 28 24 21 24 36 42 29 27 19 21 21 18 16 17 22 21 20 18 17 21 20 17 14 12 10 10 9 6 5 3 2 2 3 13 14 13
11 12 2 2 3 5 9 2 4 4 12 16 12 9 19 23 23 32 33 29 30 23 18 22 21 21 17 23 23 20 19 19 20 21 17 16 14 11 8 8 7 7 6 3 1 2 6 12 15
8 14 7 5 4 5 8 8 6 10 9 10 13 15 18 20 25 32 30 23 24 19 17 16 18 18 19 22 25 23 21 20 20 23 18 18 16 12 10 9 9 8 8 6 4 3 4 6 12
11 7 7 6 5 3 5 2 2 8 12 9 11 11 15 21 25 30 33 22 18 22 19 17 15 16 18 22 25 26 23 23 21 21 20 20 16 16 13 11 11 11 10 8 8 6 5 5 6
11 8 4 4 4 3 2 11 20 17 11 12 8 9 17 22 30 28 34 28 21 19 18 18 18 17 13 19 25 27 26 24 23 23 22 19 17 20 17 16 14 13 12 11 9 8 8 8 8
6 7 4 6 4 5 3 6 15 15 14 9 9 12 5 20 25 28 27 29 28 27 22 21 21 21 23 22 26 27 28 27 27 25 22 21 18 19 19 18 17 16 13 13 12 10 10 10 11
7 16 13 6 5 4 3 5 8 12 13 9 9 7 8 14 18 26 30 28 27 28 29 22 22 19 21 25 28 29 29 30 30 28 24 22 22 21 20 19 18 18 16 15 13 11 11 11 11

GFSSGP_700_spd_078.txt.gz
Wind_Speed
2 4 4 3 2 4 5 1 4 7 8 8 15 16 19 8 6 2 22 26 24 22 22 20 20 18 16 13 12 12 11 11 10 10 12 12 11 10 9 7 6 7 7 7 8 9 9 9 9
3 4 2 2 5 0 6 6 11 12 8 15 18 16 16 16 5 13 25 26 24 21 21 19 17 14 13 12 11 12 11 9 9 10 9 8 9 7 6 6 6 6 7 8 10 11 12 12 11
4 3 3 2 5 1 6 13 15 12 9 18 17 15 11 11 2 19 21 24 25 21 20 18 15 13 13 12 11 11 9 8 7 7 7 7 7 7 7 7 7 7 8 9 12 13 14 15 13
3 0 3 2 1 3 7 9 14 11 15 13 10 8 9 13 11 20 21 22 23 21 19 17 13 12 12 11 9 9 8 8 6 6 6 7 7 7 6 7 6 6 7 10 13 14 16 14 12
4 1 2 6 8 5 10 15 13 15 16 14 11 6 11 13 20 19 20 21 21 20 18 16 14 12 10 9 8 8 8 7 6 5 6 7 7 7 7 7 7 6 7 10 14 16 17 14 13
3 2 3 6 5 6 14 19 15 14 13 11 10 6 12 14 24 21 20 20 20 17 17 17 15 13 11 10 9 8 7 6 5 5 6 8 9 9 9 8 7 7 10 13 16 18 18 15 17
3 5 5 5 1 3 16 19 15 13 9 8 7 7 11 25 25 21 21 20 21 20 17 16 14 13 11 10 9 8 7 7 6 5 7 11 12 12 11 10 9 11 13 15 19 18 16 14 13
7 12 16 8 2 7 14 17 15 12 10 5 7 8 20 33 27 24 23 22 22 20 17 15 13 11 11 10 9 8 8 8 8 8 10 14 16 14 12 13 14 15 15 18 18 17 16 14 10
9 6 10 12 14 6 6 14 19 14 6 4 6 6 28 30 28 25 25 24 23 21 18 15 13 12 10 9 9 9 9 10 9 9 12 16 16 15 15 15 18 19 17 18 16 15 14 12 10
8 9 9 9 11 15 2 7 1 9 6 12 9 23 33 29 26 24 23 22 22 20 18 16 13 11 9 10 9 10 10 10 12 11 12 15 15 15 14 15 18 20 19 17 17 16 14 12 9
9 8 3 7 13 11 13 11 15 12 15 15 5 24 27 27 24 21 20 18 18 19 18 16 13 11 10 9 9 11 10 11 11 12 12 13 14 15 15 15 16 18 19 16 15 15 15 12 10
9 7 3 8 12 13 11 11 3 15 15 16 10 14 22 25 22 21 20 19 19 18 17 16 14 11 10 9 9 10 9 9 9 11 11 12 13 14 14 14 13 14 15 16 17 14 13 12 11
14 4 0 4 10 15 9 6 7 9 21 9 17 18 24 26 22 21 19 19 18 18 16 16 14 12 9 8 9 9 7 7 9 9 10 10 12 11 10 9 10 10 12 14 14 13 11 13 11
10 7 2 1 6 2 2 5 7 7 8 5 13 16 21 27 23 23 21 17 19 18 16 15 13 12 9 8 9 8 7 9 9 9 10 10 8 7 6 7 7 8 7 6 8 10 11 13 9
8 6 3 1 4 5 5 2 6 9 13 10 10 17 25 28 25 21 18 14 13 16 14 14 13 11 10 9 9 10 9 8 7 8 9 9 7 5 6 6 5 5 5 3 4 10 10 8 7
8 8 3 2 6 4 6 4 5 11 12 8 9 17 24 32 26 22 17 13 11 13 15 16 14 12 11 9 9 11 11 10 9 9 10 10 9 8 7 5 6 5 8 8 9 7 9 7 7
9 7 5 4 9 2 3 5 14 25 7 12 10 14 23 28 29 26 19 15 10 11 12 13 13 11 13 10 12 14 11 10 10 10 10 8 8 7 6 7 6 6 6 7 8 6 6 7 6
10 9 8 10 8 3 5 6 16 7 12 12 13 13 20 26 29 25 21 18 15 12 10 8 9 10 14 12 14 14 12 12 10 10 9 7 6 5 7 6 5 6 7 7 8 8 7 6 6
11 9 11 7 2 4 5 5 18 15 12 12 12 11 15 24 26 25 20 19 19 15 12 7 6 8 13 13 13 11 8 8 8 8 7 6 6 5 4 6 6 4 9 9 8 8 7 3 4
14 11 9 6 4 4 4 8 9 18 19 14 12 14 14 20 30 28 25 21 22 18 13 10 7 6 8 11 13 13 13 10 11 9 7 6 7 6 5 6 7 7 9 9 7 10 6 5 4
16 15 9 6 3 3 5 5 7 16 23 22 15 16 19 19 27 29 29 24 21 21 17 11 7 5 9 11 14 14 15 14 13 9 6 7 8 7 5 5 5 6 8 10 8 9 8 7 4
18 17 12 7 1 3 6 3 2 17 23 23 18 16 22 21 24 31 27 26 23 20 16 14 8 4 6 11 12 13 13 11 11 9 10 9 10 7 5 3 3 4 4 6 10 12 9 7 5
12 7 10 6 4 3 2 1 5 8 17 18 15 18 23 19 23 26 33 30 22 21 19 17 13 9 6 9 11 12 15 12 13 10 12 10 8 6 5 4 3 2 3 2 5 8 9 8 7
8 6 4 5 4 2 4 3 7 5 8 12 20 24 25 24 19 23 27 34 29 23 22 21 17 12 10 8 11 13 13 14 16 14 12 11 9 8 7 5 4 2 2 1 2 5 9 9 9
14 12 4 2 3 5 15 8 10 6 4 7 10 11 20 27 25 21 22 28 31 27 26 23 21 18 13 10 12 13 12 13 15 18 14 14 10 8 8 8 6 5 5 3 2 1 3 9 11
13 16 6 5 5 6 13 10 6 7 8 5 5 7 8 18 28 27 21 23 24 27 26 24 23 21 17 15 13 15 15 14 14 18 17 16 13 12 12 10 10 8 5 4 2 2 3 5 12
13 12 13 8 7 6 6 5 6 3 2 1 4 5 13 14 23 28 26 22 24 25 27 24 22 20 19 16 14 15 16 16 15 17 19 16 15 16 15 12 12 11 8 7 5 4 4 5 6
16 13 10 9 4 3 4 7 6 2 1 3 0 3 10 19 18 24 30 25 23 23 24 24 22 20 17 17 16 15 16 17 16 18 19 18 17 18 17 15 14 13 11 10 8 7 6 5 6
12 13 8 12 6 6 4 3 5 5 3 3 4 5 6 17 19 19 22 27 26 24 24 26 25 24 23 21 18 18 19 19 20 20 20 19 19 21 20 19 17 16 14 13 11 10 9 8 8
8 11 12 13 7 6 6 6 4 2 2 4 5 5 6 8 18 21 21 24 26 29 30 27 26 26 24 22 21 20 20 21 23 22 21 21 21 21 20 21 19 18 18 16 14 13 11 10 10

GFSSGP_700_spd_081.txt.gz
Wind_Speed
2 1 1 2 2 2 4 2 5 6 8 9 13 15 17 10 4 4 30 26 25 22 23 20 18 15 13 11 10 8 7 9 8 7 8 7 7 7 6 5 5 4 5 5 7 7 7 8 11
2 1 1 6 5 2 1 2 9 10 9 14 19 18 12 14 6 19 28 27 24 22 21 19 17 15 12 10 10 10 10 9 9 11 10 8 7 6 5 5 5 4 5 6 8 10 9 10 10
2 0 3 2 4 3 6 8 11 10 8 16 16 19 10 9 7 25 25 25 24 22 20 18 16 14 12 12 12 11 9 8 8 7 6 6 7 7 6 6 6 6 8 9 11 12 12 12 13
1 1 3 4 5 5 2 10 9 10 16 15 13 10 5 8 16 21 25 24 22 21 19 17 15 15 14 13 11 8 8 7 7 6 6 5 6 6 5 5 5 6 8 11 14 14 14 12 13
4 3 3 6 3 2 4 7 9 10 14 12 10 6 10 10 23 20 23 22 21 19 17 16 15 14 12 11 9 8 7 6 6 4 5 5 5 5 4 4 5 6 9 13 15 15 12 10 14
2 1 2 3 5 3 8 11 9 10 13 12 10 9 16 21 22 21 23 23 21 18 15 15 14 13 11 11 9 8 7 6 4 4 5 5 6 6 6 5 4 7 11 15 16 15 13 14 16
3 6 5 4 6 4 9 12 8 11 10 11 8 10 17 25 23 21 23 23 22 19 16 15 14 12 11 10 9 9 8 6 5 4 6 8 9 8 7 7 9 11 14 17 18 16 16 16 10
9 13 13 10 4 1 12 13 8 10 8 8 9 9 18 27 26 23 24 24 22 20 17 15 13 12 11 9 9 9 10 8 8 9 10 12 11 10 10 11 14 14 17 20 17 15 15 12 9
7 9 12 12 17 4 6 13 13 9 9 9 10 10 20 30 27 25 24 26 24 21 17 16 14 12 10 9 9 10 10 9 10 11 14 13 12 13 13 14 16 17 18 18 16 14 11 11 9
11 11 11 14 15 17 8 4 16 10 5 4 6 15 30 29 24 24 23 25 24 20 17 15 14 12 10 10 10 12 11 11 12 14 15 14 13 14 14 16 17 17 16 15 14 14 12 11 9
13 9 8 10 12 13 9 8 13 10 6 6 7 22 36 28 24 21 21 21 20 19 17 15 14 13 11 11 11 12 11 13 14 15 14 14 13 13 16 15 17 17 16 16 14 13 9 9 8
14 9 6 7 8 8 9 9 5 21 14 11 15 27 28 24 22 20 21 21 20 18 16 15 14 13 11 10 12 11 10 11 13 14 13 12 13 15 15 14 15 15 15 14 12 9 10 10 10
12 8 4 3 6 8 5 5 11 16 19 14 16 29 22 22 21 21 21 20 20 18 16 15 13 12 12 10 11 11 8 10 11 13 13 12 12 12 11 11 12 14 15 14 13 10 10 11 10
13 8 5 1 3 6 7 8 12 17 14 10 21 27 24 22 21 20 20 19 20 18 16 15 12 11 10 10 10 10 10 10 9 11 13 12 9 9 8 9 10 12 12 11 9 9 12 10 9
12 8 3 2 8 10 8 6 11 16 13 14 20 22 26 25 22 17 16 15 18 18 16 15 13 11 10 10 10 10 11 9 7 8 10 9 7 5 6 6 7 6 5 8 10 9 7 7 8
10 9 5 7 9 9 9 4 4 10 16 9 19 23 26 26 21 18 17 17 20 19 17 15 13 11 10 9 10 10 9 9 8 9 10 8 7 7 7 4 6 6 6 9 10 7 7 7 7
13 9 8 9 9 8 8 10 9 11 13 11 14 22 27 29 26 23 18 15 16 18 16 15 13 11 11 11 10 12 11 8 8 8 9 7 8 7 6 5 4 6 6 8 7 5 5 6 7
13 11 9 9 11 7 9 7 10 13 13 8 9 19 27 32 28 24 19 16 16 16 17 16 14 12 14 12 11 13 10 7 7 8 7 8 8 6 6 6 4 6 5 5 6 4 4 5 4
13 12 13 13 10 4 4 9 15 9 12 6 13 17 24 30 29 25 21 18 18 17 14 12 11 11 13 11 11 8 7 7 6 7 7 6 5 6 4 5 5 5 5 5 7 7 4 3 4
13 15 11 8 7 2 5 5 14 20 16 14 9 15 22 25 32 30 27 23 20 18 15 12 12 11 12 10 12 11 11 8 8 7 6 6 6 6 5 5 6 6 8 5 5 6 5 3 3
17 11 11 7 7 5 5 3 5 15 22 18 14 12 18 25 29 33 31 26 23 22 19 14 10 9 10 11 11 11 12 11 9 6 5 5 6 7 5 6 6 6 8 9 4 7 7 4 3
14 15 11 9 5 4 6 4 4 7 22 22 17 14 15 19 27 29 32 28 26 22 20 16 13 10 8 9 10 10 9 9 8 8 6 6 7 6 7 6 6 6 7 7 8 8 7 6 5
8 8 12 8 5 5 6 3 10 3 3 17 23 18 16 16 20 25 30 30 24 22 21 21 16 10 8 7 10 11 11 11 10 9 8 8 8 7 5 5 5 5 6 6 7 7 6 6 4
11 10 11 8 6 7 9 4 10 5 3 2 12 21 19 16 17 20 24 27 27 25 23 23 21 16 11 7 9 11 11 12 10 10 9 8 7 6 6 5 4 3 3 4 5 8 8 7 7
18 14 8 6 6 6 13 6 6 9 5 2 6 15 19 25 24 22 19 23 29 29 26 25 22 20 15 10 7 11 12 12 12 12 10 9 8 7 7 7 5 5 4 4 4 5 8 12 11
22 18 9 9 9 9 14 10 8 8 10 4 1 8 15 21 28 27 20 14 24 28 26 25 25 20 19 15 9 8 11 12 13 14 14 12 10 10 10 9 8 8 5 5 4 3 4 9 12
22 21 14 6 11 13 6 9 11 10 8 7 3 6 12 16 21 22 24 19 18 26 28 25 24 24 22 18 14 10 10 11 11 13 14 15 14 13 13 12 11 11 9 8 6 5 4 4 8
19 19 14 7 10 11 4 5 2 9 8 4 6 4 8 12 14 15 18 21 17 20 24 26 25 24 21 19 17 14 10 10 13 15 14 14 15 15 15 14 13 14 12 9 8 7 6 5 6
14 16 13 14 5 7 7 4 3 2 3 3 2 3 2 10 12 14 20 20 22 19 22 24 27 27 24 23 21 19 15 12 14 16 17 16 16 17 17 16 16 16 15 13 10 9 8 8 7
13 15 16 16 8 6 4 6 7 3 1 2 3 2 1 1 5 16 21 21 21 21 22 24 26 27 26 24 23 21 19 19 17 17 18 19 18 18 17 20 19 19 18 16 13 12 11 11 9

GFSSGP_700_spd_084.txt.gz
Wind_Speed
3 3 2 1 2 1 3 4 4 9 13 9 16 14 16 12 6 6 28 26 24 23 23 21 17 15 14 11 9 8 8 7 6 5 4 4 4 4 4 3 3 3 4 6 6 7 8 10 12
3 3 3 3 2 3 5 6 11 9 11 19 16 18 10 6 7 26 27 27 23 22 21 18 16 14 11 9 8 8 8 8 8 8 7 6 5 5 4 4 4 4 5 7 9 9 10 11 12
2 2 2 2 3 4 6 9 13 14 17 15 19 16 12 6 17 30 26 26 24 21 19 17 15 13 11 10 10 8 8 8 8 6 5 5 5 6 6 6 6 6 7 10 10 10 11 13 13
2 2 1 4 9 9 8 13 11 19 16 16 18 11 7 9 27 26 27 25 23 20 17 15 13 11 10 10 9 7 7 7 6 5 5 6 6 6 6 7 6 7 9 11 11 11 11 14 11
4 2 1 3 8 10 10 15 14 14 15 17 14 4 9 18 28 25 26 24 22 20 17 15 14 13 11 9 7 6 6 6 5 5 5 5 4 5 4 6 7 8 11 13 14 12 4 15 11
1 1 1 6 9 7 9 10 10 10 13 11 6 7 14 26 25 26 25 25 22 18 16 15 14 12 9 9 7 6 6 5 5 5 5 4 4 5 5 5 7 10 13 15 14 8 17 12 9
1 5 3 6 8 8 13 10 12 10 9 8 5 10 22 26 26 26 24 24 23 19 15 15 13 11 10 9 8 7 6 5 5 6 7 6 6 5 6 8 12 14 16 17 15 25 20 10 8
7 7 5 4 1 6 12 12 9 11 8 8 11 10 22 25 28 25 24 23 22 19 16 14 13 11 10 9 9 8 8 8 7 8 9 9 7 7 10 13 15 17 18 17 17 18 12 8 8
5 6 9 8 2 8 11 11 11 7 7 9 11 13 23 25 27 26 24 22 22 20 16 14 13 12 11 9 9 10 9 9 10 11 12 10 8 10 13 16 16 19 19 17 18 16 10 9 9
6 7 9 10 11 13 6 13 9 11 4 5 14 15 26 25 26 25 23 22 22 20 18 14 13 11 10 11 12 12 10 10 12 14 12 11 12 14 15 16 18 18 16 15 13 12 10 11 7
9 8 7 7 10 11 9 5 22 20 9 7 10 17 30 27 25 23 22 20 20 20 17 16 13 11 11 11 13 13 12 13 14 13 12 12 13 14 15 15 17 17 15 14 13 11 7 5 6
6 6 5 3 5 3 4 3 11 16 10 6 9 25 30 27 25 24 23 21 19 18 17 15 13 11 11 14 13 13 13 13 13 13 12 13 14 13 13 14 15 16 16 14 12 9 8 7 7
9 5 3 1 1 2 4 4 11 17 12 8 15 29 32 26 24 24 22 21 18 18 16 15 12 12 10 12 12 11 12 12 12 12 12 14 15 14 13 12 13 14 13 11 8 9 8 8 8
9 6 3 2 3 4 5 6 9 20 15 12 19 32 28 25 24 24 22 20 19 18 17 15 13 11 10 11 11 9 11 11 11 11 12 12 12 11 13 12 13 13 11 10 9 8 8 8 8
10 5 3 3 10 8 9 6 5 16 10 14 24 30 26 25 23 20 20 19 18 17 18 16 13 11 10 10 11 11 12 10 10 10 11 10 8 8 11 12 13 9 8 9 10 10 7 7 8
11 9 9 8 10 7 8 4 8 16 11 14 23 29 26 24 21 21 19 19 18 18 16 16 14 12 10 9 11 11 10 9 8 10 8 7 5 8 9 10 9 9 9 10 8 8 7 7 8
16 15 12 10 9 7 8 6 13 21 16 13 23 25 25 24 23 21 19 18 19 18 17 15 14 12 11 10 9 9 9 7 8 9 7 6 6 6 8 8 8 9 11 10 8 7 7 8 7
20 15 14 12 9 10 8 9 9 19 17 12 20 23 25 25 24 21 18 19 21 20 19 18 16 14 12 11 8 9 7 5 5 6 6 5 4 4 6 7 9 9 8 7 6 6 6 6 6
18 16 15 13 13 10 9 9 8 15 18 15 17 20 24 25 25 22 19 18 19 23 21 19 17 14 13 9 9 9 8 4 4 5 4 3 4 3 3 5 6 8 5 8 6 5 6 5 4
17 18 16 13 9 10 10 11 12 9 9 7 10 18 23 25 25 24 22 18 17 19 21 18 16 15 15 12 12 11 9 6 5 4 4 3 4 3 3 5 5 4 8 8 6 5 4 4 4
18 18 16 14 10 9 12 9 13 11 14 8 8 11 19 25 27 26 23 21 20 22 19 17 16 16 16 14 14 11 9 5 5 5 4 4 5 4 4 4 4 3 7 7 6 6 5 3 3
20 15 15 12 14 14 17 10 7 13 21 18 13 12 17 20 27 27 26 25 23 21 20 18 16 15 14 14 13 10 8 7 7 7 4 4 4 4 4 3 3 3 4 5 4 5 7 6 5
13 17 14 13 14 9 15 10 5 5 9 14 14 15 15 22 23 26 27 28 25 24 23 20 19 15 13 12 12 12 11 11 10 8 6 4 6 5 3 2 3 3 4 4 6 8 7 7 6
11 15 14 13 14 16 14 14 7 5 5 5 10 15 17 14 22 24 26 28 26 25 24 24 22 17 13 12 11 10 11 12 10 8 5 6 5 4 4 4 2 4 4 4 6 8 9 9 7
16 20 18 14 12 10 17 11 11 6 4 4 8 16 19 19 18 22 26 29 30 27 27 26 24 20 15 13 11 11 12 13 12 10 8 8 6 5 5 6 5 3 3 3 4 8 9 9 9
24 25 18 13 13 14 11 11 9 7 7 5 8 11 16 20 21 22 22 24 30 31 29 25 24 22 19 17 12 12 13 14 14 12 12 10 9 8 6 7 7 6 4 3 3 4 6 9 11
25 25 11 8 17 13 20 14 13 8 6 6 4 6 12 18 19 24 23 21 24 29 29 26 26 23 21 19 16 13 13 14 15 14 14 13 13 12 9 8 8 7 6 5 5 4 3 5 10
17 22 16 15 14 14 13 19 14 6 9 8 7 6 8 11 12 19 22 21 21 20 24 27 26 26 22 22 20 17 13 14 16 17 15 14 15 15 13 10 9 9 8 8 7 6 6 5 6
16 17 17 15 9 16 10 11 7 7 11 10 8 6 5 6 14 15 19 24 24 21 21 26 28 28 25 25 22 21 19 15 15 16 16 15 16 17 15 13 12 11 10 11 11 9 8 7 6
21 10 18 20 15 12 10 10 9 10 11 10 8 5 4 4 10 19 27 25 21 24 21 22 29 30 27 26 26 23 22 21 18 16 16 17 17 18 18 17 15 14 13 12 14 12 11 10 9

GFSSGP_700_spd_087.txt.gz
Wind_Speed
5 5 4 2 1 2 3 6 12 15 15 15 17 16 11 9 6 9 26 24 24 24 23 20 18 17 15 12 10 8 8 7 5 4 3 3 4 4 4 4 4 5 6 6 7 8 10 12 12
7 6 4 3 3 3 6 13 15 14 18 18 19 16 9 5 8 24 26 24 22 22 20 16 15 14 12 10 9 9 8 8 8 7 6 5 6 4 5 5 5 6 8 8 8 9 12 13 11
4 4 4 2 3 5 9 12 16 19 19 18 19 13 9 13 23 26 24 25 19 20 17 15 13 12 10 10 9 9 8 8 7 6 5 5 6 6 6 6 7 8 9 11 11 11 13 14 12
5 3 4 8 12 12 15 18 21 23 19 12 14 10 10 18 22 23 25 23 20 20 16 14 12 11 10 9 7 6 5 5 4 5 4 5 6 6 7 7 7 9 12 12 13 14 15 13 8
5 4 5 8 13 15 18 18 18 17 18 16 6 12 20 22 22 25 25 21 17 12 15 13 11 10 9 8 6 5 5 5 4 4 5 5 5 5 6 7 8 11 12 12 14 9 10 14 2
8 5 2 9 14 15 17 21 11 15 16 14 10 15 21 25 25 25 23 19 17 11 15 14 11 9 7 6 6 6 5 4 4 5 4 5 6 6 5 7 10 12 14 11 9 12 27 13 8
5 1 2 9 13 15 14 16 16 11 13 15 12 13 24 28 25 24 21 19 18 14 12 13 10 8 7 7 6 5 4 3 5 5 5 5 6 5 6 9 13 15 18 13 23 27 11 9 9
1 2 3 3 7 9 14 15 16 16 13 11 12 12 26 29 27 24 21 18 19 15 9 5 9 9 7 7 7 7 6 7 7 9 8 6 5 7 11 14 16 17 17 23 20 13 11 9 10
3 4 8 5 4 11 14 15 8 8 11 12 9 17 24 28 27 23 22 20 20 19 12 11 12 9 9 8 8 7 7 9 11 12 9 10 9 11 12 17 18 18 16 17 11 9 9 10 11
1 4 7 8 7 11 15 13 15 8 8 10 16 23 25 27 26 23 21 17 14 16 13 8 7 9 8 11 9 9 8 11 11 15 5 13 10 14 15 18 19 16 16 13 10 9 8 15 13
3 5 7 9 11 10 8 13 16 16 9 9 18 22 26 26 24 22 20 18 16 15 11 12 10 12 10 10 8 10 11 11 15 14 12 14 11 16 17 15 16 13 11 10 8 9 7 17 10
4 4 4 5 6 6 6 4 18 20 11 13 17 19 27 26 23 21 20 18 17 16 15 11 12 13 12 14 10 9 9 10 10 12 13 12 9 15 13 9 14 11 6 6 9 3 12 11 12
8 6 4 3 2 3 3 5 12 18 13 12 16 26 28 24 22 21 21 18 18 16 15 12 12 11 12 14 15 11 13 7 11 12 14 14 9 11 14 14 12 10 9 7 4 8 4 11 9
8 6 4 3 4 4 6 12 13 19 10 8 25 30 27 24 22 20 20 19 17 16 15 13 12 12 12 12 13 11 11 9 8 10 11 12 11 9 12 15 13 3 4 8 10 14 11 6 9
10 8 4 4 10 7 10 9 3 21 11 11 29 28 25 23 21 20 18 18 16 16 14 12 12 11 11 12 10 10 12 6 9 9 9 9 10 12 13 12 9 9 7 7 11 7 8 5 7
12 9 13 11 9 7 7 8 15 17 12 16 27 26 24 22 20 19 18 17 17 16 14 13 12 11 11 12 10 12 12 10 7 6 5 6 7 9 10 10 7 6 8 8 10 10 9 8 3
17 17 15 13 10 6 4 16 17 14 14 21 28 24 23 22 19 19 18 17 18 18 16 13 13 11 10 10 11 9 9 6 7 7 1 5 7 7 9 6 7 8 5 6 8 7 7 8 7
22 21 18 12 12 9 11 14 15 18 17 14 26 25 23 22 20 19 18 17 18 19 18 17 15 13 11 10 12 10 9 7 5 5 2 5 6 6 12 5 6 11 2 8 10 9 12 8 9
19 18 17 19 16 13 13 13 15 20 13 17 24 27 26 22 21 18 17 17 19 21 20 19 17 14 12 11 12 10 10 6 4 8 4 4 4 5 5 3 5 5 9 7 8 9 7 5 9
18 24 20 13 15 11 10 15 11 18 16 12 21 22 27 22 22 21 20 16 17 21 21 20 18 16 15 13 14 10 5 4 4 4 3 4 3 4 5 8 7 6 4 7 6 13 9 2 6
19 22 19 14 11 10 14 17 13 17 14 16 12 17 22 24 25 24 21 18 15 19 22 20 19 17 18 16 13 14 15 9 6 5 3 4 3 4 5 6 7 5 6 4 6 8 11 10 3
23 20 18 21 18 18 21 14 19 19 14 14 15 21 20 27 27 25 26 21 15 15 19 20 19 19 19 16 13 13 10 4 4 6 7 3 3 2 3 4 4 7 8 4 6 8 12 6 3
20 19 14 18 21 15 24 13 9 20 14 14 11 15 17 21 26 25 24 23 19 18 20 20 19 19 18 17 19 15 11 11 11 8 9 4 4 3 2 2 4 4 5 2 8 9 10 15 12
9 23 18 15 20 19 18 16 20 20 12 15 12 12 14 19 21 28 27 22 23 20 20 22 21 19 17 15 15 14 15 12 9 10 7 7 5 3 2 0 2 2 3 3 5 7 8 10 13
14 20 19 14 18 12 22 11 8 10 13 11 10 10 15 17 20 20 28 26 24 25 22 22 23 21 18 16 15 14 14 17 17 12 9 9 2 5 3 2 2 1 0 1 1 4 5 8 8
23 29 22 13 14 18 15 14 15 13 12 10 14 7 13 18 23 21 19 33 28 28 26 24 24 22 20 17 15 14 14 14 15 13 13 12 14 9 5 4 3 3 3 2 1 1 3 9 9
26 30 30 19 23 21 19 14 16 13 11 8 11 13 11 18 22 22 27 30 27 33 30 29 24 22 21 19 16 14 13 13 13 13 15 11 17 8 9 6 5 3 4 4 4 2 1 3 7
12 26 28 19 14 16 22 23 18 15 7 10 10 11 13 21 25 16 26 28 39 31 30 26 26 23 20 20 19 16 13 13 13 14 13 15 16 17 16 10 8 6 4 6 6 5 3 3 3
18 17 25 21 24 12 13 13 19 16 13 13 11 10 10 12 29 32 35 32 27 25 28 26 25 26 24 23 22 20 18 15 14 14 15 15 15 14 16 15 11 8 7 6 7 7 9 6 5
12 19 23 22 24 22 7 15 13 15 14 14 13 11 9 11 18 21 20 14 15 35 24 40 26 24 26 27 26 24 23 22 19 16 15 16 16 16 17 16 14 12 10 8 8 9 10 8 8

GFSSGP_700_spd_090.txt.gz
Wind_Speed
5 4 3 2 1 3 4 10 15 20 15 16 14 14 13 8 11 15 27 25 24 22 21 20 19 17 14 11 9 9 8 6 5 5 6 6 6 7 6 6 6 6 6 8 10 13 14 15 15
6 6 6 1 5 5 12 15 22 17 19 16 19 14 7 9 5 25 22 25 23 20 19 17 16 14 12 10 11 10 9 9 9 9 7 7 6 6 6 6 7 8 9 10 12 15 15 16 15
3 8 4 5 4 5 15 17 19 20 20 14 14 13 16 24 23 23 25 25 25 21 17 15 13 11 11 11 11 10 9 9 8 8 7 6 7 7 8 9 9 10 11 12 14 15 18 17 16
4 1 3 6 7 17 26 23 24 21 20 10 11 19 23 21 22 20 21 24 19 18 16 14 13 11 10 10 9 8 8 7 8 7 8 8 7 7 9 8 9 11 12 12 13 13 12 18 15
5 6 9 11 24 25 25 25 20 19 21 21 10 29 24 19 24 21 14 17 12 16 15 12 11 9 9 8 7 7 7 6 6 7 7 6 5 6 7 9 11 13 14 16 15 14 10 12 12
7 11 7 12 25 20 24 30 24 21 14 16 21 29 25 22 26 21 18 10 3 17 15 13 11 9 7 7 7 7 6 5 6 6 6 6 6 6 7 10 13 13 14 12 8 10 6 9 8
7 9 5 10 14 18 20 17 26 16 19 18 19 25 27 26 28 20 13 11 12 15 14 12 10 9 8 7 7 7 6 6 6 7 7 7 6 5 9 13 16 12 10 17 22 18 12 9 8
6 10 5 6 13 15 13 20 17 21 19 19 16 23 30 27 27 20 16 19 12 4 13 12 10 10 10 8 9 9 9 9 10 10 10 8 7 9 13 18 21 23 25 25 14 13 13 12 10
7 3 10 7 7 14 18 15 11 8 17 17 8 23 28 30 25 22 18 20 17 10 2 8 9 9 10 9 8 9 10 13 13 12 13 11 11 11 14 22 21 19 19 17 11 9 13 15 16
9 2 10 6 6 13 17 13 8 11 14 13 25 28 29 28 25 19 29 17 11 10 7 5 7 8 10 10 7 12 11 13 14 13 14 12 15 13 18 20 18 17 13 8 13 20 18 15 15
2 6 9 11 10 9 16 13 17 16 17 23 31 30 30 27 24 14 11 12 20 15 11 12 7 9 15 8 7 10 11 13 13 11 10 15 16 15 16 16 15 13 13 10 13 17 18 16 12
6 5 5 8 8 10 3 9 19 17 25 20 24 26 28 25 23 18 13 16 17 12 9 5 10 10 13 6 8 3 12 14 10 11 12 11 18 12 11 15 11 11 12 5 11 18 12 16 12
10 3 6 7 8 2 1 7 17 17 15 29 24 27 26 24 22 20 17 14 12 12 11 11 12 10 13 9 11 9 11 10 10 11 12 12 18 12 9 3 7 5 10 5 12 21 17 14 11
14 8 6 6 8 4 2 9 17 18 17 24 25 27 26 23 22 22 19 21 13 6 5 9 14 15 12 12 15 12 8 4 9 9 7 11 14 16 18 13 8 8 7 10 10 13 10 13 8
11 8 8 9 11 2 12 14 10 17 14 22 28 28 25 23 22 22 17 19 20 17 16 10 13 12 14 15 11 12 9 8 12 8 6 6 9 11 12 10 9 7 11 8 11 13 10 12 12
12 12 10 13 12 10 6 9 14 16 12 32 31 28 24 23 20 21 18 15 19 16 15 9 12 12 14 12 10 12 11 6 10 8 6 6 6 7 10 9 9 9 6 9 10 13 7 6 8
18 17 21 17 16 16 7 16 21 18 19 31 30 27 24 23 22 21 17 17 15 22 12 13 11 11 12 12 10 9 11 8 7 9 7 7 6 5 9 7 7 7 8 8 8 10 10 10 11
22 24 19 21 13 19 14 13 21 23 25 33 31 27 24 23 20 21 19 19 20 18 14 16 12 11 13 13 12 10 12 6 9 7 8 9 5 4 4 12 8 8 7 8 5 10 8 9 14
19 19 22 13 15 15 18 21 23 25 30 32 30 31 26 25 20 19 19 18 18 18 18 17 15 13 13 13 14 11 8 7 9 4 7 7 5 0 5 9 6 5 7 7 8 11 6 8 12
25 20 23 15 10 15 21 15 25 23 22 23 25 34 33 28 23 21 20 19 18 18 19 18 15 15 14 14 17 12 13 8 7 5 5 4 6 4 2 6 7 9 6 7 5 6 7 14 12
24 22 21 17 18 22 14 24 26 18 17 15 26 31 31 29 28 23 23 21 21 18 19 18 16 16 16 16 17 12 11 8 12 5 5 6 7 8 3 5 1 7 7 8 7 7 8 11 10
25 19 16 11 27 21 20 14 22 22 21 20 23 28 29 30 29 28 27 26 18 19 16 20 18 18 17 16 19 14 11 11 8 5 4 8 7 7 5 8 8 7 5 7 9 10 15 9 15
26 18 15 30 18 19 22 11 17 20 18 18 19 22 25 35 33 30 25 20 18 22 14 21 21 20 19 18 17 18 18 13 11 9 6 3 6 8 6 9 7 5 3 4 6 14 12 15 14
25 13 11 16 17 19 22 17 23 25 18 22 20 21 24 34 33 34 25 20 17 25 16 19 20 20 21 20 19 17 16 16 17 10 7 5 6 4 5 7 6 6 7 4 3 7 11 13 14
24 18 18 12 13 13 28 23 7 16 22 25 23 16 19 22 30 31 30 26 24 29 22 19 20 21 22 20 19 17 16 14 17 9 10 9 5 6 3 4 4 3 4 6 5 5 5 7 8
25 26 21 16 13 15 21 14 13 12 9 14 21 10 21 24 27 28 27 28 29 30 28 19 21 22 22 21 20 19 18 17 12 13 12 9 8 3 3 2 1 2 2 3 4 3 4 7 6
27 27 23 22 24 22 13 20 20 24 27 30 25 25 16 14 26 25 26 28 28 31 31 26 19 23 22 20 19 19 18 18 17 17 14 14 11 7 7 6 5 3 3 2 2 2 3 2 4
17 22 26 32 15 14 20 28 31 22 23 28 28 27 24 23 21 33 32 37 31 38 36 27 24 23 23 21 19 18 17 17 17 16 16 16 13 9 11 9 8 5 5 4 2 1 2 2 1
16 17 24 27 27 11 7 8 25 22 17 21 21 20 22 27 26 28 27 34 38 40 41 42 29 23 27 25 23 21 17 16 15 15 13 12 11 11 11 9 9 5 6 4 4 4 4 2 2
23 20 21 25 25 3 7 1 11 15 16 16 17 18 20 24 29 26 20 18 21 30 28 37 29 34 29 27 25 23 22 20 18 15 14 13 11 12 13 11 11 9 11 8 7 6 6 5 5

GFSSGP_700_spd_093.txt.gz
Wind_Speed
6 6 4 5 2 1 10 16 21 23 29 23 19 22 18 11 13 16 30 27 23 21 21 21 18 16 14 11 10 9 7 6 5 6 8 10 10 10 10 10 9 10 13 15 15 16 17 18 17
5 7 8 2 0 1 14 28 21 19 21 22 18 17 14 14 6 28 32 28 23 21 19 17 15 12 11 10 10 10 10 10 10 11 11 10 10 10 9 10 10 12 14 16 17 17 17 19 18
5 6 2 3 3 16 24 24 14 17 11 11 11 4 11 16 23 28 28 27 23 19 17 14 13 11 11 11 11 11 12 10 10 11 10 10 11 10 11 10 11 13 15 16 19 20 17 18 19
4 3 4 6 9 14 25 24 21 19 13 6 9 20 18 12 24 28 28 25 22 19 16 14 13 13 11 10 9 9 9 9 10 10 10 10 9 10 10 11 13 15 16 16 15 18 19 18 19
6 8 2 4 3 25 28 23 22 19 16 10 12 28 23 11 21 27 25 24 19 19 16 14 13 12 10 8 8 9 8 9 9 9 9 9 10 10 11 12 15 16 16 16 13 16 18 17 16
5 8 17 16 24 33 32 24 18 20 14 21 21 29 21 16 18 19 18 19 16 15 15 13 11 10 9 9 8 8 8 9 9 9 9 10 10 10 11 12 16 18 15 14 11 13 15 17 14
7 12 9 19 25 28 28 27 24 15 22 26 23 29 25 20 15 16 12 16 17 14 14 12 10 10 9 9 8 7 8 9 9 10 9 10 12 12 14 13 16 16 11 18 9 7 14 14 13
12 12 13 13 22 24 26 20 31 28 26 15 17 29 34 30 20 12 9 24 18 16 11 11 10 11 10 10 10 11 12 12 13 11 11 15 17 16 20 18 19 22 21 17 15 12 11 13 14
12 6 6 9 15 22 16 25 19 23 29 19 9 26 29 23 17 16 15 18 19 15 13 12 10 12 12 12 11 12 14 16 14 15 14 19 20 19 21 20 20 23 16 13 15 15 13 13 14
18 1 9 7 7 19 24 19 11 17 24 17 25 31 30 28 14 17 13 14 11 11 11 12 12 11 14 13 12 13 14 14 17 13 14 20 23 20 19 14 15 17 15 12 17 17 24 19 16
4 13 6 12 12 16 19 16 11 19 18 11 27 40 37 31 13 12 15 15 12 13 9 10 11 14 13 13 10 16 13 12 14 14 14 21 23 20 18 14 13 11 12 16 11 14 20 23 25
9 9 9 6 10 12 11 11 19 17 32 28 22 38 34 26 20 9 14 14 14 8 5 7 13 15 12 9 7 15 12 13 16 11 13 22 20 16 13 13 9 14 14 15 13 13 16 20 18
7 2 9 7 5 9 4 12 19 24 28 33 27 36 34 22 16 10 15 13 9 4 7 12 9 10 10 7 15 15 13 16 14 12 13 16 15 10 19 12 10 19 14 14 16 15 17 13 11
11 6 5 16 2 7 5 12 19 20 25 34 28 33 30 25 20 15 8 19 6 10 10 10 6 12 9 14 15 11 9 10 10 13 15 13 14 16 13 13 16 15 18 15 18 17 18 11 11
9 9 14 17 8 6 7 17 17 25 34 33 27 31 29 26 22 20 14 16 11 10 10 7 11 12 10 7 9 6 12 15 11 11 11 14 14 11 14 11 11 21 15 13 13 18 16 15 12
8 7 6 25 14 8 3 14 20 26 34 31 33 32 30 26 23 19 19 18 16 12 9 11 13 11 13 9 9 9 15 12 10 11 10 10 9 12 11 10 11 13 14 11 13 15 15 13 15
21 14 18 23 18 10 7 15 18 23 31 35 35 33 31 29 26 25 25 14 15 12 9 13 14 13 13 10 10 9 11 14 9 7 6 9 8 9 8 7 12 13 12 10 11 14 14 14 14
20 23 16 19 12 20 11 9 24 23 31 38 37 34 31 29 23 20 19 20 20 16 12 12 16 13 13 12 13 11 11 11 17 13 8 7 10 7 8 8 13 11 9 11 14 14 14 15 14
20 20 24 20 12 19 17 13 26 24 38 37 35 33 32 28 26 26 19 21 19 15 17 13 13 13 12 13 11 12 10 9 12 9 8 9 11 6 5 6 9 8 12 12 11 11 15 15 17
24 24 15 16 19 15 28 20 25 28 37 39 35 33 33 30 26 25 26 21 19 13 17 13 11 12 12 13 16 12 10 11 12 11 9 5 10 7 7 6 6 8 11 10 13 10 14 14 14
27 25 19 24 17 16 11 8 13 27 36 37 38 34 33 32 26 25 23 22 19 13 17 13 13 13 13 13 13 13 13 8 8 8 9 7 10 9 8 9 9 8 8 11 11 10 12 14 16
25 18 20 15 15 14 17 1 10 24 32 37 40 39 37 33 29 25 21 21 16 11 11 17 15 15 15 14 15 15 7 11 11 10 10 8 6 10 7 6 8 12 10 6 13 14 15 12 18
26 20 16 15 18 12 27 10 21 30 28 27 33 41 39 35 34 30 24 24 20 13 11 14 17 17 17 15 13 13 15 15 12 12 10 9 7 8 8 9 10 9 6 6 11 11 8 13 17
19 18 9 10 16 5 22 16 19 32 28 24 22 29 32 35 34 30 30 22 21 18 10 7 16 19 18 17 15 17 17 12 10 12 9 11 12 11 10 9 11 8 9 10 7 14 12 16 15
19 16 10 3 6 8 20 29 7 26 23 19 26 27 25 30 36 32 33 28 25 22 13 9 12 19 20 19 20 18 15 10 10 10 10 11 11 11 10 10 8 8 9 8 7 8 9 13 10
20 16 15 7 5 11 12 10 9 26 19 15 23 30 27 29 40 36 33 30 23 26 18 13 10 15 19 20 20 20 17 15 13 12 10 15 12 11 10 8 9 9 7 7 8 8 9 11 12
22 24 24 22 24 12 10 13 23 24 27 24 18 18 28 29 32 35 36 31 27 28 26 17 12 11 17 19 19 19 19 18 19 14 13 13 8 10 8 6 5 6 9 7 7 7 7 8 10
20 10 14 10 4 4 7 11 12 19 24 23 22 20 30 27 31 29 32 29 34 37 30 24 20 13 14 18 18 18 18 16 16 16 15 12 13 11 9 5 4 5 4 7 6 5 6 6 6
23 18 9 9 11 5 5 3 12 26 28 30 30 30 27 23 26 19 35 41 39 35 37 32 29 23 21 19 18 18 18 17 16 15 16 13 13 9 6 9 8 6 4 4 5 4 6 4 5
13 14 12 12 8 9 10 5 16 14 17 27 27 29 26 22 21 20 25 25 19 29 29 30 36 31 25 24 25 22 19 18 16 15 15 14 14 13 10 10 9 8 7 5 2 3 4 3 2

GFSSGP_700_spd_096.txt.gz
Wind_Speed
7 6 5 3 0 5 17 16 15 16 22 19 19 18 16 13 16 6 28 27 24 20 20 18 17 15 13 13 11 9 8 7 6 8 10 10 10 10 11 11 12 14 14 15 15 15 16 18 19
4 4 5 5 4 12 16 13 21 24 29 25 20 21 16 12 5 25 29 26 23 21 20 19 16 13 11 11 10 10 9 9 11 12 12 11 11 11 11 13 15 16 15 16 17 16 17 18 20
3 3 6 5 8 20 18 21 26 27 27 23 26 18 13 8 20 27 25 27 24 21 18 14 13 13 13 13 13 13 11 11 11 11 12 12 12 13 12 14 16 17 17 18 19 18 17 17 19
2 4 3 2 8 17 14 18 22 23 17 14 16 17 17 17 26 24 26 25 22 19 16 13 13 13 13 12 11 10 10 11 11 12 11 12 12 12 13 15 17 19 18 19 20 17 17 17 17
1 5 6 10 13 18 17 20 19 17 13 10 11 20 25 28 26 23 23 22 18 18 16 14 14 11 11 11 10 9 9 10 10 11 11 12 12 12 14 17 17 18 15 16 17 17 16 15 17
2 7 7 17 26 18 23 20 16 13 6 11 11 29 28 25 25 25 22 19 16 14 16 13 12 10 9 10 10 9 9 10 10 10 12 13 12 14 17 19 18 18 15 14 14 15 16 16 16
6 1 7 6 26 28 27 20 14 14 9 17 17 32 32 28 26 25 21 19 17 14 13 12 10 11 9 8 8 9 11 11 11 11 10 14 15 15 18 19 18 14 12 10 9 13 15 16 17
9 1 4 10 21 21 22 20 19 14 16 17 13 27 33 30 27 21 21 20 16 14 12 10 10 11 11 9 9 12 14 14 12 13 14 20 19 18 19 21 18 21 16 15 11 13 14 17 20
6 5 21 25 32 26 21 25 24 20 21 15 6 21 28 25 24 23 23 21 18 16 12 11 11 12 12 12 14 15 16 15 15 17 18 23 21 21 24 26 21 15 15 15 14 14 15 20 21
8 4 7 11 16 29 24 17 20 25 24 18 22 27 21 22 22 18 23 21 15 14 13 12 11 12 14 14 17 17 17 15 15 16 19 22 22 21 22 20 16 12 10 15 16 13 15 21 21
5 7 13 6 10 22 24 23 15 28 28 8 30 31 21 17 17 14 21 14 12 13 13 13 13 11 15 13 16 16 12 14 16 15 17 21 20 16 15 15 12 13 19 15 15 16 16 17 14
6 4 14 12 14 21 24 20 17 22 13 22 26 28 24 18 12 10 15 12 13 12 11 12 13 13 16 11 13 13 15 15 18 18 19 20 17 17 16 15 12 10 10 13 13 20 18 12 12
6 8 8 17 13 15 18 17 23 22 20 37 30 30 26 16 10 7 8 11 8 6 8 13 14 15 12 10 13 14 16 15 16 17 16 17 13 17 16 13 10 9 10 12 10 14 13 13 19
8 5 2 16 10 11 11 18 20 25 29 40 33 28 24 18 13 9 10 11 10 7 7 8 11 11 14 13 14 13 14 18 15 14 15 18 15 10 13 19 12 14 16 15 14 13 9 8 16
9 8 7 17 13 7 15 19 15 28 30 37 33 28 23 21 15 8 6 10 7 4 5 3 9 12 14 12 9 12 14 14 13 13 11 18 16 15 15 13 15 17 16 17 14 15 17 15 10
14 11 11 14 15 13 7 17 18 25 35 34 35 31 27 28 17 12 10 8 6 3 8 8 9 10 11 10 11 13 15 16 14 12 12 11 14 12 14 13 12 16 16 16 11 15 16 16 16
14 13 14 21 18 11 5 15 20 28 33 29 38 34 28 21 20 22 13 12 9 3 8 7 10 6 11 10 11 9 13 14 12 10 9 9 11 11 8 13 13 13 13 14 15 17 18 14 14
11 16 12 13 14 15 5 6 27 33 33 31 36 33 26 25 22 19 17 13 16 7 9 10 11 10 11 9 8 10 9 10 6 10 10 10 8 7 7 10 11 10 14 12 14 13 15 13 15
15 9 8 14 14 10 3 4 25 30 33 33 36 35 27 27 23 18 16 17 15 11 10 11 12 11 12 11 9 11 12 13 11 10 11 9 7 8 7 10 10 10 11 11 12 15 13 15 21
16 10 4 7 8 10 8 3 17 29 30 36 37 37 28 31 27 23 21 18 14 11 12 10 13 10 11 14 13 10 9 9 8 9 9 7 5 7 9 9 6 10 11 11 9 13 15 18 19
17 15 15 11 17 20 6 5 16 22 27 35 37 34 28 32 30 26 23 20 15 11 11 11 11 12 12 11 12 12 12 11 7 5 7 8 8 7 9 11 11 10 13 13 13 12 14 15 16
17 10 17 20 22 18 14 11 24 21 31 37 39 35 32 33 29 25 22 19 15 9 7 12 13 13 13 11 13 14 13 13 8 6 7 11 8 6 6 10 11 10 13 12 12 13 16 14 11
19 10 13 20 26 14 23 5 11 21 32 39 41 35 33 35 32 28 24 17 11 7 4 9 14 15 14 14 14 13 7 11 12 9 10 11 10 6 6 8 13 11 8 12 12 11 15 13 16
13 17 17 17 17 6 23 11 17 16 22 41 43 37 36 34 30 28 24 20 15 13 8 9 9 16 15 15 15 13 12 15 12 11 9 9 11 10 11 10 11 9 11 13 17 12 12 17 18
22 16 6 3 3 7 23 16 9 17 31 24 36 39 42 36 34 30 30 28 21 18 13 11 6 12 17 15 16 15 15 12 12 15 11 10 10 9 10 9 8 8 9 12 12 16 13 17 18
16 17 8 5 4 2 15 8 10 23 32 26 30 31 41 39 41 38 30 30 28 21 16 13 7 7 15 16 16 18 18 14 15 13 13 12 11 10 9 9 8 6 7 8 9 13 18 18 15
15 14 12 9 8 3 3 4 9 33 32 32 30 26 28 32 32 34 38 29 29 26 20 15 11 6 10 13 18 16 17 15 12 12 10 17 13 13 10 8 7 6 6 6 5 8 12 17 15
20 17 7 7 4 2 3 9 11 28 32 38 32 23 27 24 27 34 39 35 30 30 27 24 19 15 9 12 15 16 16 16 16 18 12 13 13 11 9 7 8 6 5 5 6 6 6 7 12
15 14 7 2 4 8 4 3 9 24 26 29 29 26 31 29 32 34 40 37 36 34 32 32 28 24 21 18 20 20 17 15 17 17 16 14 12 10 9 9 9 7 7 5 6 5 7 5 6
13 16 13 3 2 3 8 5 17 20 20 18 28 23 23 21 27 27 29 37 36 31 37 37 35 29 26 23 20 19 19 18 16 16 17 15 13 14 11 10 9 12 10 7 5 7 6 6 5

GFSSGP_700_spd_099.txt.gz
Wind_Speed
5 5 5 3 2 4 9 8 12 16 26 23 19 14 12 8 16 5 24 23 23 20 19 16 14 11 11 10 9 8 6 5 5 6 8 9 9 8 9 10 11 12 13 15 17 17 17 17 17
4 4 5 4 7 9 9 13 16 21 25 22 17 12 11 17 2 17 26 24 23 20 16 15 13 12 11 10 8 7 6 7 9 10 9 10 9 11 11 11 11 13 14 15 17 17 18 17 16
3 4 5 5 18 15 9 11 21 25 22 25 16 14 11 6 10 23 23 24 21 19 18 15 12 10 10 10 10 10 9 10 10 11 11 10 12 13 14 14 14 14 15 16 16 16 16 16 13
4 4 3 3 18 6 12 22 22 27 23 22 16 16 11 15 25 22 24 23 22 19 15 13 13 12 12 12 11 10 10 10 10 10 11 12 13 13 15 16 17 18 18 17 17 17 15 16 15
2 4 7 10 21 12 22 25 23 25 22 19 19 14 16 27 23 22 21 21 18 16 14 13 13 11 11 10 9 9 9 10 9 8 9 12 12 15 17 18 19 18 16 17 18 16 14 14 15
5 6 5 22 18 10 24 23 21 20 16 18 19 19 26 27 23 22 21 19 16 12 12 12 10 9 9 9 8 8 9 9 9 9 10 12 14 17 17 17 16 17 17 15 15 17 15 15 17
6 2 4 16 16 19 27 23 16 12 8 12 15 24 32 30 23 22 20 18 16 13 11 10 9 9 8 8 8 9 9 9 9 9 12 13 17 18 17 17 15 13 12 12 13 16 16 16 16
8 9 9 14 22 25 29 22 17 10 9 15 26 32 36 31 26 23 20 18 16 15 12 9 9 8 8 9 10 10 10 9 9 12 15 17 20 20 18 14 11 10 11 10 12 14 15 18 17
7 6 23 21 24 24 22 20 18 13 16 18 9 27 32 30 25 22 21 19 17 15 13 11 8 9 10 11 13 12 13 11 13 17 20 20 21 21 18 18 16 15 12 11 13 14 17 18 16
3 2 23 12 20 28 19 18 17 22 20 18 31 32 30 27 22 21 21 18 16 13 13 12 10 11 12 14 15 13 10 12 14 18 21 22 22 22 18 15 13 14 14 12 11 14 19 17 16
5 8 19 14 15 17 18 22 17 17 17 16 31 29 29 23 23 19 19 14 13 12 12 12 11 13 15 15 15 13 11 14 14 17 19 19 20 19 15 12 13 16 11 12 13 17 19 17 13
11 0 3 11 19 21 25 14 19 12 16 17 23 21 24 22 22 21 12 13 11 11 10 12 11 12 16 14 13 14 13 15 17 16 17 16 14 13 12 11 14 12 11 11 11 13 13 13 12
5 8 8 9 18 21 22 18 15 20 19 26 22 22 22 18 20 15 11 14 9 9 8 11 10 10 13 14 12 15 13 15 17 18 17 16 15 14 11 10 11 11 10 10 11 9 8 14 13
1 3 4 10 15 19 27 18 16 25 19 27 24 21 18 16 15 16 13 9 8 9 7 9 7 9 12 13 13 13 14 15 14 14 16 20 14 10 10 10 11 9 11 10 9 8 14 13 14
9 9 8 14 11 13 20 17 19 21 27 30 25 25 17 14 11 12 9 6 5 9 10 8 8 8 11 9 10 13 15 15 13 11 13 14 14 14 8 10 14 16 13 12 10 11 13 15 15
13 9 9 15 12 9 17 17 18 23 30 34 27 24 24 14 12 10 8 7 3 5 5 8 12 8 10 7 10 13 14 14 16 14 11 11 10 11 12 12 11 13 12 8 12 11 12 14 17
11 7 12 14 16 14 11 16 18 31 36 33 26 24 22 20 18 13 7 4 1 4 1 4 10 9 9 11 13 13 12 12 12 14 11 11 9 8 9 10 13 11 11 9 14 16 13 10 11
7 6 10 13 22 17 7 8 24 35 43 33 30 26 23 25 13 14 9 6 3 5 5 3 7 10 11 9 11 10 12 10 10 12 11 12 10 9 9 11 10 9 11 13 13 13 11 11 13
8 5 2 10 15 14 10 3 25 34 36 34 34 30 27 18 18 16 9 9 7 8 7 4 6 8 10 9 8 8 8 11 11 8 7 9 9 9 8 10 11 10 9 10 9 10 10 12 17
12 2 1 6 15 12 8 3 17 30 33 38 38 34 28 26 23 17 16 12 9 7 7 6 6 6 8 10 10 10 9 8 7 6 7 7 7 7 9 11 9 8 10 10 10 10 12 14 15
15 10 5 4 13 16 4 10 15 26 35 36 41 33 28 24 26 22 19 12 10 3 5 5 9 8 9 10 10 8 10 11 9 6 4 5 6 8 8 8 8 9 9 10 9 10 13 14 14
19 12 7 12 17 8 15 6 23 27 31 29 40 34 32 26 25 22 18 14 8 4 5 6 10 11 11 10 11 11 10 11 8 6 5 4 5 9 8 8 7 8 11 11 9 11 12 12 10
19 9 11 14 20 11 17 6 10 27 33 32 38 40 34 28 26 26 22 14 3 4 4 3 9 12 11 10 12 13 8 9 8 8 8 6 6 8 10 9 8 7 10 13 12 13 13 12 10
11 5 5 11 16 6 18 13 13 25 30 29 39 45 37 33 30 30 22 16 10 8 6 4 5 12 12 11 12 14 11 11 10 7 8 8 7 7 8 10 11 9 9 10 13 12 14 12 13
11 12 3 2 3 6 12 14 2 14 18 25 37 44 40 33 31 33 29 23 17 13 8 6 6 8 13 13 13 13 11 13 13 11 9 8 6 5 4 6 9 9 10 9 12 12 13 13 17
10 17 10 5 4 1 10 8 9 19 20 10 29 39 41 34 38 34 30 28 22 17 13 11 11 9 10 14 14 14 13 15 12 14 9 11 10 8 6 6 7 5 7 10 9 13 16 14 17
13 19 18 7 5 5 9 10 11 13 26 29 34 47 43 37 33 32 32 27 29 25 18 14 14 9 6 11 15 16 16 16 13 14 14 14 13 11 9 7 5 5 4 4 7 10 13 15 18
16 13 10 8 5 3 3 5 9 17 28 35 31 34 47 43 35 36 36 32 27 28 24 23 23 17 11 11 16 19 18 19 17 15 14 11 14 10 10 10 9 8 6 5 4 6 8 10 15
15 17 12 8 4 6 4 3 5 19 30 32 35 34 33 33 41 36 40 38 32 27 27 27 29 23 18 16 16 19 21 20 18 18 16 10 12 14 13 11 8 8 8 8 7 6 6 7 9
15 16 18 9 5 6 8 3 8 13 27 32 31 29 30 30 27 32 32 31 33 33 27 29 29 25 24 22 19 20 21 21 20 18 16 16 14 15 15 13 10 12 10 9 9 10 8 9 8

GFSSGP_700_spd_102.txt.gz
Wind_Speed
1 2 3 3 1 2 6 8 8 19 23 20 21 15 15 8 9 5 22 20 19 18 16 16 13 10 9 8 7 5 5 5 5 6 7 7 8 9 10 12 13 15 15 17 17 17 17 16 16
2 4 4 2 2 5 6 9 13 20 21 21 14 12 9 15 4 15 21 22 19 16 14 12 11 9 8 6 5 4 4 6 7 8 8 8 9 9 10 11 13 15 16 17 18 18 16 15 14
2 4 4 3 4 7 6 13 20 22 20 18 11 10 12 4 10 19 20 20 19 15 13 11 9 9 9 7 7 6 7 8 7 8 9 9 10 11 11 12 13 14 16 17 17 16 15 16 15
3 5 4 3 12 5 7 15 23 24 18 16 9 9 7 4 21 18 20 18 16 14 12 9 9 9 10 10 9 9 8 8 8 8 9 10 12 13 13 13 15 16 15 16 16 16 15 14 14
4 2 4 11 16 6 13 15 24 19 18 20 10 5 11 24 20 19 19 18 15 12 10 10 10 9 9 8 8 9 8 8 8 9 9 10 11 13 15 17 17 17 17 16 14 15 14 15 14
4 5 6 14 25 12 18 20 21 18 11 14 14 12 21 24 20 21 20 18 16 11 10 9 8 7 7 8 7 8 8 7 7 8 11 12 14 15 16 16 15 15 17 14 13 15 15 15 14
6 5 5 13 19 16 26 24 21 18 16 18 17 20 23 26 23 21 20 18 15 13 10 8 6 7 7 8 7 8 8 8 9 10 12 14 15 15 15 14 14 13 13 13 12 14 15 13 13
10 2 2 14 19 29 25 25 19 16 14 14 15 23 30 28 26 21 21 18 15 13 10 8 7 7 7 8 9 7 8 9 10 12 15 16 16 16 14 15 13 11 12 13 12 13 15 13 12
5 2 7 16 18 21 28 22 19 14 14 17 21 24 28 28 24 21 20 18 15 12 11 10 9 8 9 10 10 9 8 11 13 16 19 19 17 16 13 11 10 9 10 11 12 15 13 13 12
6 11 10 19 13 25 22 21 18 19 17 20 19 31 28 24 21 18 17 16 13 11 11 11 11 10 12 12 12 10 10 13 17 17 18 18 18 16 15 13 12 11 11 12 14 16 14 13 12
6 12 12 6 15 20 21 21 17 19 18 11 21 30 26 23 20 16 15 15 13 11 11 11 11 13 14 12 11 11 12 12 18 18 18 18 17 13 11 10 13 11 10 12 14 15 14 13 14
9 2 6 10 18 24 17 19 25 15 12 15 18 22 23 22 22 18 12 12 12 11 10 10 11 14 13 12 11 12 13 16 19 19 18 17 14 11 10 16 14 13 10 12 17 15 12 14 14
9 6 6 8 15 22 22 18 16 21 19 24 20 22 22 26 23 17 15 11 11 11 10 9 11 13 13 10 12 13 16 18 19 18 15 14 14 12 12 11 8 11 11 12 10 10 12 12 13
7 6 6 7 18 18 25 20 21 22 26 28 24 24 21 25 17 16 15 9 8 8 12 10 8 13 14 11 12 12 16 17 16 15 14 12 9 7 11 8 8 8 9 10 10 12 13 11 11
10 8 1 7 12 17 26 18 16 32 31 31 26 25 22 21 16 14 12 9 8 7 10 9 9 13 13 12 11 12 14 14 15 14 16 9 10 13 11 11 11 10 9 7 7 8 11 9 10
8 6 9 9 8 5 14 14 13 17 25 34 27 24 21 20 18 13 15 11 9 7 5 9 10 12 11 11 11 11 11 13 14 15 13 12 10 9 12 13 13 11 10 8 10 12 13 9 11
11 4 7 13 10 6 14 7 15 18 25 32 31 23 21 20 19 14 11 12 11 9 5 6 9 8 8 11 13 12 11 11 13 14 13 11 11 11 10 10 9 8 7 8 10 14 15 12 12
11 7 6 7 13 11 13 7 14 19 28 30 29 26 23 21 19 14 11 10 9 5 6 3 7 9 9 12 10 10 10 13 11 10 11 11 9 9 9 10 9 7 8 8 10 9 11 13 13
11 9 9 12 13 12 11 9 16 28 31 31 28 26 26 22 14 16 13 13 2 2 3 3 8 8 8 7 8 8 9 9 11 9 8 9 9 6 9 9 8 6 8 8 7 6 9 12 13
13 7 9 11 14 11 6 2 25 31 30 27 31 26 23 17 19 15 12 8 2 2 2 4 7 8 9 9 9 10 8 8 10 9 8 9 9 9 9 9 7 8 9 7 6 6 8 13 13
14 10 7 7 17 12 4 4 18 36 33 28 29 29 25 21 19 16 14 10 4 0 3 5 6 8 9 10 8 8 8 7 7 6 4 4 6 8 9 9 8 10 9 9 8 7 11 12 12
16 10 4 7 14 7 17 9 17 24 31 35 37 32 29 25 21 19 13 10 3 3 2 5 7 6 7 8 8 7 10 10 7 6 6 5 4 6 8 9 9 10 11 11 9 10 9 12 12
15 12 6 5 14 9 22 4 9 26 30 35 27 36 35 31 24 23 15 8 4 4 4 4 7 7 6 7 8 10 8 8 6 6 6 6 4 5 7 10 10 8 10 9 9 10 11 10 10
16 17 12 6 11 5 16 16 8 29 32 31 37 38 39 34 27 21 17 13 9 7 6 3 4 7 7 7 8 10 9 6 6 6 7 5 3 3 6 8 8 7 8 10 10 11 11 11 8
16 20 7 3 4 6 6 15 13 11 23 30 31 38 40 34 31 24 26 22 15 10 6 3 3 3 6 9 10 11 13 9 9 8 7 5 4 4 3 5 6 8 6 7 11 10 13 12 10
18 26 13 5 5 3 7 8 5 13 18 23 28 34 41 33 31 30 28 26 20 14 10 8 4 1 2 9 10 11 12 11 12 10 7 6 7 7 5 5 5 4 6 8 9 13 11 12 12
22 29 24 8 6 4 6 7 8 19 18 25 30 32 42 39 35 24 26 30 27 22 20 14 9 10 4 6 13 13 12 12 14 10 11 8 8 8 6 6 5 4 3 5 8 11 12 14 13
14 22 21 11 5 3 4 5 8 15 26 22 27 35 43 43 40 34 29 28 33 26 25 23 21 21 12 9 14 17 16 16 17 12 12 11 11 11 9 8 7 7 6 5 5 5 6 10 14
20 19 15 17 7 7 4 5 10 11 24 31 28 36 37 39 39 38 33 30 32 27 31 27 26 27 18 17 14 18 19 20 21 17 15 14 11 14 10 10 10 9 8 7 6 6 5 7 8
17 19 20 13 7 6 7 6 11 9 17 31 32 25 25 30 38 34 30 28 31 25 23 28 29 30 27 19 21 20 23 23 22 20 20 19 14 11 14 13 11 12 11 9 8 9 9 8 8

GFSSGP_700_spd_105.txt.gz
Wind_Speed
2 2 1 3 3 6 9 7 13 21 22 16 21 23 11 10 8 8 24 20 18 16 14 12 13 10 9 9 7 7 7 7 6 8 9 9 11 12 12 13 15 16 17 18 17 16 16 16 16
3 2 2 2 5 8 8 11 16 20 19 22 16 16 9 9 6 21 21 20 18 15 12 11 10 10 7 6 5 6 7 8 9 9 10 11 12 11 12 12 14 16 17 18 17 16 15 15 15
4 5 4 5 6 7 9 15 21 20 19 16 15 13 11 5 18 20 20 18 17 14 12 10 10 8 6 5 5 6 8 8 8 9 10 12 12 11 12 12 15 15 16 16 16 16 16 15 15
3 4 6 7 9 6 11 18 21 19 17 10 11 11 7 9 21 20 20 18 15 13 10 8 9 8 8 8 6 8 7 7 8 9 11 12 13 12 12 12 14 15 15 14 15 15 14 14 14
4 6 3 7 12 8 12 21 18 19 17 13 10 5 8 21 21 20 20 17 15 12 10 10 10 10 9 7 7 7 7 8 8 9 12 12 12 12 13 15 15 15 14 12 13 14 14 14 13
5 5 4 11 16 12 17 21 22 17 12 11 7 7 19 21 20 20 20 18 16 11 11 10 9 9 8 8 7 7 7 6 7 9 10 13 12 14 16 17 16 15 12 12 12 14 14 13 13
6 6 3 9 19 17 20 21 22 15 12 13 11 14 21 21 20 21 20 18 15 13 11 9 8 8 8 8 7 8 7 7 9 10 11 12 16 14 14 15 14 12 12 12 12 13 13 11 11
2 5 3 8 22 24 23 22 20 16 15 12 13 18 20 24 21 20 19 17 15 12 10 9 9 8 7 7 7 6 7 8 11 10 11 13 15 16 13 11 12 11 11 12 12 13 12 11 11
3 2 3 15 27 26 24 22 19 17 17 17 17 18 20 21 21 18 18 17 13 10 9 10 9 8 10 9 8 6 7 10 14 13 15 15 14 14 14 13 11 10 10 11 12 12 13 12 11
1 5 2 16 25 26 23 19 18 17 16 17 19 21 26 21 18 16 14 14 13 11 10 10 9 11 12 11 10 9 10 14 15 15 17 16 14 14 12 12 11 11 11 11 13 13 12 13 14
4 8 10 21 24 20 21 20 19 16 16 12 20 24 25 22 19 17 13 12 12 13 11 9 10 13 14 13 10 13 14 17 17 17 17 16 13 11 11 12 11 11 12 15 12 11 12 14 14
6 7 11 13 17 25 21 20 19 15 11 14 17 22 22 22 20 17 12 10 11 13 12 9 11 13 14 11 11 15 18 18 19 18 17 14 12 10 14 14 12 12 12 14 12 10 11 12 12
7 5 6 8 25 23 18 20 21 13 20 23 27 21 21 22 22 18 14 11 11 12 11 11 11 13 12 13 13 17 19 19 18 17 15 13 11 11 13 10 13 13 16 14 10 10 12 12 11
9 7 7 16 21 20 19 21 17 18 23 25 22 21 25 24 19 19 14 11 10 12 11 11 12 12 12 15 14 18 18 17 15 13 12 10 10 8 9 10 11 12 13 11 11 11 11 10 10
8 7 9 6 14 21 19 20 22 24 26 26 25 24 27 22 20 18 13 11 11 12 10 9 13 12 14 15 15 18 17 15 13 11 12 12 10 10 8 9 10 10 10 11 12 10 10 9 9
12 10 7 10 15 13 24 23 28 27 30 29 25 25 26 21 20 18 15 14 13 11 9 11 13 12 12 15 15 16 14 13 12 13 9 11 9 9 11 12 12 10 9 10 10 10 10 9 9
12 7 10 13 10 6 20 7 13 31 34 31 28 24 26 24 23 19 19 18 14 10 11 11 11 9 11 12 13 13 14 12 13 12 12 12 11 11 10 12 10 8 8 9 10 10 10 11 12
14 10 10 14 12 6 10 5 14 31 31 36 32 27 25 23 21 19 16 15 14 11 8 9 8 6 10 13 12 12 13 13 12 13 11 10 11 9 9 10 8 7 7 9 11 10 9 11 13
12 8 8 12 13 9 12 4 4 26 44 35 33 28 26 23 21 19 18 13 10 9 8 6 8 8 9 10 10 9 10 13 12 10 10 9 9 9 9 8 7 7 7 6 5 7 9 12 14
11 11 9 11 9 12 4 3 5 23 38 35 33 31 26 24 21 19 18 11 9 6 8 7 9 10 8 9 9 9 7 11 13 11 9 8 6 6 9 8 6 7 7 5 3 5 9 12 14
12 8 9 8 15 15 12 6 13 24 37 34 33 30 27 23 21 20 14 11 9 6 10 10 10 10 10 8 7 9 10 10 9 9 11 9 6 6 8 9 8 8 9 7 5 7 11 12 12
18 9 7 12 18 6 11 3 5 22 27 32 35 31 31 25 21 16 16 12 11 7 10 12 12 11 10 9 8 8 8 8 8 7 8 9 8 7 8 8 8 9 9 8 6 8 10 11 12
9 10 6 8 12 8 19 7 17 19 35 37 29 36 32 29 25 21 16 11 11 8 8 12 13 11 10 10 10 8 8 7 3 4 5 5 5 7 8 8 9 9 9 9 7 9 8 10 10
12 19 11 8 9 4 13 14 12 28 25 35 35 19 34 30 29 23 18 17 13 12 10 10 12 12 12 10 9 9 7 7 5 4 5 5 5 4 6 7 8 7 9 10 10 10 10 10 9
18 23 8 3 4 4 3 14 11 14 21 26 30 26 32 35 31 24 26 21 17 11 6 8 9 11 11 11 9 10 11 6 7 7 6 5 4 4 4 6 9 9 6 6 10 11 12 11 11
20 20 11 7 6 6 5 10 7 15 16 16 29 41 27 33 32 28 26 23 19 16 11 9 11 8 8 11 12 12 11 10 7 10 8 7 5 4 3 5 7 9 7 8 8 10 11 13 12
23 23 16 3 4 6 7 9 7 11 15 16 26 31 40 36 38 31 26 24 22 20 17 14 11 9 7 8 13 14 14 13 10 12 11 8 7 6 4 5 6 6 5 7 9 10 12 12 13
17 23 19 15 8 7 5 5 7 18 18 15 23 32 31 35 38 33 31 28 28 25 21 20 19 14 14 12 11 15 16 17 16 16 13 12 11 10 9 8 7 6 5 5 6 8 9 12 14
24 14 20 19 8 10 6 6 18 15 20 18 18 26 27 30 38 35 28 31 26 33 29 27 25 22 19 18 14 16 18 19 19 20 16 14 13 13 12 10 11 8 7 6 6 7 7 8 9
20 19 21 19 14 8 5 4 15 18 15 20 22 21 26 25 31 36 34 33 30 27 31 34 34 30 28 19 21 19 21 22 22 22 20 17 16 14 16 13 12 11 10 9 9 9 8 8 8

GFSSGP_700_spd_108.txt.gz
Wind_Speed
4 4 4 5 6 6 11 10 15 21 20 13 17 16 8 11 9 8 23 20 19 17 16 14 14 13 12 9 8 7 7 7 7 9 10 11 12 12 13 14 15 15 16 17 17 16 16 17 17
4 4 6 6 6 10 12 13 19 16 18 22 14 12 8 3 6 23 21 19 16 14 12 11 11 11 9 7 6 6 7 9 10 10 11 11 11 11 13 14 15 15 15 16 16 16 16 16 16
3 4 5 5 5 9 13 16 19 19 20 13 14 11 7 10 23 25 21 19 15 13 11 10 9 8 7 6 7 7 8 8 9 10 13 13 11 10 12 13 15 15 15 15 15 16 15 15 15
4 3 3 5 9 12 13 19 19 23 18 13 14 12 8 18 21 21 21 18 15 13 11 9 9 8 9 8 8 8 8 9 9 10 11 13 12 12 11 14 14 13 14 13 14 13 15 14 14
3 4 2 8 9 13 15 18 19 22 13 14 7 8 12 20 20 20 20 17 14 11 9 10 10 8 8 7 7 8 10 10 8 10 12 12 11 12 13 14 14 11 11 13 13 13 14 14 13
3 1 2 9 10 13 14 18 18 18 13 13 6 10 22 20 19 20 18 17 14 11 10 10 10 8 7 7 7 8 9 8 9 11 12 9 10 14 14 14 13 12 11 12 13 13 13 13 12
0 7 7 11 14 14 15 18 17 14 11 10 5 14 20 23 19 18 18 17 14 12 10 8 7 7 6 7 7 8 8 8 9 9 11 13 15 16 15 14 12 11 12 12 12 13 12 11 11
1 6 5 13 21 18 17 16 18 13 11 10 10 13 16 22 20 17 16 15 15 12 10 9 9 8 7 7 7 8 8 10 6 8 11 14 16 15 14 12 11 11 11 13 12 12 11 11 11
3 4 6 9 25 21 19 20 20 16 9 10 12 14 17 19 19 17 14 12 13 11 9 9 8 8 8 9 8 9 9 11 9 11 12 11 17 12 12 10 10 10 10 12 12 12 11 12 12
3 3 4 13 26 24 21 17 19 16 14 13 16 17 19 19 17 16 13 10 10 12 11 9 9 11 10 10 9 10 11 13 12 17 15 12 12 14 12 9 9 9 9 11 11 11 11 12 13
2 1 4 16 27 26 18 17 14 13 12 11 16 18 21 22 20 16 13 10 8 10 12 11 12 12 12 9 10 13 15 16 15 17 17 15 14 13 11 10 9 10 10 11 10 10 13 13 12
2 6 10 20 28 23 20 17 16 11 10 15 16 14 20 22 20 16 12 10 8 9 11 13 13 13 11 11 13 17 17 17 16 16 15 14 12 13 12 11 10 10 11 9 9 10 11 11 10
3 5 11 10 29 21 18 16 14 15 16 16 21 23 21 21 21 18 13 11 9 9 10 14 14 13 11 13 15 18 18 17 16 15 12 13 17 16 14 12 11 12 12 9 8 8 9 9 9
7 4 11 16 27 20 21 18 19 14 18 23 26 24 21 20 18 18 15 12 12 9 10 13 14 13 12 13 16 17 17 16 14 13 11 12 13 12 13 13 13 14 10 8 8 7 9 9 9
8 6 12 20 23 19 16 18 18 21 26 29 26 24 23 22 20 18 17 13 13 11 11 10 12 12 13 14 16 17 16 14 12 10 9 8 7 10 12 13 13 12 11 11 11 10 8 8 9
11 6 10 13 22 17 24 21 21 26 28 25 23 25 26 25 21 17 17 16 15 10 11 13 13 14 13 15 15 15 14 14 12 11 11 10 9 9 12 14 13 11 10 11 11 8 7 8 10
12 6 8 13 15 14 24 22 24 29 27 24 24 26 24 23 20 19 20 18 14 14 12 14 13 13 14 15 14 12 12 13 13 10 10 9 10 11 13 12 12 11 10 10 9 8 8 7 11
15 11 13 10 12 13 25 14 34 33 30 25 24 26 22 21 20 22 20 19 15 14 13 13 10 10 14 13 13 12 11 11 11 11 9 9 11 10 11 9 9 11 10 9 8 9 8 9 11
8 7 11 14 12 5 7 11 32 33 33 27 25 25 24 23 20 20 19 16 15 13 12 11 10 10 14 13 13 11 11 11 10 10 9 7 8 10 11 9 8 9 11 10 6 6 9 9 13
9 9 9 11 13 10 8 9 34 41 36 27 27 25 25 23 21 20 19 16 13 12 12 12 12 12 12 13 13 12 10 10 10 10 10 8 6 8 9 9 8 9 8 8 7 8 10 12 14
8 8 10 6 14 4 11 5 26 36 40 29 27 27 24 22 22 21 20 15 13 10 12 13 13 13 11 11 10 10 10 12 10 9 9 8 6 7 8 8 8 7 7 6 5 8 11 8 13
10 3 6 12 10 6 16 5 6 27 38 35 31 27 27 27 23 20 19 14 14 11 14 15 15 12 12 10 11 13 12 12 10 8 8 8 7 7 9 8 8 7 8 7 6 8 12 10 9
4 8 7 11 5 10 9 7 5 10 42 40 39 29 28 26 22 22 18 15 15 11 13 14 15 14 12 12 11 11 10 10 9 7 7 7 7 8 8 7 7 8 9 8 6 8 11 11 10
9 9 6 8 2 7 12 6 9 19 28 34 35 34 29 28 24 23 20 18 17 13 13 14 16 16 14 12 12 10 9 10 9 8 8 8 7 8 9 8 8 7 9 9 8 8 10 12 11
16 18 10 8 7 4 6 11 5 11 20 30 34 34 34 29 27 26 24 24 18 12 11 13 15 16 15 15 14 14 12 11 8 7 7 8 7 7 7 9 10 9 9 10 11 10 10 11 12
20 23 10 7 7 8 7 9 6 17 12 19 32 26 31 33 28 29 27 22 21 15 12 12 13 16 16 16 16 16 16 12 7 8 8 7 8 7 6 7 8 10 8 8 9 12 12 12 11
21 26 20 17 10 8 11 7 10 15 17 19 27 33 33 37 32 33 28 25 23 19 16 15 15 12 14 15 16 16 16 16 12 12 12 10 9 8 7 7 7 7 7 8 9 10 10 10 11
17 20 24 18 9 11 9 10 10 13 15 17 21 34 37 26 40 37 31 31 28 25 22 19 16 13 12 12 14 15 16 17 15 14 13 13 10 10 8 8 8 7 6 5 8 9 10 11 12
22 18 25 23 24 13 9 9 13 15 15 14 14 26 32 37 35 36 35 32 28 30 27 24 23 19 17 16 14 14 16 18 18 17 16 13 13 13 11 10 9 7 8 8 7 6 7 7 9
22 26 22 24 21 18 21 2 10 17 15 17 16 16 27 29 34 37 38 35 29 33 31 31 28 25 24 23 20 17 15 18 19 19 20 16 12 14 13 13 11 11 10 10 8 8 7 7 7

GFSSGP_700_spd_111.txt.gz
Wind_Speed
4 5 8 7 1 3 14 17 19 20 20 18 17 12 7 7 10 14 25 18 19 17 16 15 14 12 11 9 7 7 7 7 8 9 11 12 12 14 15 14 15 17 17 17 17 17 16 16 16
7 6 7 7 4 14 18 17 19 14 18 17 16 12 8 9 5 23 22 19 16 14 14 12 11 10 9 7 7 6 7 8 9 10 10 11 12 13 14 15 16 16 16 16 16 16 15 15 16
6 7 2 3 4 12 19 17 18 20 17 14 13 11 8 21 19 21 20 20 18 14 11 11 10 8 7 6 7 8 9 9 10 12 12 12 12 13 14 16 16 15 15 15 14 15 15 14 15
7 5 2 4 7 7 18 18 21 22 15 9 11 13 20 17 19 20 20 18 11 15 10 10 9 8 8 8 9 9 8 9 11 13 11 11 8 12 14 15 14 13 12 13 13 13 13 13 14
3 2 3 8 13 11 18 19 21 16 15 13 9 19 19 17 20 21 20 15 12 7 9 10 11 10 9 9 9 9 8 8 9 11 12 11 12 12 14 14 12 11 12 12 12 13 13 13 13
3 2 4 9 13 15 18 18 19 14 13 11 16 21 18 20 21 18 16 21 13 8 8 10 10 8 8 9 9 9 9 8 10 12 14 11 10 12 14 12 11 12 12 13 13 13 13 12 12
6 2 4 13 18 15 19 17 17 13 13 13 15 19 19 21 19 16 21 15 13 14 6 7 7 7 7 8 8 8 7 9 11 7 4 14 15 13 13 12 12 13 13 13 12 12 12 12 12
5 5 6 11 21 17 19 17 15 12 12 13 14 11 21 21 19 15 16 14 6 6 7 9 5 7 8 7 8 8 9 10 8 9 11 17 15 14 12 12 12 13 14 12 12 12 13 12 11
4 5 6 10 21 21 23 15 14 15 11 10 7 15 20 22 20 18 18 14 10 10 12 6 5 7 6 7 8 8 9 7 9 11 13 22 15 13 11 11 11 12 13 12 11 11 12 14 13
6 6 4 9 22 20 18 17 17 12 11 10 15 21 19 21 20 17 15 13 8 13 8 6 8 9 11 5 9 9 10 8 10 12 20 23 15 12 9 9 10 10 11 11 11 11 10 14 14
8 8 6 9 22 21 14 15 13 13 12 14 19 18 18 21 19 17 14 13 8 7 7 12 11 13 9 8 10 11 16 11 11 13 18 17 15 11 9 8 9 10 9 12 10 9 12 16 9
6 2 6 13 28 21 16 15 12 13 12 16 18 14 17 21 18 16 13 14 11 12 11 7 12 13 9 10 11 11 15 12 13 12 16 16 14 12 11 9 9 10 9 7 25 9 11 13 15
6 6 5 18 28 22 20 17 12 10 14 19 21 21 21 20 17 15 14 13 11 10 12 12 13 11 9 14 13 14 14 11 12 12 16 13 7 12 11 11 10 9 8 10 7 10 7 13 11
3 7 13 16 25 23 19 15 13 13 17 23 23 22 20 19 18 17 14 13 11 12 12 12 11 9 10 11 17 18 10 10 11 12 13 15 14 14 12 11 9 10 8 8 6 12 12 9 8
9 8 11 14 26 26 19 14 15 16 20 24 24 21 19 18 16 15 14 13 12 12 9 12 9 10 11 14 17 14 13 14 9 8 10 12 11 10 11 12 10 6 7 8 8 14 13 9 8
9 6 11 12 27 25 24 14 20 18 24 25 23 21 19 17 14 15 15 14 13 12 10 11 11 10 11 14 17 9 9 12 9 8 10 8 10 10 11 10 8 8 12 10 9 11 7 10 5
13 6 8 14 22 27 24 20 23 28 24 24 23 22 21 19 17 15 15 14 13 12 12 14 12 10 11 14 14 15 13 8 8 7 8 9 10 12 12 8 9 12 10 10 9 9 10 11 9
16 15 9 8 13 7 22 19 27 33 27 25 24 23 24 24 17 16 16 15 14 14 14 13 12 12 12 15 13 6 8 13 8 9 9 9 11 12 12 9 9 11 11 8 10 12 16 11 19
15 8 14 8 11 7 14 19 28 34 33 28 27 25 23 19 19 16 17 16 13 14 15 11 10 13 13 10 9 10 11 7 10 8 8 7 8 9 8 6 8 3 7 9 11 10 13 7 12
8 16 18 14 11 13 13 23 29 35 26 28 32 26 24 22 20 18 18 16 14 15 15 13 12 13 13 14 13 14 6 8 8 8 7 7 7 8 7 9 7 9 9 5 6 16 11 3 19
13 4 21 14 15 10 9 5 34 39 32 28 26 29 32 24 23 19 20 19 15 14 15 17 14 13 10 11 14 13 13 7 8 8 7 6 6 6 8 6 6 10 8 6 7 11 15 6 10
6 6 6 11 14 5 12 3 9 36 36 35 33 28 25 24 26 19 17 20 20 14 14 17 18 15 12 10 10 11 11 9 7 5 5 6 5 7 8 8 8 8 2 4 6 10 18 12 4
5 4 4 16 9 13 12 7 9 31 35 33 34 36 29 23 22 24 23 19 17 12 14 15 17 17 15 13 13 13 11 5 6 4 8 6 6 7 8 7 6 7 6 6 5 10 12 17 14
9 5 2 2 8 9 15 16 21 24 20 40 36 31 37 35 26 26 20 24 17 15 15 15 16 15 15 15 15 13 16 11 10 8 6 5 5 7 7 7 8 7 9 8 7 8 10 10 16
15 9 4 1 4 2 13 10 10 24 17 32 46 38 31 26 30 26 27 17 19 17 17 17 15 15 15 16 16 15 13 13 10 8 7 3 3 5 8 9 10 9 8 8 8 8 9 11 11
17 19 10 4 3 7 8 6 10 8 7 19 36 37 30 28 29 21 24 23 19 19 17 17 15 16 16 16 17 17 14 13 11 10 13 7 10 6 6 9 10 9 8 9 10 10 11 12 13
16 23 23 11 9 8 9 6 6 12 13 23 31 35 39 32 27 25 25 26 23 22 19 17 16 17 18 17 16 16 17 16 13 10 8 13 8 3 6 7 9 10 9 8 8 10 11 10 11
17 15 22 23 9 4 4 11 6 10 15 19 28 33 29 40 37 31 27 26 25 22 20 18 16 14 15 17 17 16 16 16 15 11 13 10 12 13 10 7 8 8 8 7 9 8 10 10 11
21 18 21 23 24 10 6 2 8 12 9 16 23 29 26 29 37 25 32 28 29 23 24 22 19 17 13 11 11 14 16 17 17 14 14 14 14 13 11 10 8 8 7 6 6 7 9 10 10
21 23 19 22 24 23 22 7 11 4 14 13 18 20 27 35 28 32 32 24 32 33 31 25 23 21 17 16 15 13 13 15 16 16 16 17 15 14 14 13 11 10 10 9 8 7 8 8 7

GFSSGP_700_spd_114.txt.gz
Wind_Speed
6 6 6 6 2 2 14 24 19 21 17 16 14 11 10 9 10 18 23 17 18 16 14 12 11 13 12 10 10 9 10 10 11 12 13 14 15 16 17 17 17 17 17 17 16 16 16 16 16
5 13 8 2 7 10 20 17 20 17 18 14 13 14 17 19 12 22 18 15 17 14 12 10 9 9 8 7 7 8 8 9 10 12 13 13 15 16 16 17 17 16 16 15 16 16 16 15 16
9 11 7 7 6 13 19 16 18 19 19 12 13 12 16 23 22 22 24 19 11 15 11 9 8 7 6 6 7 9 10 10 10 12 13 13 14 17 17 17 16 16 16 16 16 16 16 16 16
9 4 8 9 10 11 15 19 20 20 14 4 12 24 22 19 24 20 18 22 12 11 10 9 7 7 8 9 9 9 9 10 11 11 11 11 12 15 16 15 15 15 15 15 16 16 16 16 16
5 3 4 12 7 15 16 19 18 14 15 18 18 24 24 17 24 19 14 8 7 10 11 10 9 10 9 9 8 9 10 10 11 11 11 10 11 13 14 14 14 13 13 15 16 16 16 16 16
4 5 2 11 22 14 17 16 18 15 11 26 21 24 23 24 13 15 14 13 12 12 11 11 10 9 9 9 9 9 9 11 13 13 13 12 12 13 14 12 13 14 14 15 15 16 16 16 15
7 4 1 19 25 11 17 14 17 16 17 18 19 26 24 22 12 19 15 8 13 5 8 10 8 8 9 9 10 9 10 11 12 11 9 12 10 14 13 13 13 14 14 15 15 15 15 15 15
8 6 5 17 18 17 18 17 13 13 19 19 17 20 25 19 11 23 18 11 13 7 6 9 8 7 8 8 8 9 12 11 10 9 13 16 14 14 14 15 14 14 15 15 15 16 16 16 15
4 5 3 10 31 25 19 18 19 15 19 13 7 19 21 21 15 18 17 6 7 5 12 11 6 8 8 8 8 9 10 9 11 15 19 21 18 15 13 16 14 15 16 15 15 16 17 17 16
6 8 6 5 22 29 10 16 19 16 15 9 14 23 21 22 18 17 7 2 6 5 6 5 8 10 10 9 8 9 7 9 8 11 18 29 19 15 14 14 13 14 14 13 14 14 17 16 14
11 9 8 7 12 24 18 13 14 13 15 16 21 21 23 21 17 17 9 3 2 7 8 6 8 9 8 7 8 13 14 7 12 22 15 20 15 14 13 12 13 14 12 12 11 11 16 12 19
11 8 7 11 17 18 21 16 15 10 16 21 19 22 23 20 17 15 12 8 5 2 6 11 10 7 10 12 15 10 12 9 16 29 16 18 18 12 11 13 12 11 19 14 15 17 18 21 14
12 9 9 8 28 22 16 19 10 21 19 19 20 22 21 19 17 16 14 7 7 9 7 9 9 9 10 7 7 15 13 11 4 21 18 19 13 13 11 13 11 12 10 15 15 18 17 17 19
12 6 10 15 26 18 18 20 12 16 17 21 22 21 20 18 17 17 16 11 6 4 7 10 9 8 12 11 17 11 11 14 7 11 12 13 13 15 13 11 13 10 12 14 13 17 15 15 11
9 8 11 18 21 23 18 17 11 16 19 22 22 21 20 19 18 16 14 12 11 9 8 9 7 6 11 16 14 12 11 12 13 11 8 11 11 13 7 7 15 8 15 20 22 23 19 13 14
7 11 14 17 23 25 20 17 19 17 21 22 22 21 20 19 16 15 14 13 13 13 10 6 9 11 14 16 13 13 8 10 9 9 8 8 9 7 13 11 5 11 14 19 19 18 14 7 9
14 7 6 7 16 27 21 13 21 24 21 22 23 22 19 20 18 16 14 14 16 10 11 10 8 12 14 12 13 9 10 8 9 11 11 9 8 7 10 2 12 14 18 19 18 15 11 16 7
19 16 8 9 11 9 18 17 19 30 28 25 24 22 23 21 16 17 16 16 16 13 14 8 10 13 13 11 11 12 7 8 10 6 9 11 10 7 10 11 11 13 17 14 14 14 19 12 12
14 6 8 10 14 9 21 1 29 36 34 29 26 26 25 23 18 18 21 18 14 15 19 14 12 13 12 12 11 11 10 6 7 7 9 8 10 6 5 7 7 7 12 11 15 17 19 12 22
12 8 12 8 7 9 9 20 37 41 32 28 28 28 29 25 28 21 20 15 12 17 17 14 14 13 14 12 10 12 9 11 10 7 7 6 8 7 6 7 6 8 13 10 8 23 22 20 20
18 8 6 8 15 11 5 4 28 36 38 37 32 27 26 22 28 21 21 16 14 14 17 12 15 16 13 14 12 15 12 8 5 5 7 5 6 7 4 2 4 12 8 12 15 19 18 21 13
12 2 3 9 16 3 10 4 6 34 39 36 35 26 32 29 21 19 25 18 15 11 18 18 17 17 16 16 12 10 10 8 7 7 7 7 5 7 8 6 3 4 8 9 13 20 11 12 14
8 7 3 13 6 12 13 7 6 29 45 32 26 35 21 22 27 27 20 21 26 16 13 19 18 16 15 15 15 11 10 11 6 7 6 5 4 6 9 9 7 3 7 4 9 17 14 15 16
7 9 6 6 17 7 16 7 14 23 38 38 36 46 33 36 25 24 25 17 23 19 13 15 18 18 16 14 13 14 13 10 10 5 3 6 8 8 8 9 8 7 6 5 6 12 19 13 8
11 12 6 4 10 4 17 13 12 11 25 39 35 36 34 30 28 29 30 24 21 26 18 13 17 17 17 16 17 17 14 10 9 7 8 7 4 7 8 9 10 10 10 8 6 7 10 16 16
13 14 8 3 3 1 6 3 7 16 15 24 28 34 32 27 33 36 27 32 25 23 27 16 18 19 18 18 17 17 15 13 12 11 8 5 3 6 4 7 10 10 10 11 10 9 9 11 13
14 14 17 8 3 9 2 15 12 15 20 18 34 41 38 37 40 29 29 26 23 20 20 25 19 19 18 16 17 16 16 15 14 8 8 11 11 12 10 7 9 11 9 7 7 9 9 8 8
16 9 15 7 3 5 7 9 6 18 19 22 22 33 35 37 33 22 31 27 22 21 28 23 19 20 19 17 15 14 16 14 13 10 9 11 12 12 12 5 7 10 10 7 7 8 10 9 10
18 18 13 18 13 5 8 4 6 10 18 23 21 25 31 38 34 27 31 27 23 22 27 31 18 16 19 16 15 14 14 15 15 14 11 13 13 9 8 9 8 7 5 4 5 8 8 9 9
19 20 21 18 16 19 21 7 4 2 7 18 22 21 22 29 32 38 25 26 32 24 30 23 30 17 14 11 11 9 13 15 14 15 15 14 13 13 11 12 10 9 7 7 7 7 7 5 6

GFSSGP_700_spd_117.txt.gz
Wind_Speed
7 5 7 7 9 11 13 24 26 24 24 25 16 15 15 15 13 14 25 21 18 17 17 15 14 13 13 12 12 12 13 14 15 16 16 17 17 17 17 17 18 18 17 18 18 18 18 19 19
7 6 14 10 10 12 16 20 20 17 18 14 15 13 13 10 7 17 23 18 15 14 14 12 11 10 10 9 9 10 11 12 13 15 15 16 16 17 17 16 16 17 17 18 17 18 18 19 19
9 13 19 12 4 16 20 17 17 11 12 4 10 5 13 19 19 19 19 21 18 13 11 9 9 8 8 9 11 11 11 12 13 14 15 17 18 18 17 17 17 18 18 18 18 19 18 17 18
10 11 15 8 9 10 21 17 18 14 12 8 4 21 19 10 14 14 17 15 16 11 10 8 6 6 8 11 11 11 11 11 12 15 15 14 16 16 16 16 17 17 18 19 19 20 19 18 17
3 4 23 10 7 23 16 20 23 18 17 6 10 28 24 16 17 16 11 9 9 10 8 8 8 8 10 10 11 11 12 12 11 10 11 13 15 15 15 16 16 17 18 20 21 20 19 18 17
10 8 22 15 17 24 20 21 22 17 10 12 13 22 21 17 18 16 11 10 12 10 9 9 9 9 10 11 12 12 12 12 12 13 15 14 14 13 13 16 17 16 18 20 20 20 19 18 15
7 8 16 24 26 16 12 13 9 10 14 14 17 23 23 16 15 15 7 21 18 11 11 11 9 9 10 11 11 11 13 13 16 15 15 14 14 13 14 15 16 16 17 19 19 20 19 17 16
6 6 18 21 26 16 21 20 27 15 19 14 16 24 26 14 14 14 6 11 9 8 8 10 9 9 11 9 10 12 14 14 11 10 11 16 14 14 15 16 16 16 17 17 18 18 18 17 16
8 3 9 26 25 21 18 16 11 17 14 9 9 19 20 17 17 13 10 6 1 6 10 8 10 10 11 10 10 12 12 12 10 16 22 20 16 15 15 16 16 16 16 17 19 18 18 18 17
7 7 8 7 25 23 20 24 19 22 21 19 27 14 15 13 10 7 7 3 2 11 6 12 10 10 11 11 10 9 9 12 14 19 22 20 17 15 13 15 14 15 14 16 16 17 17 20 21
8 9 10 2 33 27 16 16 17 12 20 29 25 22 19 20 8 9 7 5 6 2 8 15 10 12 13 12 10 18 12 10 15 21 23 19 19 15 13 13 15 14 14 13 12 16 20 20 22
11 11 8 9 12 31 16 18 25 12 15 21 13 31 23 15 12 4 3 3 5 5 5 12 8 11 15 13 17 18 18 10 20 22 18 19 18 17 14 14 14 15 18 16 16 15 20 16 21
11 11 8 10 12 24 24 22 20 16 21 19 17 26 21 20 21 9 6 5 4 2 7 11 10 12 11 13 16 14 13 21 19 18 18 15 16 15 14 14 13 15 17 22 21 20 17 18 12
17 11 12 7 13 15 21 14 19 20 21 21 21 24 16 21 20 14 9 7 5 3 11 9 9 10 15 15 14 11 16 18 21 16 15 13 15 14 13 16 16 16 18 20 23 25 24 13 16
12 11 6 10 17 19 18 13 19 26 25 16 24 18 18 18 22 14 12 8 3 8 11 8 7 12 16 19 16 10 13 18 18 13 13 13 14 18 12 10 16 25 27 23 23 20 20 18 17
13 12 10 18 21 20 21 18 17 19 22 18 18 22 21 21 22 17 13 15 8 7 6 8 9 12 17 16 15 14 14 10 15 15 12 12 13 10 13 13 23 20 15 22 17 15 19 19 14
14 8 8 12 15 15 16 24 27 24 22 19 18 21 24 22 20 14 13 14 6 5 6 14 14 13 14 18 16 15 13 10 14 14 11 10 10 11 11 21 15 14 16 22 27 15 11 15 12
14 13 6 14 9 15 24 25 30 30 28 17 20 25 23 24 17 14 15 16 7 8 9 12 15 15 14 13 13 12 12 13 14 12 12 10 9 12 11 11 14 19 11 23 20 16 13 12 6
19 5 8 6 5 5 4 20 30 33 33 29 30 29 26 25 18 16 17 14 7 11 12 14 15 16 14 12 15 13 12 11 11 10 12 10 8 9 9 9 11 13 12 24 18 22 9 15 10
6 6 9 7 10 6 10 23 13 31 35 34 34 32 28 25 19 19 19 13 12 13 17 14 18 15 15 14 14 14 13 12 12 10 11 8 7 7 8 12 11 13 16 19 19 20 21 17 16
14 4 8 7 15 8 3 9 33 27 39 29 35 33 31 28 26 21 24 19 13 12 14 14 17 18 15 14 13 11 12 10 11 10 9 10 7 5 5 12 12 12 13 17 20 20 20 19 17
5 11 10 10 17 2 5 3 4 30 46 36 34 31 32 28 28 23 24 22 10 9 12 15 17 17 16 13 11 11 12 10 10 9 10 9 7 6 4 6 8 9 9 15 23 19 22 19 13
10 9 7 11 14 2 14 4 10 28 46 43 36 33 37 30 26 21 27 19 11 8 6 11 15 16 16 15 12 11 10 10 9 9 10 9 6 8 8 9 7 8 10 13 19 18 18 16 12
16 13 10 8 10 3 15 16 16 24 42 48 40 39 39 30 30 23 27 19 11 14 10 12 15 16 15 14 16 13 11 10 7 8 9 8 8 8 8 9 9 7 6 12 18 15 14 16 15
6 12 1 2 2 2 10 15 12 18 22 49 49 47 36 41 32 29 28 23 19 16 17 10 15 15 14 14 13 12 12 9 9 7 6 5 7 10 10 7 8 10 9 8 9 15 16 16 18
6 12 15 3 1 3 8 4 5 16 14 39 32 48 38 31 37 37 35 29 22 24 17 15 8 16 18 16 15 15 14 12 12 10 8 8 7 9 13 12 9 8 8 9 11 12 15 16 20
9 21 17 7 6 3 3 10 10 6 5 32 36 37 43 35 34 35 36 27 23 20 19 17 8 10 16 17 16 15 13 13 10 10 10 9 10 5 6 7 10 10 8 8 12 12 14 14 15
11 10 6 5 5 3 9 9 14 9 11 18 37 39 42 45 40 34 29 29 22 24 25 22 15 6 16 17 17 17 16 14 14 12 9 5 7 5 6 6 8 9 10 8 8 9 10 11 12
14 13 10 8 7 6 4 8 5 15 11 20 25 40 39 41 38 40 36 35 21 23 26 21 24 9 13 19 17 17 16 15 13 13 10 7 7 7 5 7 7 7 6 7 7 8 10 9 10
13 13 13 15 14 8 2 3 8 16 15 20 20 20 33 43 38 32 31 20 24 26 27 22 21 17 13 16 18 18 17 16 16 16 15 12 11 11 11 9 8 7 7 7 6 6 5 4 6

GFSSGP_700_spd_120.txt.gz
Wind_Speed
7 7 13 6 8 18 19 22 15 21 20 14 16 16 7 14 15 8 22 21 19 18 18 17 16 15 14 14 15 15 15 16 16 17 17 17 18 17 18 18 19 19 17 19 19 20 20 19 17
8 8 12 14 23 26 21 26 22 20 23 25 19 12 12 10 1 21 24 23 17 15 15 14 12 11 11 12 13 13 14 15 16 16 17 17 17 16 15 16 17 18 17 17 19 19 18 18 19
6 11 10 11 10 9 22 18 21 21 19 16 18 15 10 11 16 19 20 22 17 14 13 12 11 10 10 11 12 12 13 15 16 16 17 18 17 16 16 16 16 17 17 17 19 18 18 18 17
7 17 18 9 9 8 17 19 15 18 12 5 9 12 15 11 12 15 18 17 14 12 11 10 8 8 11 13 13 13 13 14 15 16 17 18 17 17 16 17 17 17 16 17 20 18 18 17 16
3 18 18 7 7 19 27 18 13 12 8 4 1 14 15 16 20 20 16 16 10 9 9 8 9 10 12 11 13 13 14 15 14 14 15 17 17 16 16 16 17 17 17 17 20 18 17 18 16
15 23 21 9 10 22 23 20 12 10 5 6 4 16 20 17 16 16 13 12 11 8 8 9 10 10 11 12 12 13 14 13 12 15 15 14 16 17 17 17 17 17 17 17 19 18 17 19 18
10 26 24 20 11 19 24 13 12 7 3 5 12 20 24 16 15 14 9 11 10 9 9 10 10 10 11 12 12 12 14 14 15 16 16 15 15 17 17 18 18 18 18 18 17 16 17 18 18
5 16 14 9 10 15 15 17 18 9 13 14 10 15 24 21 17 16 20 13 12 9 9 8 9 10 11 10 12 14 16 18 17 16 16 17 17 18 18 17 17 18 18 18 17 16 18 19 17
3 2 12 14 14 19 17 25 21 8 6 13 4 17 18 19 18 16 14 11 7 7 10 9 8 9 9 9 12 14 15 13 12 15 19 18 18 17 17 16 16 16 15 15 15 15 19 22 22
3 1 12 17 18 15 22 22 23 16 14 13 27 14 10 12 13 10 13 9 8 12 9 9 10 9 11 11 11 11 12 10 14 19 19 18 18 18 17 16 15 14 15 15 16 15 20 22 21
6 3 5 3 19 18 22 23 26 15 19 21 13 17 12 14 14 12 13 10 8 5 7 10 13 11 13 10 10 11 14 15 22 22 18 19 17 18 17 16 14 12 13 15 17 21 21 19 19
13 5 7 4 20 24 19 19 24 15 6 18 11 18 17 11 11 9 6 4 8 4 11 10 12 13 14 13 15 10 14 18 22 19 16 18 16 18 19 16 11 11 11 15 11 14 19 18 20
21 9 9 3 18 30 18 20 18 14 30 24 18 17 11 7 13 7 5 2 5 6 10 14 14 13 14 14 10 18 25 23 23 16 16 16 15 20 17 17 16 14 18 19 17 14 15 18 21
9 10 8 9 8 32 24 22 20 30 33 26 21 16 11 11 12 11 5 2 4 5 9 9 15 14 19 14 15 20 30 21 22 20 15 15 15 18 16 20 19 19 21 26 22 15 14 18 19
9 7 9 5 9 16 14 19 15 34 31 29 25 16 16 16 12 10 5 3 4 10 9 11 13 18 17 19 18 16 21 21 18 16 14 14 15 18 16 16 17 19 20 20 25 21 19 19 16
3 4 6 10 12 21 23 20 24 32 25 26 28 19 22 16 14 14 9 7 4 6 7 12 11 16 16 18 19 19 17 16 16 14 14 14 12 17 17 22 23 22 20 20 22 20 19 20 18
9 6 5 13 18 23 27 26 26 27 28 26 24 23 19 17 20 17 10 9 5 5 7 12 14 14 14 15 15 17 18 16 17 15 13 12 12 14 13 20 22 17 19 17 18 19 19 18 17
3 10 11 10 6 13 20 27 25 22 33 28 17 26 25 20 21 13 13 9 6 1 1 12 16 17 19 16 13 15 15 16 15 15 13 10 12 13 16 14 16 16 20 21 20 17 17 16 18
13 12 10 3 7 10 6 25 24 30 33 32 26 25 26 20 16 15 14 10 6 2 3 11 18 17 18 15 14 16 14 13 14 11 11 10 9 12 12 13 15 14 20 17 19 16 13 16 16
7 3 10 9 8 12 7 9 31 30 31 31 30 31 29 24 23 18 12 11 5 4 6 12 19 17 17 18 15 14 14 14 13 11 12 12 10 11 9 13 15 15 23 19 20 21 15 17 16
9 8 9 6 13 10 6 7 27 32 31 37 34 31 33 25 22 20 14 11 5 8 10 13 21 18 16 15 15 16 14 12 11 11 8 10 11 11 11 10 11 12 23 20 20 19 18 15 12
20 7 6 8 12 7 10 3 8 35 34 33 28 36 37 33 25 22 14 11 10 7 6 11 17 16 15 16 18 14 12 12 11 12 10 8 9 12 11 9 11 11 13 21 20 19 16 18 13
16 9 3 6 13 7 11 4 5 19 37 39 31 34 43 38 32 21 17 11 14 7 6 8 14 14 16 13 12 16 18 14 11 10 11 9 8 10 12 12 12 13 12 15 21 20 18 17 13
17 10 11 7 6 2 3 8 6 4 20 42 38 41 42 37 33 24 16 16 14 12 6 7 11 15 17 15 14 14 11 12 11 12 11 9 10 10 13 12 11 13 9 12 18 15 17 17 13
8 7 6 1 3 2 3 5 14 9 11 16 50 44 44 40 34 30 26 20 16 10 9 6 11 13 14 15 13 12 13 11 11 11 10 10 8 8 8 10 8 9 9 10 14 16 18 18 17
13 10 10 6 4 5 3 2 11 21 14 15 44 45 44 42 36 34 27 22 16 12 10 8 11 15 15 14 13 14 13 12 11 10 10 9 8 11 11 12 12 11 11 10 11 19 18 17 16
16 17 9 6 5 3 4 9 11 14 10 15 43 48 44 41 40 38 35 26 21 15 13 8 15 16 15 14 13 14 14 10 9 9 8 6 8 7 6 10 12 12 12 12 12 12 15 21 19
13 3 6 11 5 3 5 7 3 5 5 8 25 54 42 42 31 38 31 26 25 17 14 14 12 8 14 14 14 14 15 14 13 11 9 7 9 7 6 10 11 10 11 11 11 11 11 13 16
17 12 6 2 3 6 3 8 3 2 11 14 18 34 36 51 35 39 33 35 32 22 18 15 13 17 11 16 15 16 19 16 14 14 11 8 10 10 10 12 9 7 12 12 11 11 13 14 15
6 2 4 8 5 1 3 7 15 4 8 6 7 20 26 45 42 39 34 36 33 29 23 16 16 18 19 11 15 18 18 18 18 16 14 11 10 12 11 11 9 8 11 10 11 10 10 11 12

GFSSGP_700_spd_123.txt.gz
Wind_Speed
7 10 9 6 6 9 14 10 11 23 22 10 14 9 4 13 12 5 21 21 22 20 18 18 17 15 14 14 14 14 15 15 17 18 19 18 17 17 17 18 19 18 17 17 18 18 18 18 17
10 12 12 14 16 20 11 13 19 18 17 16 11 7 8 10 3 12 21 23 21 18 17 15 13 12 12 12 13 14 14 15 16 16 17 18 17 17 16 17 18 17 17 16 17 17 16 17 15
10 12 14 14 12 10 16 21 18 18 11 12 10 10 8 6 15 19 19 20 19 15 13 12 11 12 11 11 12 14 14 14 15 15 16 16 16 16 17 17 17 16 16 16 16 18 18 17 16
8 14 14 10 8 15 19 21 20 19 15 11 8 11 9 13 18 17 18 17 15 12 12 10 9 9 13 14 13 14 14 16 16 16 16 16 16 16 17 17 18 17 16 16 15 16 16 17 16
7 19 11 9 12 19 24 22 14 11 10 13 12 13 15 18 15 16 15 15 11 9 8 8 9 11 10 11 13 15 15 17 17 15 16 16 16 16 16 16 17 17 16 16 16 16 15 15 16
12 17 12 10 22 29 23 18 15 4 3 5 11 18 22 19 14 15 15 12 12 8 7 8 10 11 10 12 12 14 15 14 16 16 16 15 16 16 17 17 17 17 16 15 16 17 16 16 17
17 28 13 13 17 25 25 14 11 3 2 4 6 19 23 19 13 13 13 11 10 10 9 9 9 10 11 12 13 14 14 14 16 16 15 14 16 17 17 17 17 16 15 15 16 16 16 17 17
17 22 14 3 12 21 22 13 7 3 9 9 9 8 18 22 15 13 14 13 11 10 9 8 9 10 10 12 13 14 15 16 17 16 15 14 16 17 16 16 15 15 14 14 15 17 17 18 17
13 10 6 5 11 20 17 13 11 7 2 8 8 11 19 20 15 15 11 10 7 8 8 6 8 9 9 10 13 15 16 17 16 14 15 15 16 17 16 15 15 15 14 14 15 16 18 18 18
8 1 10 18 12 21 19 21 21 16 11 8 16 15 15 18 15 9 8 8 7 8 6 7 8 8 9 10 11 14 14 13 14 14 15 17 17 18 17 15 14 14 14 15 16 18 20 20 19
5 1 7 11 10 24 25 26 18 17 11 6 7 19 18 18 15 11 13 11 6 5 5 8 8 8 9 10 12 11 10 12 17 17 15 16 15 16 16 15 14 15 14 14 16 19 22 21 20
7 5 5 1 9 18 17 28 25 20 8 11 10 13 18 17 13 10 11 9 5 6 8 7 10 10 9 10 11 13 13 19 22 18 15 15 15 16 16 17 14 15 18 16 15 17 19 20 19
8 10 9 4 12 19 18 26 32 21 12 14 12 14 14 10 10 7 8 7 6 5 7 10 13 11 13 10 7 17 19 22 21 17 14 14 16 17 14 15 12 15 15 12 12 14 19 21 19
3 10 14 8 8 27 22 19 25 15 21 19 16 13 9 11 9 9 8 6 5 5 7 12 13 12 13 13 10 25 24 23 18 18 15 14 17 15 15 15 18 20 18 17 14 15 20 20 19
3 6 8 10 11 21 23 21 25 26 27 22 19 15 10 13 8 5 4 7 4 7 9 12 10 15 13 17 23 22 22 21 15 13 13 14 16 17 17 17 18 18 18 17 15 19 20 20 19
4 4 7 7 6 12 25 23 19 27 31 30 22 17 12 14 9 7 2 7 3 4 7 11 17 16 16 22 19 16 17 16 15 11 12 16 16 13 15 15 19 18 19 19 20 21 19 19 18
6 4 5 7 9 15 11 18 25 33 30 26 22 20 16 16 15 12 5 7 5 3 5 8 16 17 16 19 21 19 17 16 16 14 15 14 13 12 14 17 18 19 17 18 20 20 18 16 17
1 1 7 5 10 6 9 14 31 36 39 24 25 20 20 17 12 11 6 8 2 3 4 8 13 17 18 16 17 15 14 16 15 14 13 13 14 11 17 19 16 18 16 17 19 19 17 16 15
7 7 4 12 6 9 11 12 24 31 31 34 33 27 24 17 15 15 7 5 2 3 5 8 13 16 15 16 14 14 14 14 13 12 13 14 11 11 21 14 13 16 19 16 18 16 15 14 14
4 4 5 7 5 4 10 13 20 21 31 34 35 30 28 25 18 18 11 4 4 4 3 8 12 14 13 14 14 13 13 11 12 14 12 13 14 12 15 13 15 16 18 16 17 17 16 14 12
12 11 5 8 12 13 11 16 15 26 27 41 35 34 31 25 22 17 15 5 6 3 2 6 14 15 15 15 14 15 15 12 10 11 14 13 12 11 12 13 15 12 19 16 18 16 16 14 12
17 9 6 5 9 7 11 5 9 21 33 42 35 36 34 31 26 16 14 7 8 3 1 7 15 14 14 17 17 13 12 11 11 11 10 11 11 11 9 10 14 14 17 20 15 16 15 15 13
14 11 8 3 5 2 7 5 7 9 35 46 38 33 37 37 32 24 14 6 7 4 4 8 13 14 14 13 16 15 15 15 12 10 12 11 10 10 9 10 11 10 13 21 17 17 20 16 14
17 17 9 5 3 3 7 10 7 7 19 36 36 34 37 41 35 27 18 12 11 10 7 9 10 14 15 15 14 15 14 13 12 10 9 10 11 12 11 9 9 10 11 14 17 19 19 14 17
17 21 5 5 1 5 8 9 8 14 12 37 40 37 42 44 39 33 26 17 16 14 12 7 11 12 15 13 13 11 11 11 10 10 11 9 9 11 14 12 11 11 8 9 15 19 15 18 18
26 19 7 6 4 3 10 9 5 14 13 12 19 40 37 42 43 37 28 20 15 15 11 9 6 12 12 13 13 12 14 12 12 10 10 10 9 11 12 14 15 14 12 11 12 16 16 14 18
24 17 8 4 4 1 5 10 15 11 17 22 20 43 46 44 46 42 32 23 20 18 12 7 7 9 13 11 12 11 11 12 10 12 10 9 9 9 11 13 13 12 12 12 13 14 18 17 17
13 9 6 7 4 4 6 10 10 5 15 15 23 32 57 47 47 44 35 27 22 19 13 9 9 10 11 13 13 13 12 12 11 10 10 10 10 9 9 13 12 12 13 14 15 15 15 16 20
13 12 6 6 3 5 2 5 8 4 7 9 6 22 50 52 48 43 34 32 30 22 16 12 14 11 7 10 13 15 14 14 12 12 12 10 11 13 11 10 11 14 17 17 16 15 16 17 18
11 4 11 10 4 3 4 3 12 6 6 2 2 10 37 44 43 37 36 33 31 31 22 15 18 16 11 11 12 16 16 16 15 14 14 14 11 13 13 12 13 12 15 15 18 16 16 16 15

GFSSGP_700_spd_126.txt.gz
Wind_Speed
5 8 11 9 8 10 14 9 16 22 18 10 9 7 5 13 10 6 19 18 18 18 17 16 15 15 14 14 14 14 16 17 18 18 19 18 18 17 17 17 17 17 16 16 16 16 17 17 17
5 9 10 9 9 18 11 12 19 17 15 16 8 8 9 7 4 16 20 21 19 17 15 14 14 13 12 13 13 14 15 16 17 17 17 17 17 17 16 15 16 17 17 17 16 16 16 16 18
5 12 14 7 12 12 12 15 20 14 13 12 6 6 4 1 15 20 20 19 17 15 13 11 10 10 11 12 13 13 14 15 16 17 17 16 16 16 16 16 16 16 17 17 18 16 16 15 17
8 14 9 9 12 12 16 18 18 16 11 9 3 4 5 15 20 18 19 17 15 13 11 9 9 8 10 12 13 13 13 15 15 16 17 17 17 16 16 16 16 16 16 16 17 17 18 16 14
16 11 6 9 10 14 18 18 16 14 8 11 7 4 9 19 16 18 17 15 13 11 9 7 8 10 12 12 12 14 13 15 16 16 16 17 17 16 15 16 16 17 16 15 15 15 16 15 15
12 12 9 11 18 18 19 18 17 12 6 8 9 11 14 19 17 16 14 12 12 9 7 8 10 11 12 13 13 14 16 15 14 14 14 15 15 15 15 15 16 16 16 14 14 15 16 16 15
10 13 13 18 20 23 19 17 13 5 3 8 9 15 17 21 19 15 13 11 10 10 9 9 11 11 11 12 14 15 13 14 14 15 13 14 14 15 15 15 15 16 16 15 14 14 15 16 16
12 17 17 17 22 22 19 15 13 3 5 8 8 12 16 18 19 15 12 12 11 11 9 9 9 9 12 12 14 13 13 14 13 12 13 14 15 15 15 14 13 14 15 14 14 14 15 16 18
9 10 11 16 18 23 18 11 10 6 4 11 15 8 12 13 14 13 11 10 11 10 8 8 9 9 10 10 14 14 15 14 14 13 13 14 14 15 14 14 12 13 14 14 15 15 15 16 18
8 10 9 11 6 22 17 11 14 9 8 9 9 17 18 17 14 12 8 5 7 8 7 8 9 9 9 11 11 16 18 17 14 13 14 13 13 14 14 13 13 11 12 13 15 16 17 18 18
8 6 3 8 9 16 16 16 14 10 8 7 12 20 20 16 15 12 9 12 10 7 6 6 8 8 10 10 13 14 13 11 13 14 14 14 14 15 15 14 13 12 12 15 16 18 19 18 16
3 2 2 5 7 24 20 18 17 13 14 12 11 14 17 17 17 15 11 7 5 8 7 6 8 9 10 13 13 13 14 15 15 15 14 14 15 15 15 14 12 12 14 16 18 19 20 18 17
3 6 2 3 8 19 19 25 22 19 13 18 12 17 17 16 13 11 11 9 7 8 7 8 9 8 12 11 12 13 12 21 17 15 14 15 15 14 16 14 13 15 14 13 17 20 20 18 17
4 9 7 6 5 17 18 24 20 22 19 18 16 14 12 11 11 8 12 11 8 7 6 10 10 10 12 9 14 16 20 21 17 16 15 15 14 11 13 13 16 14 10 11 15 18 18 17 16
4 5 5 7 8 13 21 14 22 22 21 19 17 13 16 16 12 9 11 14 6 7 8 11 9 10 8 7 20 22 22 18 14 15 14 14 13 11 11 13 15 14 13 11 15 18 17 16 16
5 5 6 4 3 8 18 20 23 20 24 24 19 15 14 16 10 6 6 12 5 5 5 10 11 10 13 19 22 22 20 16 15 14 13 14 10 12 12 14 13 14 14 13 16 17 17 16 14
6 3 6 4 3 7 12 17 24 29 21 25 24 15 15 16 12 7 3 7 4 3 5 4 15 15 16 18 19 19 19 16 12 12 13 14 12 10 12 12 12 14 15 16 18 18 17 16 15
3 1 5 2 3 8 5 8 10 23 33 26 24 16 15 17 11 7 3 3 2 3 5 10 15 16 17 16 18 17 16 16 15 15 13 13 13 10 13 15 14 15 16 18 18 16 16 15 16
2 4 1 9 5 4 9 5 14 25 28 29 29 24 15 16 13 12 8 2 0 3 4 12 15 15 17 16 15 13 13 15 14 15 15 15 14 11 15 14 14 10 15 18 17 15 14 12 12
4 2 2 6 0 3 3 7 9 31 31 31 34 30 20 19 19 16 10 4 5 6 8 8 13 15 16 16 16 14 14 13 14 15 15 15 13 16 16 13 11 14 16 19 16 14 13 12 10
8 5 3 4 6 10 9 12 11 25 26 37 36 33 27 24 20 15 11 7 6 8 6 7 11 16 16 16 17 14 17 14 13 14 15 15 13 13 15 12 14 14 17 18 17 14 13 13 11
11 6 3 4 6 2 8 5 9 18 24 41 38 33 32 29 25 14 10 11 7 8 6 8 12 15 15 14 13 12 11 12 13 14 14 12 12 11 11 13 14 11 16 17 16 13 12 13 11
15 9 4 5 2 8 7 6 7 13 18 34 41 42 36 33 29 24 13 8 11 8 5 7 12 12 11 14 13 13 13 13 12 11 12 12 10 11 9 10 11 12 13 15 15 14 14 13 12
15 11 9 8 6 3 13 10 11 17 12 27 42 45 42 36 30 29 19 15 12 9 6 10 14 14 12 13 14 14 13 11 10 11 12 12 12 12 12 10 9 9 9 12 16 14 17 15 15
23 16 5 1 2 5 5 8 14 12 10 12 44 46 43 37 34 34 27 21 15 13 7 10 13 17 16 14 15 14 13 11 10 10 10 10 10 10 9 10 10 11 11 13 17 18 18 19 15
27 22 7 6 3 2 8 10 6 6 13 13 36 48 43 40 37 36 29 22 17 14 12 10 11 16 17 17 14 13 14 12 11 11 9 10 10 12 13 13 11 10 11 11 14 18 19 19 18
29 27 14 4 4 2 6 12 12 8 10 17 21 50 45 41 39 37 35 26 20 16 14 12 9 13 15 17 17 15 12 12 10 10 10 9 10 12 13 13 13 12 11 10 11 15 20 20 18
9 20 9 8 4 4 5 6 9 14 10 15 19 38 43 41 39 38 39 31 23 18 15 15 10 11 13 15 15 15 15 13 14 11 11 9 9 10 11 14 14 15 14 14 14 14 14 18 20
19 13 10 6 4 5 1 1 14 15 4 11 12 25 33 34 43 37 40 36 25 22 22 16 12 11 14 15 15 15 15 16 16 14 13 12 12 12 11 12 14 15 16 15 14 15 16 16 17
19 15 17 9 6 4 1 4 11 12 0 4 4 12 20 34 47 42 40 39 31 27 25 18 16 14 11 10 12 14 16 16 17 17 16 15 14 14 15 14 14 15 15 16 16 17 15 15 17